GFSMW_prec_cloud_003.txt.gz
Cloud_Cover
10 99 100 100 100 24 13 1 0 0 0 0 0 0 0 0 0 0 0 0 4 7 57 48 5 5 5 3 0 0 4 0 26 81 37 10 5 5 4 7 6 5 5
5 74 100 98 87 6 5 14 22 44 10 5 5 2 0 0 0 0 1 4 5 5 5 5 4 3 0 0 0 0 0 5 5 40 73 4 35 13 51 18 40 87 99
62 99 100 100 35 30 98 100 100 100 99 58 4 0 0 0 4 5 5 12 5 5 2 0 0 1 3 4 0 0 0 0 3 2 0 23 2 4 36 87 87 72 54
5 21 99 14 60 15 28 98 100 98 92 25 5 4 3 1 2 5 4 5 5 1 0 3 5 5 2 0 0 4 5 5 4 5 5 4 1 0 0 0 4 5 5
5 5 98 84 5 32 57 68 90 100 100 100 100 57 5 5 0 0 5 5 0 0 0 0 0 0 0 0 3 3 5 7 5 5 5 5 15 5 12 18 6 5 5
85 62 60 100 5 83 100 24 5 3 2 51 99 59 5 0 0 1 0 0 0 0 5 0 1 2 5 41 54 14 5 5 4 2 1 44 100 100 62 14 4 3 0
5 18 5 4 10 89 100 100 32 0 0 0 0 0 0 0 0 0 0 3 5 5 5 5 5 5 5 5 5 5 5 4 3 4 34 63 39 38 26 11 4 5 27
4 5 5 2 5 88 100 100 66 5 1 4 0 0 0 0 2 5 5 9 5 5 12 27 8 34 65 14 5 5 4 4 0 0 0 0 0 0 0 1 37 47 20
0 5 0 0 4 5 15 100 67 55 8 5 5 5 9 40 31 12 20 6 11 23 72 64 58 8 5 5 5 5 1 4 0 0 0 0 0 3 11 68 53 40 68
0 1 0 0 1 0 8 8 15 98 15 22 64 47 64 39 14 7 6 33 76 56 14 28 9 5 5 5 5 3 0 0 0 0 0 0 2 5 2 3 7 7 53
0 0 0 0 0 4 5 51 44 5 12 5 69 99 68 35 83 83 30 5 5 5 4 3 2 1 4 5 0 0 0 0 0 0 0 5 3 0 0 0 2 5 6
0 0 0 0 5 5 39 6 5 5 6 90 97 100 100 100 52 33 6 5 5 5 5 5 5 5 3 0 0 0 0 0 0 0 2 0 0 0 0 0 5 3 7
0 0 2 5 32 57 10 54 48 92 100 100 100 84 71 10 5 5 5 5 5 5 5 5 5 2 0 0 0 0 0 0 0 0 0 0 0 0 1 5 5 61 55
4 5 5 5 40 72 53 64 88 100 90 99 92 23 7 5 7 5 5 5 6 5 5 3 0 0 0 0 0 0 0 0 0 0 0 0 3 5 5 5 51 84 12
5 5 5 49 62 92 97 100 95 77 96 100 79 72 32 34 29 23 5 39 5 4 0 0 0 0 0 0 0 0 0 0 0 0 0 2 5 5 74 100 92 37 32
74 8 5 56 73 94 91 86 100 100 100 90 100 97 80 35 6 14 6 5 0 0 0 0 0 0 0 0 0 0 0 3 5 5 3 5 5 21 100 100 100 100 100
100 82 76 96 100 80 87 100 100 100 99 100 90 62 6 5 5 1 3 0 0 0 0 0 0 4 0 0 0 5 5 5 5 5 5 5 60 72 88 24 86 66 15
100 100 100 96 97 74 100 100 100 100 84 36 5 5 5 2 0 0 0 0 0 0 0 4 0 0 0 0 0 5 5 5 5 5 5 70 31 63 75 94 100 5 0
98 99 100 94 40 92 98 100 68 7 5 5 5 4 0 0 0 0 0 0 1 5 5 0 0 0 0 0 5 52 5 5 58 14 99 100 39 87 100 100 32 5 5
100 96 98 70 81 80 98 8 36 100 38 5 5 0 0 0 0 0 2 5 4 4 0 0 0 0 0 0 47 79 59 22 48 92 97 54 47 98 100 100 98 35 10
99 60 44 78 100 92 9 93 100 46 5 5 0 0 3 2 1 5 5 1 5 0 0 0 0 0 2 8 71 97 100 89 85 95 100 5 41 100 100 100 9 58 100
88 97 99 100 20 19 92 60 5 5 5 1 1 4 2 5 5 0 4 5 0 0 0 0 0 4 11 81 97 100 100 100 100 86 54 58 99 100 96 12 92 100 94
100 100 51 5 16 45 56 10 7 5 2 5 5 5 5 4 0 5 3 5 0 0 0 3 12 56 5 24 11 81 98 100 100 100 100 85 5 58 31 47 100 84 62
86 75 6 5 41 55 34 98 26 5 5 5 5 5 5 5 4 0 1 4 0 0 5 49 98 64 5 55 10 99 96 84 96 100 21 1 5 100 86 27 69 92 100
83 19 6 26 9 94 81 7 5 5 5 5 4 5 5 0 1 5 5 0 4 5 66 69 91 82 92 74 100 100 100 100 100 100 4 2 79 34 59 49 98 72 100
61 94 65 6 86 54 5 5 5 5 5 5 5 5 0 4 2 5 5 5 5 5 6 82 100 100 100 100 100 100 100 100 100 67 5 53 99 100 98 100 98 97 100

GFSMW_prec_cloud_006.txt.gz
Cloud_Cover
0 0 1 5 84 96 66 9 6 5 19 57 95 88 60 5 0 0 0 0 0 0 0 0 0 0 13 5 4 2 0 0 0 0 0 0 0 0 1 96 34 0 5
0 0 5 40 95 89 100 98 96 29 52 11 50 97 38 5 2 0 0 0 2 5 5 20 20 20 5 5 1 0 0 0 0 0 0 0 20 6 5 5 5 5 5
0 2 5 5 67 100 100 100 100 100 98 99 82 14 0 0 0 0 0 4 5 5 5 5 5 5 5 0 0 0 0 2 5 4 0 0 0 0 5 17 9 15 14
2 0 0 3 7 44 91 71 83 37 92 70 6 5 0 4 3 4 4 2 1 4 5 4 4 5 0 0 0 5 3 0 0 2 5 4 2 5 4 3 2 6 8
5 5 2 5 5 5 58 98 100 100 100 80 4 0 0 4 4 5 4 5 3 0 0 2 0 0 0 0 5 5 5 3 5 5 5 5 5 2 0 4 0 0 0
5 8 5 16 58 96 51 44 37 62 14 5 5 4 5 3 0 0 0 0 0 0 0 0 0 1 5 5 5 5 5 5 5 5 0 0 0 0 4 5 4 0 0
0 5 5 5 5 5 5 5 6 37 5 9 53 31 5 5 4 0 0 0 0 0 0 4 5 29 63 15 5 5 5 5 5 2 4 5 5 5 0 0 0 0 1
0 0 0 0 5 5 5 4 4 28 19 8 33 83 34 53 26 5 5 5 5 5 5 7 51 10 5 5 5 5 5 5 4 5 5 5 4 0 0 3 5 5 12
0 0 0 0 0 1 5 5 5 5 4 4 5 5 16 89 70 60 53 30 6 78 100 90 18 5 5 7 6 5 5 1 5 4 0 0 0 0 0 4 0 0 13
0 0 0 0 0 0 0 1 11 5 3 5 5 4 5 66 14 30 96 39 92 100 52 7 5 5 3 0 1 4 5 3 0 0 0 0 0 0 0 0 0 1 5
0 0 0 0 0 0 0 0 0 1 16 7 5 18 5 45 99 88 69 90 16 6 4 0 5 5 5 5 5 5 0 0 0 0 0 0 0 0 0 0 0 5 31
0 0 0 0 0 0 0 0 0 3 5 5 14 5 69 80 53 33 16 9 5 5 5 5 6 5 5 5 3 0 0 0 0 0 0 0 0 0 0 3 5 7 88
0 0 0 0 0 0 5 0 4 5 5 5 25 57 71 70 63 52 6 29 5 5 5 5 5 3 0 0 0 0 0 0 0 0 0 0 0 1 5 5 6 81 75
0 0 0 0 5 5 5 5 5 10 30 72 57 5 12 90 19 27 81 5 5 5 15 5 2 0 0 0 0 0 0 0 0 0 3 5 5 5 21 30 92 88 76
0 0 0 4 5 5 5 5 86 80 81 45 5 27 100 68 93 100 8 5 5 5 5 5 0 0 0 0 0 0 0 0 0 5 5 5 25 19 69 100 84 79 15
0 0 0 5 5 5 11 95 99 100 72 51 36 84 68 91 81 7 5 5 5 5 0 0 0 0 0 0 0 0 4 5 5 5 6 10 65 80 100 100 100 100 100
0 0 3 5 5 65 100 79 90 87 87 71 62 100 100 50 5 4 5 5 0 0 0 0 0 0 0 0 0 5 5 5 11 65 60 71 90 100 100 100 100 99 92
0 5 70 80 88 100 99 96 100 86 59 92 100 80 5 4 1 4 0 0 0 0 0 0 0 2 5 0 2 5 5 16 65 81 98 100 100 100 99 63 88 100 100
16 93 98 100 100 100 100 98 84 100 30 60 15 5 5 5 0 0 0 0 0 0 0 0 4 5 0 0 5 56 78 76 76 86 100 100 100 100 100 100 100 92 58
100 100 100 100 100 100 83 91 74 80 96 99 7 5 5 0 0 0 0 0 0 0 0 4 1 0 0 2 66 96 100 94 100 100 99 100 100 98 100 100 100 96 8
100 100 100 100 94 97 92 94 100 100 100 64 5 5 4 5 5 3 4 0 0 4 0 0 0 0 3 5 36 94 100 100 46 87 78 83 100 100 100 100 100 100 100
100 100 100 97 98 99 100 100 100 98 22 5 5 5 5 5 5 2 0 0 0 0 0 0 0 5 5 33 70 99 100 100 100 75 62 99 100 85 69 100 100 100 100
100 77 100 100 100 98 95 100 100 49 5 5 5 5 5 5 4 4 0 0 0 0 0 0 5 5 8 66 93 100 100 100 100 100 100 100 61 77 100 100 100 100 90
100 100 99 100 37 91 100 37 6 5 5 5 5 5 5 5 0 0 0 0 0 0 0 5 5 55 83 93 100 73 35 78 76 100 76 46 100 100 100 100 99 94 95
100 100 98 16 93 78 10 5 5 5 5 5 5 4 0 0 0 0 0 0 0 3 5 6 81 98 98 100 100 100 89 98 100 100 16 95 100 100 99 89 91 46 96
100 59 5 40 15 5 5 5 5 5 5 5 0 0 0 0 0 0 0 0 5 5 5 40 99 99 100 100 100 100 100 100 100 100 100 100 100 100 100 100 99 100 100

GFSMW_prec_cloud_009.txt.gz
Cloud_Cover
0 0 0 0 0 4 98 100 93 36 52 42 41 60 67 65 65 5 5 0 0 0 0 0 0 0 0 0 1 5 7 23 5 5 5 0 0 0 0 2 5 5 5
0 0 0 0 0 6 16 100 79 66 96 100 100 98 71 5 5 5 3 0 0 0 0 4 5 5 5 5 30 54 32 5 5 5 0 0 1 1 1 5 5 5 5
0 0 0 0 5 96 73 41 100 100 97 65 5 22 10 5 5 5 3 4 3 0 0 1 4 5 5 2 0 1 0 3 5 0 0 0 4 5 5 20 71 49 31
3 0 0 5 5 6 15 5 60 64 48 39 31 95 70 30 5 0 0 0 1 0 0 0 2 1 0 0 0 0 1 0 3 5 1 0 0 0 0 5 5 10 5
0 0 1 3 5 5 5 22 86 97 100 94 26 5 5 5 5 5 5 5 8 8 6 3 0 2 5 5 5 5 5 5 3 4 5 5 13 41 5 5 0 0 0
0 5 5 5 48 42 77 44 68 19 4 0 5 5 3 2 3 4 2 2 5 5 6 8 64 72 66 59 12 5 4 0 5 5 5 4 5 2 0 0 0 0 0
0 5 5 5 13 70 58 5 3 4 2 0 1 1 0 0 0 0 0 2 5 5 5 10 32 61 57 9 5 49 62 11 5 4 1 5 3 4 0 0 0 0 0
5 5 5 5 3 5 5 2 0 0 0 0 1 1 4 5 5 5 2 5 5 4 5 5 5 5 15 46 17 6 8 5 1 2 5 5 5 5 1 0 0 0 0
5 5 5 5 5 0 0 0 0 0 0 0 0 0 2 1 2 3 5 7 57 5 7 47 78 56 14 5 13 5 5 5 5 2 5 5 0 0 0 0 0 0 0
0 0 1 0 1 0 0 0 0 0 2 4 0 0 0 4 5 5 48 100 89 65 100 100 100 67 79 54 14 4 5 4 5 3 2 0 0 0 0 0 0 1 2
0 0 0 0 0 0 0 0 0 0 2 0 0 5 5 5 5 70 87 95 100 100 100 96 47 96 36 5 4 1 2 0 0 0 0 0 0 0 0 0 0 4 10
0 0 0 0 0 0 0 0 0 0 0 0 1 5 5 55 100 75 94 74 91 75 100 94 100 89 5 5 5 2 0 0 0 0 0 0 0 0 5 1 5 5 5
0 0 0 0 0 0 0 0 0 0 0 0 5 5 60 59 28 66 32 11 78 55 99 84 6 10 5 0 0 0 0 0 0 0 0 0 2 5 5 32 7 10 63
0 0 0 0 0 0 0 0 0 0 1 5 5 42 5 5 5 6 31 32 22 67 62 85 19 2 0 0 0 0 0 0 0 0 0 4 5 15 7 16 42 84 36
0 0 0 0 0 0 0 0 0 0 5 27 66 58 5 6 38 7 11 56 94 99 20 0 0 0 0 0 0 0 0 0 1 4 5 5 32 55 99 100 87 28 41
0 0 0 0 0 0 4 3 0 5 90 97 84 46 74 100 20 6 21 35 36 4 0 0 1 0 0 0 0 0 4 5 5 5 5 5 5 68 82 100 100 100 100
0 0 0 0 0 1 3 2 65 94 100 90 92 100 93 14 9 47 49 6 4 0 5 5 0 0 0 0 0 3 5 5 5 43 5 6 5 96 8 40 94 94 91
0 0 1 0 0 4 8 68 100 100 96 100 100 88 21 5 32 78 15 1 5 5 0 0 0 0 0 0 0 18 5 34 17 19 82 78 77 12 100 100 99 100 64
2 2 0 4 5 37 96 100 100 100 74 86 30 91 34 21 33 6 5 5 0 0 0 0 0 0 0 0 4 42 40 5 5 96 99 100 98 97 100 100 100 5 2
2 15 91 99 100 100 100 100 100 99 56 58 99 100 9 5 5 5 5 2 0 0 0 0 0 0 0 0 7 59 49 32 96 75 81 75 100 100 100 100 89 78 33
8 59 88 100 100 100 100 98 56 32 46 20 98 30 5 5 5 5 1 0 0 0 0 0 0 0 0 5 20 78 98 99 92 72 65 76 100 100 100 100 100 100 100
100 100 100 100 100 87 62 98 91 36 48 94 29 5 5 5 5 0 0 0 0 0 0 0 0 0 5 5 23 99 100 100 100 66 84 91 100 100 100 100 100 100 99
100 100 92 79 92 100 99 100 89 50 99 49 5 51 5 5 0 0 0 0 0 0 0 0 0 1 5 5 66 100 100 100 100 100 100 99 100 100 67 81 100 100 68
85 66 89 97 94 90 99 100 100 99 9 5 5 5 5 5 0 0 0 0 0 0 0 0 5 5 12 10 7 24 88 90 92 99 97 49 100 82 96 99 74 53 92
80 51 60 91 100 78 100 100 100 42 5 5 5 5 5 0 1 0 0 0 0 1 5 5 25 85 83 65 100 100 100 100 100 100 60 85 50 79 93 76 84 100 100
87 81 100 100 100 100 100 100 81 7 5 5 5 4 3 5 0 0 0 0 0 1 5 57 83 68 100 100 100 100 100 100 100 100 96 99 100 100 100 98 100 100 100

GFSMW_prec_cloud_012.txt.gz
Cloud_Cover
5 5 5 31 15 0 0 0 5 3 23 5 6 8 84 100 100 100 100 100 100 72 5 1 0 0 0 0 0 0 0 0 0 5 5 22 92 56 96 84 8 26 0
5 14 48 4 0 0 0 0 4 24 37 19 89 55 96 66 66 22 5 5 5 3 0 4 4 1 3 1 0 2 4 5 5 29 23 42 52 5 5 5 2 0 0
5 14 4 0 0 0 0 5 5 5 50 51 48 68 18 63 72 36 28 5 5 2 0 0 0 0 0 1 4 1 4 14 5 2 2 5 5 9 49 35 12 5 5
5 0 0 0 0 0 4 5 5 5 5 5 2 5 5 5 12 6 5 5 5 3 0 0 0 0 4 3 5 5 5 5 26 8 5 5 5 1 7 50 15 7 55
4 0 1 0 0 1 5 5 5 5 5 0 0 5 5 1 0 3 1 0 0 1 0 0 0 0 0 0 0 5 0 0 0 4 14 52 48 14 5 4 4 3 0
5 4 1 0 0 5 5 5 5 5 5 3 5 5 5 2 0 0 0 0 0 0 3 4 5 5 5 5 5 4 0 3 5 5 5 5 4 3 4 1 0 0 2
5 2 0 0 0 5 5 5 5 5 38 63 3 4 3 2 1 0 0 0 0 1 5 5 5 5 5 5 0 2 6 7 8 14 9 15 5 5 4 0 0 0 1
5 2 0 0 5 5 5 5 5 5 3 0 0 0 0 0 0 0 0 0 4 5 5 5 5 5 5 5 5 8 13 14 46 36 5 5 5 5 0 0 0 0 0
5 5 0 0 1 5 10 5 5 3 0 0 0 0 0 0 0 3 7 63 5 6 46 6 5 5 5 5 5 5 16 22 87 49 14 5 5 1 0 0 0 0 0
5 5 5 5 0 0 5 1 2 0 0 0 0 0 0 0 4 5 73 41 17 47 70 51 5 5 5 5 5 18 76 99 36 5 5 5 0 0 0 0 0 0 4
5 5 5 5 5 3 0 0 0 0 0 0 0 0 0 4 5 5 5 64 53 77 88 78 63 17 56 52 91 100 89 11 5 3 0 0 0 0 0 0 1 5 29
0 4 5 5 5 2 0 0 0 0 0 0 0 5 4 4 5 5 5 40 100 100 95 77 58 37 12 91 24 40 14 0 0 0 0 0 0 0 0 3 5 5 5
1 5 4 4 3 0 0 0 0 0 0 0 0 0 0 3 4 5 86 100 100 100 80 40 57 5 5 25 34 5 2 0 0 0 0 0 0 1 5 5 5 5 36
0 5 0 1 0 0 0 0 0 0 0 0 0 0 5 6 60 98 100 100 99 76 94 65 49 5 8 7 3 0 0 0 0 0 0 0 5 12 7 5 65 100 100
5 5 0 0 0 0 0 0 0 0 4 0 2 5 23 89 99 100 100 94 89 100 64 86 10 15 5 0 0 0 0 0 0 0 0 5 5 54 89 100 96 100 43
0 0 0 0 0 3 0 0 0 0 0 5 28 83 95 100 100 100 91 100 89 79 31 5 0 0 0 0 0 0 0 0 0 1 5 5 6 76 79 96 100 100 100
0 0 0 0 0 0 0 0 0 3 15 62 100 97 96 100 100 94 67 30 13 5 0 0 0 0 0 0 0 0 2 5 3 5 5 5 17 5 5 10 100 100 100
0 0 0 0 0 0 0 0 5 10 78 96 99 100 100 100 97 52 10 5 5 4 3 2 0 0 0 0 0 1 5 5 5 5 5 5 5 33 100 100 100 100 57
0 0 0 5 2 0 24 76 100 98 100 100 100 100 100 62 37 12 5 5 5 5 5 1 0 0 0 0 0 5 5 5 5 14 91 91 59 94 100 100 100 82 14
0 0 3 18 46 47 82 100 92 100 100 100 100 66 70 5 8 5 5 5 5 5 0 0 0 0 0 0 2 5 50 68 63 83 87 36 100 100 100 100 100 94 5
8 23 24 79 100 99 100 100 100 99 100 72 24 23 6 6 5 15 5 5 5 5 0 0 0 0 0 0 4 5 97 100 77 93 75 50 90 100 100 100 100 100 100
93 96 100 100 100 95 92 100 100 74 14 9 5 5 15 81 62 5 5 5 4 0 0 0 0 0 0 4 5 86 100 100 100 93 37 88 100 100 100 100 100 100 97
93 99 100 100 100 100 100 35 5 5 5 63 50 99 100 89 6 5 5 4 5 0 0 0 0 0 5 5 15 84 100 100 100 95 92 99 100 100 39 84 100 98 64
100 100 100 100 99 44 13 5 34 47 60 100 100 100 90 7 12 5 5 5 5 1 0 0 4 5 5 5 8 89 84 82 69 87 99 68 48 21 78 32 64 100 100
100 100 100 99 58 30 12 18 13 99 100 100 100 52 6 43 15 5 6 5 0 0 0 4 5 12 21 15 100 100 100 100 100 100 25 5 19 81 86 87 100 100 100
100 98 71 53 8 5 5 74 100 100 100 100 36 28 66 5 25 44 6 0 0 0 0 5 5 44 94 100 100 100 100 100 100 88 6 80 100 100 100 100 100 100 100

GFSMW_prec_cloud_015.txt.gz
Cloud_Cover
0 0 17 71 58 100 97 36 74 41 4 0 2 32 85 41 36 44 83 58 97 80 49 29 5 0 0 2 0 0 0 0 0 0 0 0 0 2 0 0 5 5 5
0 10 78 13 5 0 0 0 2 5 0 0 5 4 34 39 5 61 25 28 5 5 5 5 4 0 0 0 0 0 0 0 0 0 0 0 1 0 0 0 0 0 0
0 22 6 5 4 4 5 5 4 0 0 5 5 5 3 5 3 3 5 5 5 5 5 5 5 5 2 1 0 0 0 0 0 0 0 0 1 3 11 8 26 27 23
4 7 5 5 44 20 5 2 0 0 5 5 4 0 0 0 0 5 5 0 0 0 0 0 0 0 0 0 0 0 0 0 0 0 0 0 0 0 0 6 86 100 100
0 5 5 14 28 5 3 0 0 0 1 0 0 0 3 7 58 5 5 0 0 0 0 0 0 0 0 5 5 0 0 0 0 0 0 0 0 0 0 0 0 0 6
4 5 5 5 9 1 0 0 0 0 0 1 4 33 10 2 0 0 0 0 0 0 0 0 2 5 5 5 5 5 4 0 0 0 0 0 0 0 0 0 3 2 4
4 5 5 36 4 0 0 0 0 0 5 5 2 0 0 0 0 0 0 0 0 0 4 4 5 5 5 5 5 5 5 4 0 0 0 1 0 0 1 2 0 0 3
3 5 5 5 0 0 0 0 3 5 5 0 0 0 0 0 0 0 0 0 0 4 5 5 5 5 5 5 5 5 5 5 5 5 5 3 5 5 5 0 0 0 0
5 5 5 3 0 0 0 0 5 5 0 0 1 0 0 0 0 0 0 0 5 5 5 5 5 5 5 5 5 5 5 5 5 5 5 5 5 5 5 0 0 0 0
5 5 5 0 0 0 0 0 0 0 0 3 5 0 0 0 0 0 3 5 5 5 5 5 5 22 5 5 5 5 5 26 6 5 5 5 4 5 0 0 0 0 1
5 5 4 0 0 3 5 4 4 0 5 5 0 0 0 0 2 5 9 5 5 5 5 36 81 58 38 6 5 13 59 21 5 5 0 0 0 0 0 0 0 4 46
4 5 0 0 1 5 5 5 5 5 5 0 0 0 0 0 0 0 5 5 5 58 85 81 89 40 6 46 98 62 5 2 0 0 0 0 0 0 0 3 5 5 5
0 0 0 0 5 5 5 5 5 4 0 0 0 0 0 0 0 5 5 10 93 84 83 66 82 78 100 69 5 0 2 0 0 0 0 0 0 0 5 7 7 38 90
0 0 0 2 5 5 5 5 0 1 0 0 0 0 3 3 5 5 79 82 100 100 100 89 69 88 22 5 0 0 0 0 0 0 0 0 0 5 37 49 95 97 44
0 0 0 0 5 5 5 0 5 5 0 0 0 0 5 5 62 100 70 99 100 100 56 77 66 8 3 0 0 0 0 0 0 0 0 0 2 10 96 100 73 92 58
0 0 0 0 5 1 0 0 5 3 0 0 0 5 53 65 100 89 100 99 96 74 67 5 5 5 0 0 0 0 0 0 0 0 0 0 5 5 79 75 100 100 100
0 0 3 5 5 5 1 5 5 1 4 4 7 83 97 97 100 100 100 100 97 47 13 5 5 4 4 4 0 0 0 0 3 5 5 5 5 15 27 9 100 67 94
0 0 0 0 0 0 4 5 5 5 11 91 100 94 100 100 100 100 100 98 28 5 5 5 5 5 1 0 0 1 5 5 5 5 49 33 51 77 100 95 73 98 91
0 0 0 0 0 2 5 5 94 99 100 100 100 100 100 100 100 100 100 66 5 5 13 5 5 0 0 0 0 5 5 5 5 14 82 100 24 96 100 100 100 78 10
0 0 0 5 5 5 9 74 95 100 100 100 100 100 100 100 100 100 81 5 34 43 5 4 0 0 0 0 4 31 8 5 5 5 5 5 96 100 100 100 100 69 5
2 5 5 5 5 5 6 63 98 100 100 100 100 100 100 100 82 13 19 100 100 18 5 5 4 3 0 0 5 69 100 84 65 32 67 5 29 100 100 100 89 79 100
5 5 18 62 65 50 98 99 100 95 97 100 100 100 98 69 16 92 100 92 9 5 5 5 3 0 0 0 4 54 100 100 100 100 17 47 100 100 100 100 100 100 100
90 100 92 79 98 100 100 90 96 100 100 100 66 20 13 86 90 95 65 5 5 5 5 0 0 0 0 0 0 5 99 100 100 99 99 87 96 39 6 74 100 100 93
86 100 100 100 100 100 100 100 100 90 5 34 5 70 96 77 73 12 5 5 5 3 0 0 0 3 5 5 7 92 88 85 81 82 86 5 5 34 65 100 92 87 100
100 100 100 100 100 100 89 41 12 5 5 15 95 75 80 42 5 7 7 5 1 0 0 0 5 5 5 8 100 100 100 100 100 100 6 6 65 95 95 100 99 100 100
100 100 100 100 47 14 5 5 5 5 52 69 69 60 7 5 18 10 5 0 0 0 0 1 5 5 20 72 99 100 100 100 100 83 39 100 100 100 100 100 100 100 100

GFSMW_prec_cloud_018.txt.gz
Cloud_Cover
0 0 8 100 100 100 99 100 100 100 100 100 100 100 99 100 100 77 57 23 6 8 48 7 5 5 5 5 5 5 0 1 0 0 0 0 0 0 0 0 0 0 0
0 0 0 82 100 100 82 77 95 52 24 98 99 38 5 79 100 45 4 1 3 5 0 3 1 0 0 0 0 0 0 0 0 0 0 0 1 0 0 0 0 0 0
0 0 0 1 14 5 5 4 5 2 1 0 7 69 100 94 5 0 0 0 1 0 0 0 0 0 0 0 0 0 0 0 0 0 0 0 0 0 4 1 0 0 1
0 0 0 0 0 5 5 5 4 3 0 5 4 5 5 4 0 0 5 2 0 0 0 0 0 0 0 0 0 0 0 0 0 0 0 0 0 0 0 0 0 5 5
0 0 0 0 5 5 5 5 5 6 6 5 1 0 5 0 0 5 5 0 0 0 0 0 0 0 0 0 0 0 0 0 0 0 0 0 0 0 0 0 0 0 5
0 0 0 0 5 1 5 5 6 31 6 5 5 0 0 2 4 0 0 0 0 0 0 0 0 0 0 0 3 2 0 0 0 0 0 0 0 0 0 0 0 0 0
0 0 0 0 4 5 5 39 6 5 5 5 5 5 5 5 3 0 0 0 0 0 0 0 0 0 0 4 5 2 0 2 3 0 0 0 0 0 0 0 0 0 0
0 0 0 2 1 5 5 8 5 5 0 5 5 29 5 0 0 0 0 0 0 0 0 0 0 0 5 5 0 4 5 5 4 1 0 0 0 0 0 0 0 0 0
0 0 0 3 5 3 5 5 5 0 0 0 5 5 1 5 0 0 0 0 0 0 0 0 5 5 5 0 5 5 5 5 5 5 5 0 1 4 0 0 0 0 5
0 0 2 4 5 4 5 5 0 0 0 0 0 2 5 5 0 0 0 0 0 0 0 2 5 1 5 5 5 5 5 5 5 5 3 5 1 0 0 0 0 0 5
0 0 0 2 5 5 5 4 0 0 0 0 1 5 5 5 0 0 0 0 0 5 5 5 5 5 5 5 5 5 5 5 5 5 1 0 0 0 0 0 0 4 5
0 0 0 5 5 4 5 4 0 0 0 5 5 5 4 0 0 0 5 0 0 3 4 5 5 5 37 5 5 5 5 5 1 0 0 0 0 2 0 0 5 5 5
0 0 0 4 5 5 5 0 5 0 5 5 5 3 0 0 2 0 2 0 2 5 32 23 5 52 48 34 54 5 4 0 0 0 2 4 0 0 0 5 5 41 86
0 0 0 2 5 5 5 4 4 5 5 5 5 5 2 0 2 0 0 5 19 76 46 20 61 31 5 12 5 0 0 0 0 4 0 0 0 0 9 63 63 97 13
3 0 0 3 5 5 5 3 5 5 5 5 5 5 4 5 5 4 39 79 64 28 50 63 15 13 17 5 5 5 0 0 4 0 0 4 1 5 100 100 100 95 92
5 0 3 5 5 5 0 3 5 3 5 5 5 5 5 5 5 58 100 59 74 57 65 36 35 45 5 5 5 5 4 0 0 4 5 3 5 6 100 92 100 100 100
5 5 5 5 5 3 0 0 0 4 5 5 5 5 5 35 96 77 80 98 77 98 99 89 58 57 5 5 5 5 3 4 4 5 5 5 5 33 5 5 97 24 99
5 5 5 5 4 0 0 0 5 5 5 5 50 76 88 41 66 90 45 80 100 97 100 94 70 8 5 5 2 4 5 4 1 5 5 31 5 5 100 98 97 95 52
5 6 5 5 0 0 0 0 5 5 76 71 47 75 71 76 14 77 96 77 94 100 99 42 13 6 5 5 5 5 5 5 4 5 22 11 26 60 100 100 86 90 5
5 5 2 0 0 5 5 5 5 5 40 62 48 36 17 64 83 92 94 100 99 53 71 65 5 5 5 2 5 15 5 5 5 25 33 68 88 100 100 100 88 39 7
5 5 5 5 5 5 5 11 48 83 100 23 5 7 39 100 70 100 98 32 5 52 20 5 5 5 0 0 5 32 98 42 57 59 71 5 58 100 100 100 59 66 100
1 5 5 5 5 5 36 99 100 67 6 5 5 5 5 67 99 54 6 7 5 24 5 5 4 0 0 0 3 81 100 99 91 82 44 77 99 100 94 87 100 100 99
5 5 5 5 10 70 66 71 14 5 5 5 5 14 100 56 6 5 8 6 14 5 5 0 0 0 0 0 2 54 100 99 100 99 99 94 74 5 5 82 100 97 87
94 60 36 65 58 66 49 15 11 61 21 5 56 70 5 5 5 5 13 5 5 2 0 0 0 2 5 5 18 95 84 93 78 67 68 5 5 5 52 73 29 84 100
36 26 57 28 5 5 20 62 34 5 25 90 29 5 5 5 8 5 5 5 2 0 0 0 5 5 5 20 100 100 100 100 100 100 5 5 20 88 77 86 99 100 100
55 41 47 49 33 21 30 7 8 76 58 6 5 5 5 5 5 5 5 4 0 4 4 1 5 5 5 36 92 100 100 100 100 64 42 96 100 100 100 100 100 100 100

GFSMW_prec_cloud_021.txt.gz
Cloud_Cover
0 0 0 0 0 0 0 4 98 88 99 62 54 100 100 100 100 100 100 100 77 46 5 5 5 1 0 0 0 0 0 0 0 0 0 0 0 0 0 0 0 0 0
0 0 0 0 0 0 0 3 68 100 100 100 100 100 100 98 100 100 100 42 5 2 0 0 0 0 0 0 0 0 0 0 0 0 0 0 0 0 0 0 0 0 0
0 0 0 0 0 0 0 0 6 98 97 92 86 87 100 100 100 97 83 5 1 0 0 0 0 0 0 0 0 0 0 0 0 0 0 0 0 0 0 0 0 0 0
0 0 0 0 0 0 0 0 0 43 60 68 27 8 16 65 94 99 5 3 0 0 0 0 0 0 0 0 0 0 0 0 0 0 0 0 0 0 0 0 5 4 2
0 0 0 0 0 0 0 0 0 2 50 5 5 5 94 99 46 5 5 0 0 0 0 0 0 0 0 0 0 0 0 0 0 0 0 0 0 0 0 0 0 0 5
0 0 0 0 0 0 0 0 0 5 6 24 26 8 5 5 5 5 5 5 0 0 0 0 0 0 0 0 0 0 0 0 0 0 0 0 0 0 0 0 0 0 0
0 0 0 0 0 0 0 0 0 5 5 5 1 5 20 16 40 28 23 5 0 0 0 5 2 0 0 0 0 0 0 0 0 0 0 0 0 0 0 0 0 0 0
0 0 0 0 0 1 2 5 0 0 3 5 1 0 5 5 8 5 5 3 0 0 0 0 0 0 0 0 0 0 0 0 0 3 4 0 0 0 0 0 0 2 0
0 0 0 6 0 3 5 5 0 0 3 0 4 4 5 1 2 5 5 5 0 0 0 0 0 0 0 0 0 0 1 5 5 5 5 5 5 0 0 0 0 2 5
0 0 3 40 0 4 11 6 4 0 0 2 5 5 5 0 0 5 5 3 0 0 0 0 0 4 0 0 4 5 5 5 5 5 5 5 3 0 0 0 0 0 5
0 0 3 4 1 5 12 5 3 0 0 5 5 5 5 0 5 5 4 0 0 0 0 0 2 2 4 5 5 5 5 5 5 5 5 5 0 0 0 0 0 3 5
1 0 30 3 5 4 0 0 0 0 0 5 5 5 5 5 5 5 0 0 0 0 0 1 5 5 41 6 5 35 5 5 5 5 5 3 0 0 0 0 5 5 5
30 2 42 3 5 2 0 0 0 4 5 5 7 5 5 5 5 5 5 0 4 0 1 5 7 58 5 37 66 6 5 5 5 5 3 0 0 0 0 5 5 21 94
99 94 7 2 1 0 0 1 3 5 5 5 6 5 5 5 5 5 5 5 5 2 5 5 6 5 58 11 5 5 5 5 5 5 0 0 0 0 6 46 81 98 20
100 95 3 0 0 4 0 3 4 5 5 5 5 5 5 5 5 5 29 5 5 5 5 65 61 5 5 5 5 5 5 5 3 4 0 0 2 5 67 100 73 86 77
99 12 3 0 0 0 0 4 5 5 5 5 5 5 5 5 50 90 5 68 15 14 5 6 5 5 5 27 5 5 5 5 3 0 0 0 0 5 38 55 100 100 100
100 30 0 1 5 2 0 0 5 5 5 5 5 5 5 89 100 89 100 61 23 1 5 35 5 60 12 5 5 5 5 3 0 0 0 0 5 5 5 5 87 100 99
48 5 5 5 5 1 4 5 5 5 5 5 5 14 100 100 98 69 90 5 4 31 60 52 92 21 5 5 3 5 5 2 0 0 1 5 5 32 100 94 95 5 5
97 5 5 5 5 5 5 5 5 5 5 5 28 77 100 96 71 23 5 5 70 45 90 78 5 5 5 4 0 5 5 5 5 5 76 91 89 100 100 100 79 46 4
50 5 11 6 5 5 5 5 5 5 5 8 82 95 98 83 5 5 5 10 74 100 25 5 5 5 2 1 4 5 5 5 6 84 5 71 97 100 100 100 99 42 7
99 100 82 60 5 5 5 5 5 5 48 86 100 100 62 5 5 5 64 100 53 5 5 5 5 4 5 1 4 5 40 10 99 16 22 5 59 100 100 100 62 46 100
100 100 99 28 5 5 5 5 16 68 83 91 47 5 5 5 5 50 58 5 5 5 5 5 15 5 5 5 4 19 82 97 89 74 5 37 98 100 89 71 100 100 98
100 98 12 5 10 65 28 6 89 91 91 5 5 5 5 5 36 6 5 5 5 5 5 5 5 5 5 5 1 6 100 100 100 97 100 98 49 5 5 61 100 90 87
5 6 49 74 16 16 26 67 12 19 56 5 5 5 5 5 5 5 5 5 5 34 56 5 18 24 5 5 7 77 95 99 96 100 41 5 5 5 42 23 15 71 100
64 50 31 32 20 41 5 18 5 5 5 5 5 5 5 5 5 5 5 22 61 14 5 5 5 5 5 9 98 100 100 100 100 100 8 5 17 71 76 75 86 99 100
100 98 66 5 5 5 5 5 4 5 5 5 5 5 5 5 5 5 43 15 5 5 5 2 5 5 5 24 95 100 100 100 100 54 18 95 100 100 100 100 100 100 100

GFSMW_prec_cloud_024.txt.gz
Cloud_Cover
0 0 0 0 0 0 0 0 0 0 0 0 0 12 100 100 100 100 100 100 100 83 5 5 5 5 4 2 0 0 0 0 0 0 0 0 0 0 0 0 0 0 0
0 0 0 0 0 0 0 0 0 0 0 0 0 100 100 100 100 100 100 100 100 20 44 24 2 0 0 0 0 0 0 0 0 0 0 0 0 0 0 0 0 0 0
0 0 0 0 0 0 0 0 0 0 0 0 0 84 100 100 100 100 100 100 80 48 5 5 0 0 5 0 0 0 0 0 0 0 0 0 0 0 0 0 0 0 0
0 0 0 0 0 0 0 0 0 0 0 0 0 6 97 100 100 100 100 100 11 5 5 2 2 5 2 0 0 0 0 0 0 0 0 0 0 0 0 0 0 4 2
5 0 0 0 0 1 2 0 0 0 0 0 1 0 13 91 100 94 89 56 5 5 4 5 5 3 0 0 0 0 0 0 0 0 0 0 0 0 0 0 0 0 2
5 5 0 0 0 0 0 0 0 0 0 0 10 72 100 100 100 100 84 31 64 34 46 6 5 0 0 0 0 0 0 0 0 0 0 0 0 0 0 0 0 0 0
2 0 0 0 0 0 0 0 0 0 0 29 100 100 100 100 88 31 4 59 11 5 5 5 1 0 0 0 0 0 0 0 0 0 0 0 1 0 0 0 0 0 0
5 5 2 0 0 0 0 0 0 0 27 100 100 100 30 16 6 0 4 5 5 5 5 4 0 0 0 0 0 0 0 0 0 4 4 5 4 4 0 0 0 1 0
5 0 2 0 0 0 0 0 1 4 52 96 65 4 2 2 0 5 2 5 5 5 5 1 0 0 0 0 0 0 0 4 5 5 5 5 5 5 1 0 0 1 5
5 0 0 0 0 5 1 1 20 68 26 22 0 0 0 1 0 5 4 5 5 5 5 0 0 0 0 2 0 3 5 5 5 5 5 5 1 0 0 0 0 0 5
1 5 0 1 0 5 1 5 59 69 85 5 0 0 4 4 2 5 5 5 5 5 1 5 0 4 2 0 5 5 5 5 5 5 1 0 0 0 0 0 0 1 5
5 5 5 1 1 5 5 5 69 100 19 5 1 1 0 5 5 5 5 5 5 5 5 5 5 5 3 5 5 5 5 5 1 0 3 5 5 5 0 0 1 5 5
27 7 5 0 4 1 5 50 89 100 10 4 0 3 5 5 5 5 5 5 5 5 5 5 5 5 5 5 5 4 0 0 3 5 5 5 4 0 0 3 5 17 72
5 5 4 2 5 4 29 87 100 42 3 2 4 5 5 5 5 5 5 5 5 5 33 5 5 5 5 3 0 3 4 5 5 5 5 2 0 0 6 60 88 100 60
65 89 100 80 11 73 74 53 54 5 1 4 5 5 5 5 5 5 5 5 16 78 73 24 5 2 0 0 4 5 5 5 14 6 0 0 0 5 43 100 97 98 11
100 100 98 100 100 100 26 5 5 5 6 12 16 46 7 5 5 5 5 60 99 84 8 5 1 0 2 5 5 5 5 5 3 0 5 5 3 5 16 34 98 100 100
100 100 100 100 100 100 10 5 5 42 72 76 56 5 6 5 5 5 52 98 89 16 4 0 2 5 5 5 5 5 5 5 5 5 5 5 5 5 5 5 83 100 80
100 100 100 100 100 39 5 5 5 57 63 45 8 5 5 5 20 92 100 84 63 6 5 5 5 5 5 5 5 4 6 50 5 5 5 5 5 5 100 72 100 16 5
100 100 100 100 95 28 5 5 8 49 10 6 5 5 5 5 56 100 97 96 6 5 5 5 5 5 5 5 5 36 57 5 5 5 6 5 61 75 100 100 89 57 5
100 100 100 100 100 98 44 24 24 71 52 5 5 5 34 99 97 99 71 5 5 5 33 51 5 5 1 5 5 5 23 5 5 62 10 6 99 100 100 100 98 45 5
100 100 100 100 69 90 100 83 11 9 41 19 19 83 94 100 92 17 6 5 5 5 3 5 3 5 5 5 5 5 50 5 92 14 26 5 90 100 100 100 63 36 100
100 100 96 97 100 100 96 41 18 11 44 99 100 100 94 48 46 5 4 5 5 5 2 5 5 5 5 5 5 5 68 76 88 76 20 74 100 98 74 39 98 100 97
100 100 100 100 97 19 32 68 71 100 97 86 80 68 58 6 2 5 5 5 5 0 5 5 5 5 5 2 0 5 30 68 100 97 100 93 48 5 5 64 100 92 38
100 100 79 66 83 67 82 78 92 100 83 60 17 5 1 10 50 13 5 5 2 5 5 5 5 4 0 0 6 13 8 66 54 78 59 5 5 5 5 13 5 6 92
100 100 97 100 100 100 100 100 100 100 84 16 4 5 34 55 15 5 5 5 5 5 5 4 0 5 5 5 84 100 100 100 100 100 5 5 15 64 43 37 75 79 100
100 100 100 100 100 100 100 100 92 24 5 5 5 41 42 7 5 5 5 5 5 5 0 0 3 4 5 36 82 100 100 100 98 64 13 88 100 100 100 100 100 100 100

GFSMW_prec_cloud_027.txt.gz
Cloud_Cover
0 0 0 0 0 0 0 0 0 20 1 0 0 1 11 64 89 100 100 100 100 100 100 100 100 100 100 100 100 100 12 4 0 0 0 0 0 0 0 0 0 0 0
0 0 0 0 0 0 0 0 0 0 0 0 0 1 61 69 99 100 100 100 100 100 100 100 100 100 100 99 68 6 2 0 0 5 0 0 0 0 0 0 0 0 0
0 0 0 0 0 0 0 0 0 0 0 0 0 18 98 35 89 98 100 100 100 100 100 100 100 100 74 23 5 2 0 1 5 2 0 0 0 0 0 0 0 0 0
0 0 0 0 0 0 0 0 0 0 0 0 0 0 0 0 32 100 100 100 100 100 98 100 100 98 90 5 5 5 3 5 5 0 0 0 0 2 5 1 0 0 0
0 0 0 0 5 2 0 0 0 0 0 0 2 2 1 5 100 100 100 100 100 60 87 45 12 64 8 5 5 5 5 5 0 0 0 0 0 0 0 4 0 2 5
0 0 0 0 2 3 0 0 0 0 0 1 51 90 39 28 100 100 100 75 24 42 5 5 5 22 89 8 5 5 5 5 0 0 0 0 0 0 0 0 0 0 0
0 0 0 0 0 5 0 0 0 0 0 1 66 100 59 100 100 100 100 94 79 5 5 7 80 84 17 5 5 5 1 0 0 0 0 0 0 0 0 0 0 0 0
0 0 0 0 0 1 5 0 0 0 0 0 33 71 98 100 100 100 98 100 19 5 5 14 60 6 5 5 5 5 0 0 0 0 0 0 0 0 0 0 0 0 0
0 0 0 0 0 1 0 0 0 2 0 0 0 85 100 100 100 100 98 5 28 4 0 5 5 5 5 5 5 5 0 0 2 0 0 2 4 1 0 0 0 0 0
0 5 5 5 0 0 0 0 2 4 3 59 100 100 100 100 100 48 0 5 8 5 5 5 5 5 6 11 5 5 3 5 5 0 2 0 0 0 0 0 0 0 5
0 5 5 5 5 4 3 4 5 5 45 100 100 100 100 41 4 0 5 5 5 5 5 5 5 5 8 40 10 5 5 5 5 5 0 0 0 0 0 0 0 4 5
0 0 7 5 5 7 5 5 5 45 100 100 100 98 58 7 5 5 5 5 5 5 5 23 10 5 5 5 5 5 5 5 4 0 0 0 2 0 0 0 1 5 5
0 15 5 5 5 4 8 34 54 100 100 100 100 100 70 58 5 5 26 5 5 5 58 64 29 28 5 5 5 5 5 2 0 0 5 4 0 0 0 1 5 5 65
44 1 0 5 10 38 36 84 100 100 100 100 100 100 98 65 6 36 69 5 5 50 97 41 8 41 5 5 5 5 1 1 5 5 3 0 0 0 5 51 78 100 99
84 17 1 3 33 73 82 100 100 100 100 99 100 100 97 44 24 19 9 5 84 98 26 14 68 57 5 5 5 5 5 5 5 5 0 1 4 5 29 100 99 100 98
56 41 5 10 100 61 96 100 100 100 100 100 100 98 71 55 5 5 77 100 100 16 76 62 68 23 5 5 5 5 5 3 0 0 5 4 0 2 82 89 100 100 100
92 18 5 52 99 100 100 98 96 94 100 100 100 100 46 5 48 100 100 89 45 31 71 90 5 5 5 5 5 5 5 4 3 5 4 5 5 5 5 8 99 97 97
99 99 100 69 90 100 100 100 100 100 100 100 100 68 76 100 100 90 64 67 23 81 70 5 5 5 5 5 3 3 4 5 5 3 3 5 5 12 100 100 88 30 32
100 89 93 100 98 100 100 100 100 100 100 100 99 88 99 75 65 91 34 78 83 26 5 5 5 5 5 0 0 5 5 5 5 2 5 5 98 100 100 100 70 100 64
100 100 100 100 100 100 100 100 100 100 100 98 47 54 73 75 66 85 83 52 5 5 5 4 5 5 4 3 5 5 5 5 16 94 80 80 100 100 100 100 100 90 7
100 100 100 100 100 100 100 100 100 61 79 91 75 67 78 76 64 81 33 5 5 4 5 5 4 5 2 5 4 5 22 80 99 91 90 80 95 100 100 100 85 72 100
100 100 100 100 100 100 100 100 90 100 95 97 99 94 84 92 37 5 5 4 5 5 5 5 5 5 4 0 1 5 76 85 94 99 71 73 100 95 71 44 97 100 97
100 100 100 100 100 100 100 100 100 100 100 100 98 80 64 25 5 5 5 5 5 5 5 4 5 5 1 0 4 5 35 64 100 53 93 85 62 5 5 49 89 93 80
100 100 100 100 100 100 100 100 99 99 90 94 69 53 36 5 5 5 5 5 3 0 4 4 3 0 3 5 6 35 5 64 68 43 82 5 5 5 5 14 7 70 99
100 100 100 100 95 92 100 98 100 100 100 75 19 5 5 5 5 5 5 2 0 2 4 0 4 5 5 5 60 70 88 100 100 100 32 5 10 32 29 32 65 86 98
100 100 100 100 100 100 100 88 26 6 5 5 3 5 5 5 5 5 5 5 4 0 2 5 3 5 5 5 71 99 100 100 95 68 6 60 100 99 100 100 96 99 100

GFSMW_prec_cloud_030.txt.gz
Cloud_Cover
0 0 0 0 0 0 0 0 0 0 0 0 0 94 33 5 21 0 100 69 78 40 100 89 6 99 100 100 100 100 100 100 100 100 100 67 55 8 0 2 5 0 0
0 0 0 0 0 0 0 0 0 0 0 0 0 35 78 56 84 64 100 83 54 90 100 88 38 74 99 100 100 100 100 100 100 98 49 21 0 1 1 5 5 0 0
0 0 0 0 0 0 0 0 0 0 0 0 1 33 29 70 100 100 100 88 68 100 52 100 100 96 81 92 100 100 100 99 96 32 3 2 0 2 4 0 0 0 0
3 0 0 0 0 0 0 0 0 0 0 0 0 0 0 71 100 98 80 100 100 100 100 98 100 100 99 100 100 96 100 68 5 5 5 5 5 5 5 4 0 0 0
1 0 0 0 0 0 0 0 0 0 0 0 0 0 23 100 99 55 95 96 100 97 0 63 6 47 48 5 10 100 73 5 5 5 5 5 5 5 5 5 0 0 0
0 0 0 0 0 0 0 0 0 0 0 0 0 1 48 79 14 29 81 91 100 95 16 5 3 5 5 5 58 78 31 5 5 5 5 5 5 5 5 0 0 0 2
0 0 0 0 0 0 0 0 0 2 0 0 0 39 64 87 35 100 100 100 100 100 5 0 0 5 5 5 30 6 5 5 5 5 6 5 5 5 5 1 0 0 0
0 0 5 2 0 5 3 0 0 0 0 0 5 36 83 100 39 44 100 100 100 62 72 0 0 1 2 5 5 5 5 5 7 21 37 14 5 5 5 0 0 0 0
5 0 5 46 4 0 5 1 0 0 2 0 12 43 94 100 44 100 100 98 96 45 26 0 0 2 5 5 5 5 5 5 5 5 5 5 5 5 0 0 0 0 0
0 0 4 37 5 0 4 2 0 5 5 2 2 46 100 100 100 100 100 100 100 83 5 5 5 5 5 5 5 5 5 5 11 5 5 5 5 2 0 0 0 0 0
1 0 2 51 5 0 0 0 0 5 5 5 5 33 100 100 100 100 100 100 94 28 5 5 5 5 5 5 16 5 5 5 5 5 5 5 5 0 0 0 0 0 0
4 5 5 5 39 13 3 0 0 2 11 5 5 62 100 100 100 98 100 78 100 63 5 56 57 20 23 75 7 5 5 5 5 5 5 5 0 0 0 0 0 0 5
5 5 16 51 66 31 10 0 1 6 88 16 68 98 100 100 100 100 93 100 100 59 82 88 78 81 90 56 7 5 5 5 5 5 3 0 0 0 0 0 5 17 68
53 5 56 74 78 49 5 9 13 82 90 100 100 100 100 83 99 92 100 100 95 98 97 100 98 99 81 40 5 5 5 5 4 0 0 0 0 0 5 5 56 76 97
90 60 66 75 68 98 100 55 75 100 100 100 100 100 100 100 100 100 100 100 100 99 100 100 100 99 64 44 20 5 5 5 5 5 0 0 1 5 17 77 89 100 98
100 94 100 70 100 100 100 100 100 100 100 100 100 99 100 100 100 100 100 100 100 99 100 100 95 67 65 60 13 5 5 5 3 0 0 0 5 5 73 97 100 100 100
100 100 88 81 100 100 100 100 100 100 100 100 100 100 100 100 100 100 100 100 100 98 100 93 88 87 56 70 5 5 5 4 0 0 1 5 5 67 91 100 100 100 98
100 98 82 98 100 100 100 100 100 100 100 100 100 100 100 100 100 100 100 100 100 92 100 89 88 76 81 64 12 5 3 0 0 5 5 5 64 83 100 100 75 99 98
59 39 66 100 100 100 100 100 100 100 100 100 100 100 100 100 100 100 100 100 99 95 100 88 95 82 44 5 5 5 0 0 4 5 15 63 87 100 100 98 90 100 97
96 71 100 100 98 88 78 81 100 98 98 100 100 100 100 100 100 100 99 93 100 100 86 82 78 44 5 5 3 5 0 4 5 5 48 82 99 99 100 100 100 99 93
100 100 98 100 99 100 100 100 100 100 100 100 100 100 100 100 100 100 100 100 94 100 77 57 5 5 5 5 2 5 5 5 18 63 78 82 90 100 100 98 100 100 100
100 99 96 100 100 100 100 100 100 100 100 100 100 100 100 100 100 94 99 76 39 9 5 5 5 1 0 0 0 5 45 64 85 98 88 75 100 77 57 52 63 100 100
100 100 100 100 100 100 100 100 100 100 100 100 100 100 100 100 94 63 9 5 8 5 5 5 5 5 1 2 4 5 38 68 99 100 91 99 65 10 5 10 96 98 99
100 100 100 100 100 100 100 100 100 100 100 100 100 100 88 34 5 5 5 5 5 5 5 5 5 5 5 5 2 5 63 84 99 99 98 35 19 5 23 11 40 94 98
100 100 100 100 100 100 100 100 100 100 100 100 72 18 5 5 5 5 5 10 13 5 5 5 5 5 5 0 12 70 95 100 99 99 57 5 5 5 22 64 90 98 99
100 100 100 100 100 100 100 100 100 100 85 22 6 5 5 5 5 5 5 5 5 5 5 5 5 4 5 9 74 100 100 100 88 74 5 38 85 98 95 100 98 98 97

GFSMW_prec_cloud_033.txt.gz
Cloud_Cover
5 0 0 0 0 0 0 0 0 0 0 0 0 0 0 84 100 100 84 2 0 89 0 6 65 94 56 48 54 86 71 6 16 32 100 100 100 100 92 39 87 34 5
34 0 0 0 0 0 0 0 0 0 0 0 0 0 37 99 100 94 7 8 54 69 100 62 100 100 87 20 51 64 49 41 70 26 5 32 87 14 63 53 5 0 5
100 90 37 4 5 0 0 0 0 0 0 0 0 10 83 94 100 46 84 65 80 100 100 100 100 98 93 47 6 53 89 64 20 5 6 5 26 17 5 5 5 0 0
100 100 32 5 2 5 4 0 0 0 0 0 0 0 0 0 11 41 100 100 89 95 100 100 100 100 91 92 36 12 17 12 41 22 5 5 5 5 16 5 2 0 0
64 15 72 8 5 2 2 0 0 0 0 0 0 0 0 0 2 99 100 100 97 98 100 100 100 100 100 100 47 0 0 5 4 5 5 5 32 5 1 0 0 0 0
0 0 1 0 0 0 1 5 5 0 0 0 0 0 0 0 15 92 100 100 100 100 100 100 89 100 99 38 16 5 0 0 3 5 31 21 5 3 0 0 0 0 3
0 0 0 0 0 0 0 5 5 2 0 0 0 0 5 0 5 40 100 100 94 84 100 100 100 100 100 100 59 7 0 0 2 5 4 5 3 0 0 0 0 5 5
0 0 0 0 0 0 0 5 1 0 0 4 0 18 33 0 48 99 100 49 83 100 100 100 100 100 100 100 54 5 1 5 5 5 5 5 5 4 0 0 0 0 5
0 0 0 0 0 0 0 0 2 5 0 0 1 91 4 50 97 100 44 82 100 100 100 100 100 100 100 99 32 5 5 5 5 5 5 5 5 5 0 0 0 0 0
0 0 0 0 0 0 0 0 0 5 6 5 33 11 42 97 100 31 79 84 79 100 96 100 100 100 100 86 15 5 5 5 5 5 5 5 5 1 5 3 0 0 0
1 0 0 0 0 0 0 0 0 11 99 27 3 4 32 100 100 85 65 100 74 82 86 36 39 98 99 6 12 30 5 5 5 5 5 4 0 1 0 0 0 0 0
5 0 0 0 0 3 20 63 59 5 81 54 48 74 51 99 96 65 100 90 82 99 99 100 100 96 61 66 77 55 6 38 5 5 5 0 0 0 0 0 0 0 0
5 0 0 0 3 100 100 100 64 5 76 65 97 100 98 100 100 100 100 99 90 82 98 100 100 98 82 90 61 62 62 59 6 5 5 5 0 0 0 0 0 4 5
1 4 0 0 39 100 100 100 47 87 74 100 100 100 100 100 100 100 100 81 100 99 100 100 100 100 85 99 84 70 74 68 34 5 5 3 2 4 0 2 5 5 5
4 5 14 40 100 100 100 97 56 100 41 100 98 100 100 100 100 100 100 94 100 87 100 100 100 100 100 98 95 86 72 61 13 5 5 5 5 0 14 54 45 30 66
80 28 78 100 100 100 100 100 97 28 94 100 96 99 100 100 100 91 100 93 99 100 100 100 100 100 100 100 100 84 68 5 5 5 5 4 0 2 6 74 77 97 100
92 100 99 100 100 100 100 100 100 100 100 100 100 99 100 100 99 100 100 100 100 100 100 100 100 100 100 100 95 54 5 5 5 5 5 1 4 5 5 28 83 69 80
100 100 100 100 100 100 100 100 100 100 100 100 100 100 100 100 100 100 100 100 100 100 100 100 100 100 100 70 58 42 5 5 5 4 0 5 5 5 58 47 87 58 64
100 100 100 100 100 100 100 100 100 100 100 100 100 100 100 100 100 100 100 100 100 100 100 100 100 100 100 83 49 72 31 24 4 0 0 5 5 30 97 98 96 78 7
100 100 100 100 100 100 100 100 100 100 100 100 100 98 100 100 100 100 100 100 100 100 100 100 100 100 97 86 82 67 5 0 1 0 1 5 59 86 100 100 85 6 5
100 100 100 100 100 100 100 100 100 100 100 100 100 100 100 100 100 100 100 100 100 100 100 100 100 99 87 75 43 5 5 5 5 5 5 5 75 93 100 97 35 36 100
100 100 100 100 100 100 100 100 89 62 80 100 100 100 100 100 100 100 100 100 100 100 100 100 32 48 40 10 5 5 8 32 35 5 13 11 88 100 63 62 62 99 100
100 100 100 98 100 100 100 100 100 100 100 100 100 100 100 100 100 100 100 100 99 74 56 60 5 5 5 5 5 5 6 37 9 36 91 92 70 72 9 14 97 98 36
100 100 100 100 100 100 100 100 100 100 100 100 100 100 100 100 100 100 100 89 64 69 56 5 5 9 5 5 5 5 5 6 17 57 13 26 24 5 5 5 5 5 47
100 100 100 100 100 100 100 100 100 100 100 100 100 100 100 100 100 64 32 77 97 75 53 64 76 8 6 13 5 14 16 33 86 99 10 5 5 5 5 5 5 5 62
100 100 100 100 100 100 100 100 100 100 100 100 100 100 100 83 39 55 79 86 89 96 100 80 20 52 12 24 15 69 92 100 100 68 5 5 5 5 5 52 85 96 100

GFSMW_prec_cloud_036.txt.gz
Cloud_Cover
5 54 6 73 100 36 1 0 0 0 0 0 0 0 0 39 100 100 100 88 26 4 0 0 5 5 3 0 22 5 51 58 5 8 39 94 100 58 5 5 5 5 5
5 5 21 53 8 97 52 5 0 0 0 0 0 0 0 1 6 99 64 99 14 5 0 3 5 5 100 98 99 92 100 66 9 5 5 17 86 15 5 5 5 5 5
7 5 5 10 17 26 100 100 20 0 0 0 0 0 0 0 0 24 100 39 67 4 2 0 8 28 100 100 100 100 89 100 46 41 12 42 18 16 5 5 5 5 5
5 5 5 3 5 14 100 100 100 99 32 7 0 0 0 0 0 0 31 100 97 16 76 58 45 100 100 100 100 98 100 100 99 55 31 8 0 2 4 5 5 5 5
4 5 3 0 0 5 75 100 100 100 27 5 1 0 0 0 3 0 79 100 100 100 100 98 89 84 100 89 100 99 100 100 99 100 97 6 5 0 0 0 1 0 0
22 28 5 2 0 4 6 26 100 100 100 5 2 0 0 0 1 26 97 100 100 100 100 100 100 100 100 98 100 100 100 100 78 24 6 12 38 5 0 0 0 0 1
5 12 6 5 4 4 5 18 26 52 91 5 0 1 0 5 0 0 8 42 97 100 100 100 99 79 99 100 100 100 100 100 100 93 100 58 68 20 0 0 0 0 1
0 0 2 4 0 0 0 1 9 38 5 5 4 0 3 23 5 0 0 70 100 100 100 96 60 70 100 99 100 100 100 100 100 100 100 89 58 53 5 0 0 0 0
0 0 0 0 0 0 0 0 0 0 0 0 0 2 4 26 10 5 62 100 100 100 100 99 99 62 100 100 100 100 100 100 100 100 99 97 29 23 5 5 0 0 0
0 3 1 0 0 0 0 0 0 0 0 0 0 65 0 2 74 33 78 100 100 100 100 94 34 30 76 97 100 100 100 100 100 100 79 12 7 5 5 5 0 0 0
95 88 14 38 8 1 0 0 0 0 4 42 68 64 26 43 19 92 99 100 100 100 100 52 100 72 37 41 37 69 89 93 91 48 52 57 20 5 5 5 1 0 0
99 62 98 100 100 15 0 0 0 31 100 100 100 33 46 5 94 100 100 100 100 100 100 100 100 87 57 50 71 100 89 99 100 100 82 80 11 5 5 5 0 0 0
56 100 100 100 100 91 32 78 80 100 100 100 49 26 0 81 100 100 100 100 98 99 100 100 100 100 100 98 100 100 99 100 100 100 100 100 72 23 5 0 0 0 0
100 100 100 100 100 96 100 100 100 100 100 12 8 1 64 100 100 100 100 100 100 100 95 99 65 100 100 100 99 100 90 92 100 100 100 100 87 5 5 0 2 5 5
59 79 93 100 83 86 100 100 100 100 75 16 2 88 99 100 100 100 92 100 100 100 100 100 100 99 100 100 100 100 100 100 100 100 100 100 42 5 5 5 5 20 55
64 99 8 5 5 100 100 100 100 100 35 0 42 98 100 100 100 100 100 100 100 100 100 99 100 100 100 100 100 100 100 100 100 100 100 100 58 5 5 5 32 73 100
24 11 29 100 100 100 100 100 95 50 25 84 100 100 100 100 100 100 100 100 100 100 100 100 100 100 100 100 100 100 100 100 100 100 100 95 16 5 2 5 56 24 13
58 31 70 100 100 100 100 100 100 100 100 100 100 100 100 100 100 100 100 100 100 100 100 100 100 100 100 100 100 99 100 100 100 100 79 10 5 5 5 56 88 5 5
99 99 100 100 100 100 100 100 100 100 100 100 100 100 100 100 100 100 100 100 100 100 100 100 100 100 100 99 84 100 100 100 99 77 8 5 3 5 77 55 5 5 5
100 100 100 100 100 100 100 100 100 100 100 100 100 100 100 100 100 100 100 100 100 100 100 100 100 100 100 100 100 100 99 87 15 8 5 5 6 63 85 100 100 85 17
100 100 100 100 100 100 100 100 100 100 100 100 100 100 100 100 100 100 100 100 100 98 88 99 100 100 100 100 100 59 6 5 5 5 5 5 16 83 100 100 87 50 100
100 100 100 100 100 100 100 100 100 100 100 100 100 100 100 100 100 100 99 92 100 100 100 100 93 55 42 51 79 71 80 59 9 5 5 5 60 97 87 84 54 99 100
100 100 100 100 100 100 100 100 100 100 100 100 99 100 100 100 100 100 100 100 100 100 100 52 31 30 33 66 96 83 47 5 5 5 33 86 84 34 30 5 63 88 5
100 100 100 100 100 89 97 100 100 100 100 100 100 100 100 100 100 100 100 100 93 57 18 5 28 75 91 62 32 5 5 5 5 8 68 30 12 4 4 5 5 5 5
100 100 100 100 100 100 100 100 100 100 100 100 100 100 100 100 100 100 92 37 6 5 5 5 6 55 36 14 5 36 69 56 88 100 10 4 5 5 5 5 5 5 9
100 100 100 94 100 100 100 100 100 100 100 100 100 100 94 100 69 15 5 5 5 5 5 6 53 59 6 5 34 71 80 100 100 78 5 5 5 5 5 5 5 6 74

GFSMW_prec_cloud_039.txt.gz
Cloud_Cover
10 5 24 5 3 0 0 0 0 0 0 0 0 0 0 1 49 100 8 2 0 0 0 0 0 0 2 0 0 3 5 24 39 5 23 10 57 5 5 5 5 5 25
5 5 5 5 5 5 2 0 3 1 0 4 1 4 2 83 21 100 100 86 5 0 0 0 3 0 0 0 1 17 46 38 98 93 91 98 75 5 6 43 18 49 61
5 5 5 5 5 8 9 5 5 0 5 5 5 15 7 46 46 95 59 72 36 8 3 1 63 59 5 12 50 4 100 92 96 100 99 100 80 73 79 81 64 10 22
1 0 3 5 5 75 36 57 14 5 5 1 4 5 6 5 58 2 0 22 15 15 91 22 4 0 22 31 100 80 100 100 100 100 100 100 100 100 100 100 100 100 71
0 3 2 0 1 5 5 5 5 5 5 5 4 5 5 5 23 5 42 36 5 11 53 61 37 98 100 98 60 55 78 100 100 100 98 100 94 100 88 100 98 83 37
7 5 4 2 3 0 1 4 5 0 0 0 0 1 39 46 5 12 6 5 18 43 68 93 100 100 100 87 84 100 84 100 100 100 100 100 99 42 24 90 100 100 99
60 21 26 9 5 5 5 5 4 4 4 0 0 0 78 100 18 5 5 5 5 7 0 100 100 100 100 100 100 100 54 100 99 100 100 100 100 100 100 100 100 100 100
100 98 100 100 100 97 57 5 3 1 2 5 4 0 63 89 5 5 8 5 6 5 23 100 100 100 100 100 100 46 100 78 55 86 100 100 100 100 100 100 100 100 100
53 5 0 0 3 4 4 3 1 0 0 0 0 0 5 99 41 15 51 39 94 100 99 36 100 100 100 100 84 99 63 5 8 34 43 68 99 100 87 67 32 6 30
0 1 0 0 0 0 0 0 0 0 0 0 0 0 2 51 100 91 5 5 23 99 75 100 100 100 100 69 100 72 93 5 6 43 72 80 42 13 5 6 5 5 5
5 4 5 62 5 0 0 0 0 0 0 0 0 0 4 92 14 5 4 1 80 97 100 100 100 100 100 100 50 100 43 56 24 37 100 76 58 65 5 5 6 5 5
63 36 5 5 19 57 0 53 69 0 0 0 0 0 5 4 5 5 5 36 100 100 100 100 100 100 100 94 100 55 100 71 37 95 96 62 44 24 34 16 8 5 5
100 98 19 5 3 0 82 100 100 91 3 0 0 2 39 2 70 66 14 100 100 100 100 100 100 100 92 100 100 92 100 99 100 99 100 92 66 32 70 74 60 5 5
100 100 92 100 5 5 100 100 100 100 6 21 1 98 100 100 100 96 100 100 100 100 100 100 100 100 100 100 100 100 100 100 100 99 100 76 100 88 93 99 60 5 5
100 100 100 44 5 83 100 100 100 100 68 100 100 100 100 100 100 100 100 100 100 100 100 100 100 100 100 100 100 100 100 100 100 92 76 86 100 89 100 64 28 71 43
100 94 5 5 44 100 100 100 100 100 100 100 100 100 100 100 100 100 100 100 100 100 100 100 100 100 100 100 100 100 100 100 100 99 100 97 100 93 100 88 48 38 71
79 29 36 5 100 100 100 100 100 100 100 100 100 100 77 79 100 100 100 100 100 100 100 100 100 100 100 100 100 100 100 100 100 99 68 100 100 100 100 99 8 35 47
22 50 19 5 5 39 100 100 100 100 100 100 100 88 99 100 100 100 100 100 100 100 100 100 100 100 100 100 100 100 100 100 100 100 100 100 100 99 78 16 93 93 60
95 89 58 100 100 100 100 100 100 100 100 100 100 100 100 100 100 100 100 100 100 100 100 100 100 100 100 100 100 100 100 100 100 100 100 100 44 5 21 87 95 48 8
100 100 100 100 100 100 100 100 100 100 100 100 100 100 100 100 100 100 100 100 100 100 100 100 100 100 100 100 100 99 92 45 45 6 5 5 5 10 92 100 100 88 20
100 100 100 100 100 100 100 100 100 100 100 100 100 100 100 100 100 100 100 100 100 100 100 100 100 100 100 73 26 5 36 8 5 5 16 24 17 91 100 100 99 53 100
100 100 100 100 100 100 100 100 100 100 100 100 100 100 100 100 100 100 100 100 100 100 100 100 100 73 6 5 5 5 5 8 5 8 5 7 89 100 91 46 37 91 95
100 100 100 100 100 100 100 100 100 100 100 100 100 100 100 100 98 100 100 100 100 100 100 100 8 5 5 5 4 5 10 30 6 5 49 100 92 52 4 4 24 31 5
100 100 100 100 100 100 100 100 100 100 100 100 100 100 100 100 100 100 100 100 100 99 56 7 5 5 2 3 60 70 7 5 5 22 100 84 3 4 4 2 1 5 5
100 100 100 100 100 100 100 100 100 100 100 100 100 100 100 100 93 100 98 80 47 5 5 12 2 0 25 51 48 45 21 73 100 98 10 2 2 5 5 5 5 5 8
100 100 100 100 100 100 100 100 100 100 100 100 100 100 100 100 100 81 24 5 5 5 2 0 3 23 10 5 39 65 92 100 98 5 3 5 5 5 5 5 5 6 86

GFSMW_prec_cloud_042.txt.gz
Cloud_Cover
100 96 49 58 6 10 32 5 4 5 0 0 4 5 5 84 97 22 5 5 8 4 0 5 0 0 0 0 0 0 0 0 4 5 5 67 100 100 100 100 88 48 18
100 100 100 97 66 6 5 5 4 0 5 2 0 0 0 7 74 100 100 100 91 49 48 44 37 5 2 5 0 0 0 2 51 5 5 29 72 99 100 100 100 100 100
100 100 100 100 100 68 5 0 0 0 5 1 9 43 25 94 77 90 100 100 96 100 100 100 70 68 54 44 1 4 12 62 37 9 5 82 41 61 100 100 100 100 100
100 100 99 27 8 5 5 5 4 1 5 5 5 5 8 21 10 6 19 93 79 98 100 100 96 98 100 99 33 27 45 100 15 55 25 71 97 93 100 85 49 90 100
79 44 5 5 5 5 5 5 5 3 3 5 5 5 8 5 27 16 4 13 8 95 100 100 100 100 100 48 100 94 94 100 65 76 45 32 46 74 100 100 100 100 100
7 6 5 5 5 5 1 0 0 0 0 0 0 5 5 16 37 47 25 5 5 5 81 100 100 100 85 14 100 100 100 100 92 78 63 10 4 23 100 100 100 100 100
17 5 5 14 13 14 5 5 4 4 4 5 4 2 5 5 5 9 27 5 5 5 93 100 100 100 100 28 98 100 100 100 99 100 31 100 4 1 37 85 100 100 100
5 2 7 46 88 100 100 100 95 64 21 5 5 3 0 4 5 15 8 5 16 44 11 100 100 100 99 54 100 100 100 100 81 57 99 100 5 3 0 5 5 4 11
0 1 5 16 90 99 100 100 100 100 94 18 7 5 0 0 0 1 5 5 5 5 5 96 100 100 100 100 100 100 100 99 100 98 100 8 5 5 5 5 5 5 0
62 71 35 11 5 4 5 5 5 5 6 4 4 5 3 0 0 2 5 5 4 12 36 89 100 100 100 98 100 100 100 100 100 100 100 61 5 5 5 27 5 5 5
4 7 7 29 12 1 0 0 0 0 0 3 0 0 10 2 0 0 0 5 39 100 100 100 100 100 100 100 100 100 100 100 100 100 100 64 11 90 75 60 6 5 5
24 92 64 26 99 94 5 5 71 5 5 5 5 1 0 8 24 9 5 19 100 100 100 100 100 100 100 100 100 100 100 100 100 100 100 88 100 100 90 97 100 100 82
86 5 34 99 100 100 100 76 47 100 99 27 0 4 5 26 66 55 26 5 50 97 100 100 100 100 100 100 100 100 100 100 100 100 100 100 100 87 90 98 100 99 98
88 5 53 100 100 100 100 100 99 11 1 4 5 51 31 66 66 75 77 66 82 100 100 100 100 100 100 100 100 100 100 100 100 100 100 96 100 100 100 100 100 100 100
97 52 82 100 100 100 100 55 13 0 13 100 100 100 100 100 58 86 100 100 100 100 100 100 100 100 100 100 100 100 100 100 100 100 100 90 100 100 100 100 100 100 100
100 100 64 99 70 88 46 4 8 76 99 100 99 100 100 100 98 89 100 100 100 100 100 100 100 100 100 100 100 100 100 100 100 100 100 100 100 100 100 100 100 95 99
100 100 100 100 6 10 30 100 100 100 100 100 100 100 100 60 100 100 100 100 100 100 100 100 100 100 100 100 100 100 100 100 100 100 100 100 100 100 74 84 72 84 100
96 52 48 5 5 67 100 100 100 100 100 100 100 100 100 100 100 100 100 100 100 100 100 100 100 100 100 100 97 100 100 96 72 100 100 100 80 10 7 5 6 59 14
100 100 100 99 82 88 100 100 100 100 100 100 100 100 100 100 100 100 100 100 100 100 100 100 100 100 100 100 100 100 100 34 91 100 91 37 52 19 8 27 68 66 5
100 100 100 100 100 100 100 100 100 100 100 100 100 100 100 100 100 100 100 100 100 100 100 100 100 100 100 100 28 100 100 100 100 97 90 43 5 5 48 95 100 71 5
100 100 100 100 100 100 100 100 100 100 100 100 100 100 100 100 100 100 100 100 100 100 100 100 79 95 100 100 100 100 89 100 98 13 2 2 4 84 100 98 62 6 76
100 100 100 100 100 100 100 100 100 100 100 100 100 100 100 100 100 100 100 100 100 100 100 100 100 100 100 84 71 99 100 82 7 5 5 7 76 99 71 12 5 76 81
100 100 100 100 100 100 100 100 100 100 100 100 100 100 100 100 100 99 82 98 100 75 99 100 100 100 100 84 75 100 10 5 5 5 71 93 73 38 4 4 19 60 5
100 100 100 100 100 100 100 100 100 100 100 100 100 100 90 86 65 99 100 89 96 100 100 94 99 100 94 33 5 5 6 7 8 37 22 8 3 4 3 2 5 5 5
100 96 100 100 100 100 100 100 100 100 100 100 65 78 97 100 100 100 100 97 71 38 15 13 10 5 5 8 17 18 8 78 93 83 4 0 2 5 5 5 5 5 13
98 100 100 100 100 100 100 100 100 100 100 100 100 100 100 100 98 51 18 14 5 5 5 6 47 91 50 31 58 63 85 91 86 4 4 5 5 5 5 5 7 42 86

GFSMW_prec_cloud_045.txt.gz
Cloud_Cover
100 100 100 99 100 53 36 5 5 5 5 49 94 100 91 31 20 37 19 100 96 87 42 5 5 9 37 21 50 17 21 5 5 0 0 1 5 5 5 5 54 69 87
100 100 100 100 100 100 59 15 6 5 5 5 8 5 27 27 9 6 5 19 50 9 8 36 61 100 99 56 85 100 14 6 7 20 54 7 3 5 5 5 5 6 100
100 100 100 100 100 100 100 100 67 55 73 80 61 59 37 47 56 25 5 91 97 100 82 95 100 100 100 100 100 100 100 74 5 5 26 5 5 5 5 5 5 65 74
100 100 100 100 100 100 100 100 100 73 67 74 23 11 6 9 13 6 15 61 76 24 27 98 100 100 100 100 100 100 100 94 46 48 100 64 31 39 86 32 5 5 5
100 100 100 73 56 36 36 71 80 97 38 5 5 5 5 10 5 17 9 6 56 70 37 88 100 100 100 100 100 100 100 100 100 44 100 100 91 37 97 74 5 2 0
98 100 95 100 88 16 5 5 6 5 6 6 14 5 5 5 26 59 50 44 8 87 39 6 79 100 100 100 100 100 100 100 100 100 100 93 100 100 88 67 21 46 5
55 40 20 27 25 14 5 25 27 21 5 5 23 46 5 5 5 7 20 61 42 8 68 62 88 85 81 63 91 100 100 100 100 100 100 92 92 100 52 69 65 5 5
8 5 5 5 11 20 25 24 14 8 31 61 75 42 5 5 5 5 6 62 82 70 93 7 76 100 62 50 90 100 100 100 100 100 100 100 100 100 100 100 91 5 5
8 5 4 3 0 0 3 4 3 4 5 4 5 5 5 87 91 56 13 12 94 100 32 5 22 85 95 100 100 100 100 100 100 100 100 84 95 100 100 100 97 5 5
5 0 0 0 0 0 0 0 0 0 1 1 1 2 7 22 48 36 44 24 98 100 100 76 8 29 68 100 100 100 100 100 100 100 100 100 100 100 100 100 82 31 5
7 4 0 0 5 5 24 8 60 5 5 5 5 13 49 34 22 14 5 5 42 97 100 100 83 39 94 100 100 100 100 100 100 100 100 100 100 100 100 88 77 56 90
20 5 5 1 5 5 99 100 100 100 8 2 5 41 74 56 53 26 28 36 16 62 15 78 100 100 100 100 100 100 100 100 100 100 100 100 100 100 100 100 100 92 81
37 26 6 4 5 16 91 99 100 88 5 15 100 54 54 67 100 99 100 100 100 100 96 87 88 100 100 100 100 100 100 100 100 100 100 100 100 100 100 100 100 100 46
100 88 8 5 5 96 100 97 36 71 64 100 100 100 100 100 100 100 100 100 100 100 100 100 100 100 100 100 100 100 100 100 100 100 100 100 100 100 100 100 97 100 98
98 93 93 45 56 36 100 65 52 100 100 100 100 100 100 100 100 100 100 100 100 94 100 100 100 100 100 100 100 100 100 100 100 100 100 100 100 100 100 100 100 100 92
100 51 78 100 100 23 5 54 82 99 100 95 100 100 100 100 100 100 100 100 47 92 100 100 100 100 100 100 100 100 100 100 100 100 100 100 100 100 100 100 100 100 100
100 56 100 100 100 6 5 64 70 94 100 100 100 100 100 100 100 100 100 100 100 99 100 100 100 100 100 100 100 100 100 100 100 100 100 95 100 100 95 100 100 100 100
100 94 100 100 5 9 100 100 100 100 100 100 100 100 100 100 100 100 100 100 100 100 100 100 100 100 100 100 100 100 100 100 100 100 100 74 71 84 24 89 100 84 100
100 89 99 46 100 100 100 100 100 100 100 100 100 100 100 100 100 100 100 100 100 100 100 100 100 100 100 100 100 100 100 100 100 92 65 6 45 100 100 100 100 95 12
100 100 100 100 100 100 100 100 100 100 100 100 100 100 100 100 100 100 100 100 100 100 100 100 100 100 100 100 100 100 100 100 100 98 97 100 87 100 100 98 99 33 5
100 100 100 100 100 100 100 100 100 100 100 100 100 100 100 100 100 100 100 100 100 100 100 100 100 100 100 100 100 93 70 100 79 12 5 36 92 78 100 97 10 6 52
89 100 100 100 100 100 100 100 100 100 100 100 100 100 100 100 100 100 100 100 100 100 100 100 100 100 100 97 89 75 82 96 97 100 50 14 61 92 62 13 5 63 70
100 100 100 100 100 100 100 100 100 100 100 100 100 100 100 100 100 99 100 100 89 85 87 74 63 39 99 100 97 70 5 5 5 5 61 30 9 6 3 1 5 26 5
100 100 100 100 100 100 100 100 100 100 100 100 100 100 100 70 42 91 100 100 100 100 100 100 100 100 92 53 21 38 9 5 5 8 5 5 3 0 3 4 5 5 5
100 100 100 100 100 100 100 100 100 100 100 100 73 96 97 98 100 100 100 79 94 91 98 78 40 17 71 64 23 32 60 84 30 13 2 0 2 5 5 5 5 5 9
63 71 100 100 100 100 99 79 100 100 100 100 100 100 100 100 76 21 31 35 14 5 17 46 77 84 92 95 86 71 67 81 19 5 4 5 5 5 5 7 27 60 73

GFSMW_prec_cloud_048.txt.gz
Cloud_Cover
100 100 100 100 100 100 100 100 66 100 82 99 100 100 100 100 100 37 48 10 5 5 3 0 5 5 5 5 8 23 57 60 92 100 22 5 0 0 0 2 5 5 5
100 99 100 100 100 100 100 100 100 99 100 95 94 100 85 100 100 58 64 10 5 5 5 35 5 26 21 84 100 100 100 100 88 95 54 22 5 3 5 5 5 5 5
88 100 100 100 72 60 100 100 100 100 99 99 100 100 100 100 100 100 97 65 5 5 8 5 5 100 100 100 100 100 100 100 75 62 61 16 5 5 5 5 5 5 5
100 63 25 83 100 100 100 100 100 94 27 74 100 100 100 100 100 100 58 28 5 5 5 5 83 100 100 100 100 100 100 100 100 100 83 71 77 100 97 14 92 35 23
100 100 100 100 100 100 100 100 100 100 100 100 65 56 99 100 100 100 100 54 43 52 74 93 100 41 78 83 96 100 100 100 100 100 100 100 100 100 100 100 100 100 96
100 97 95 91 31 28 91 100 100 100 100 100 100 99 65 44 49 100 100 82 54 44 86 74 76 83 37 69 97 97 100 100 100 100 100 100 100 100 100 100 100 100 100
98 85 51 28 72 78 35 5 13 23 19 15 28 27 25 40 62 76 54 98 100 100 84 26 20 8 29 30 6 69 100 100 100 100 100 100 100 100 100 100 100 100 100
5 6 5 5 5 5 5 5 52 61 42 31 6 5 7 27 92 78 44 54 88 100 92 63 31 58 22 94 100 91 100 100 100 100 100 100 100 100 100 100 100 100 100
4 5 4 5 5 5 5 4 3 3 2 1 0 3 3 5 5 15 35 65 99 100 100 100 100 93 100 100 99 100 100 100 100 100 100 100 100 100 100 100 100 100 100
56 51 33 6 21 27 18 4 5 3 2 0 0 0 0 0 0 1 21 19 14 32 62 92 100 100 99 100 100 100 100 100 100 100 100 100 100 100 100 100 100 100 100
16 27 54 42 25 4 1 0 0 2 5 5 6 4 2 10 20 34 44 42 42 34 49 55 96 100 100 100 100 100 100 100 100 100 100 100 100 100 100 100 100 100 100
19 13 5 0 0 0 0 0 0 5 78 82 29 38 100 100 100 100 84 74 85 95 92 100 100 100 100 100 100 100 100 100 100 100 100 100 100 100 100 100 100 100 100
70 43 0 1 4 4 5 13 8 13 35 100 100 79 100 100 100 100 100 100 100 100 100 100 100 100 100 100 100 100 100 100 100 100 100 100 100 100 100 100 100 100 100
38 59 4 5 5 5 83 100 96 83 85 100 99 100 100 100 100 100 100 100 100 100 100 100 100 100 100 100 100 100 100 100 100 100 100 100 100 100 100 100 100 100 100
17 5 5 37 100 100 100 100 18 5 59 83 81 93 100 100 100 100 100 100 100 100 100 100 100 100 100 100 100 100 100 100 100 100 100 100 100 100 100 100 100 100 100
86 84 13 5 94 93 6 5 5 13 6 98 100 100 100 100 100 100 100 100 100 100 100 100 100 100 100 100 100 100 100 100 100 100 100 100 100 100 100 100 100 100 100
100 95 23 38 80 64 5 5 95 100 100 94 100 100 100 100 100 100 100 100 100 100 100 100 100 100 100 100 100 100 100 100 100 100 100 100 100 100 100 100 100 100 100
100 98 80 100 63 14 85 100 99 100 100 100 100 100 100 100 100 100 100 100 100 100 100 100 100 100 100 100 100 100 100 100 100 100 100 100 100 100 100 96 100 100 78
100 100 98 78 51 99 100 100 100 100 100 100 100 100 100 100 100 100 100 100 100 100 100 100 100 100 100 100 100 100 100 100 100 100 99 98 100 100 100 100 100 98 38
100 100 100 100 100 100 100 100 100 100 100 100 100 100 100 100 100 100 100 100 100 100 100 100 100 100 100 100 100 100 100 100 100 99 98 73 98 100 100 100 99 99 93
100 100 100 100 100 100 100 100 100 100 100 100 100 100 100 100 100 100 100 100 100 100 100 100 100 100 100 100 100 100 100 96 87 79 80 79 91 100 100 100 99 66 52
86 76 99 100 100 100 94 100 100 100 100 100 100 100 100 100 100 100 100 100 100 100 100 99 85 100 90 99 84 69 99 100 100 100 71 49 82 98 92 13 5 80 71
98 97 65 100 100 75 99 100 100 100 100 100 100 100 100 76 100 100 100 100 100 100 100 100 100 99 100 100 100 100 56 13 14 64 100 100 100 44 3 5 52 25 5
100 93 100 100 100 100 100 100 100 100 100 95 46 41 94 97 94 91 28 76 100 100 100 100 99 100 100 99 94 69 100 100 100 100 88 10 3 3 4 2 5 5 5
16 33 96 100 100 100 100 100 100 74 71 100 41 49 81 100 95 80 60 41 46 84 82 55 26 40 66 81 83 98 98 96 37 11 5 2 2 5 5 5 5 5 5
100 33 100 100 100 100 99 46 29 53 64 18 49 78 67 28 28 14 6 57 79 67 45 55 49 18 13 6 60 70 77 33 21 2 5 5 5 5 5 5 27 36 34

GFSMW_prec_cloud_051.txt.gz
Cloud_Cover
100 100 100 100 100 100 100 100 100 100 100 100 100 100 100 100 100 100 61 74 66 87 86 64 20 13 26 5 5 5 10 5 5 5 5 9 24 5 5 5 2 0 5
87 91 42 54 100 100 100 100 100 100 100 62 58 100 100 100 100 100 100 92 71 59 31 10 54 9 5 8 20 82 12 18 96 100 100 100 100 100 5 5 5 5 5
5 5 5 52 89 48 86 100 100 100 100 100 100 100 100 100 100 100 100 100 94 100 99 69 94 100 66 51 6 45 100 51 65 100 100 100 100 84 24 81 95 100 100
67 5 5 5 45 44 94 99 96 100 100 100 100 100 100 100 100 100 100 100 100 100 100 71 98 100 100 100 94 96 59 78 90 100 100 100 100 100 100 100 100 100 98
6 59 100 100 58 89 94 95 100 100 100 100 100 100 100 100 100 100 100 100 100 100 100 100 100 100 97 89 98 100 100 100 100 100 100 100 100 100 100 100 100 100 100
100 96 100 100 45 5 5 14 44 85 100 100 100 100 100 100 100 100 100 100 100 100 100 100 100 100 100 100 100 100 100 100 98 100 94 97 95 100 100 100 100 100 100
100 100 98 63 19 18 6 5 5 5 8 19 83 85 100 100 100 100 100 100 100 100 100 100 99 81 90 100 100 100 100 100 100 100 100 100 100 100 100 100 100 100 100
100 100 100 100 37 7 5 5 5 5 5 6 5 5 5 5 11 49 86 99 100 100 100 100 100 100 100 98 100 100 100 100 100 100 100 100 100 100 100 100 100 100 100
79 71 54 21 5 5 5 5 5 5 4 1 4 3 2 4 4 1 3 4 30 59 98 98 100 100 100 100 97 100 100 100 100 100 100 100 100 100 100 100 100 100 100
5 5 5 5 5 5 5 7 5 5 4 1 1 0 0 0 0 3 3 2 25 49 52 80 100 100 100 100 100 100 100 100 100 100 100 100 100 100 100 100 100 100 100
5 5 5 2 5 5 5 5 5 3 1 0 0 0 64 94 98 78 50 45 48 58 76 97 100 100 100 100 100 100 100 100 100 100 100 100 100 100 100 100 100 100 100
5 3 3 0 0 3 0 0 0 0 1 2 1 3 43 75 100 100 100 100 100 100 100 100 100 100 100 100 100 100 100 100 100 100 100 100 100 100 100 100 100 100 100
100 45 32 5 5 2 0 5 5 5 5 5 5 8 55 96 100 100 100 100 100 100 100 100 100 100 100 100 100 100 100 100 100 100 100 100 100 100 100 100 100 100 100
100 87 5 5 17 52 13 11 38 39 6 5 5 4 4 28 100 100 100 100 100 100 100 90 100 100 100 100 100 100 100 100 100 100 100 100 100 100 100 100 100 100 100
100 100 17 5 5 100 54 86 5 5 1 4 0 60 85 100 100 100 100 100 100 100 100 100 100 100 100 100 100 100 100 100 100 100 100 100 100 100 100 100 100 100 100
74 100 65 5 5 58 5 5 5 5 5 93 91 100 100 100 100 100 100 100 100 100 100 100 100 100 100 100 100 100 100 100 100 100 100 100 100 100 100 100 100 100 100
66 94 82 15 8 32 5 5 40 98 100 100 98 99 100 100 100 100 100 100 100 100 100 100 100 100 100 100 100 100 100 100 100 100 100 100 100 100 100 100 100 100 100
21 31 92 12 83 5 35 84 100 94 55 100 98 96 100 100 100 100 100 100 100 100 100 100 100 100 100 100 100 100 100 100 100 100 100 100 100 100 100 100 100 100 100
31 94 67 100 94 72 99 100 100 100 78 73 100 100 100 100 100 100 100 100 100 100 100 100 100 100 100 100 100 100 100 100 100 100 100 100 100 100 100 100 100 100 58
8 45 100 100 100 100 100 100 100 100 100 100 100 100 100 100 100 100 100 100 100 100 100 100 100 100 100 100 100 100 100 100 100 100 100 100 100 100 100 100 100 99 86
6 11 49 99 100 92 73 100 100 100 100 100 100 100 100 100 100 100 100 100 100 100 100 100 100 100 100 100 100 100 100 100 100 100 100 100 100 100 100 93 64 86 37
5 32 89 72 85 35 98 100 100 100 100 100 100 100 100 100 100 100 100 100 100 100 100 100 100 100 100 100 100 100 100 100 100 100 100 100 100 100 98 71 37 71 50
45 5 5 79 89 97 100 100 100 100 100 100 100 100 97 74 100 100 100 100 75 95 100 100 100 100 100 100 100 100 100 100 100 100 100 100 100 98 10 5 66 23 5
64 62 71 100 79 100 100 100 100 100 100 75 78 84 100 99 100 93 87 73 57 67 55 37 37 14 8 37 100 100 100 100 100 99 98 67 16 5 5 5 5 5 8
100 55 96 97 100 100 100 100 100 81 76 60 77 42 54 16 11 8 5 5 5 5 5 5 13 10 11 40 67 70 69 57 48 41 35 10 2 4 5 5 5 5 13
100 100 64 100 98 100 100 99 94 99 100 100 98 46 6 5 6 5 5 5 5 5 5 29 45 26 28 35 70 68 81 42 55 5 5 4 5 5 5 5 7 20 67

GFSMW_prec_cloud_054.txt.gz
Cloud_Cover
100 94 100 100 100 100 99 100 47 100 41 5 99 100 100 89 100 90 95 100 99 100 100 100 77 7 83 80 100 100 86 12 52 63 58 27 9 31 100 84 100 100 96
100 100 100 100 100 100 100 100 100 100 33 5 5 23 72 96 100 100 100 100 100 95 56 44 78 83 29 26 98 52 80 91 100 78 29 43 86 89 100 100 100 100 45
100 55 84 100 99 99 100 100 98 75 74 100 85 15 6 16 97 100 100 100 97 86 91 81 64 100 99 95 53 99 100 100 100 100 85 98 99 100 100 100 100 100 100
96 94 65 77 100 100 100 86 82 100 96 83 99 100 100 92 92 46 72 98 100 100 100 100 94 100 100 99 100 100 100 100 100 100 100 98 100 100 100 100 100 100 100
100 93 71 81 64 98 33 38 46 18 73 86 100 100 100 100 100 100 100 100 99 100 100 100 100 100 100 100 100 100 100 100 100 100 100 100 100 100 100 100 100 100 100
100 100 100 58 41 19 5 34 6 43 63 71 100 100 100 100 100 100 100 100 100 100 96 100 100 100 100 100 100 100 100 100 100 100 100 100 100 100 100 100 100 100 100
95 98 59 5 5 5 13 56 20 11 52 100 100 100 100 100 98 78 88 90 97 100 100 100 100 100 100 100 100 100 100 100 100 100 100 100 100 100 100 100 100 100 100
52 22 40 75 68 65 23 5 37 48 91 84 47 53 50 19 16 72 97 99 97 99 100 100 100 100 100 100 100 100 100 100 100 100 100 100 100 100 100 100 100 100 100
93 100 90 100 100 100 99 93 45 56 41 74 48 28 6 5 5 5 5 5 5 10 5 60 100 100 100 100 100 100 100 100 100 100 100 100 100 100 100 100 100 100 100
100 100 93 100 71 24 10 5 5 5 5 5 5 3 3 2 2 0 0 0 4 3 5 36 100 100 100 100 100 100 100 100 100 100 100 100 100 100 100 100 100 100 100
100 100 58 6 5 5 5 5 4 5 4 0 0 0 0 0 0 22 49 46 28 14 100 100 100 100 100 100 100 100 100 100 100 100 100 100 100 100 100 100 100 100 100
100 96 42 68 68 22 6 5 0 0 0 0 0 0 0 0 1 23 56 91 91 100 100 100 100 100 100 100 100 100 100 100 100 100 100 100 100 100 100 100 100 100 100
100 100 100 99 88 15 4 4 5 4 5 0 2 0 0 3 27 35 46 87 55 98 100 100 100 100 100 100 100 100 100 100 100 100 100 100 100 100 100 100 100 100 100
52 12 5 9 14 5 5 5 1 5 4 0 0 0 7 34 44 49 78 100 100 99 100 100 100 100 100 100 100 100 100 100 100 100 100 100 100 100 100 100 100 100 100
42 86 38 45 27 6 10 5 5 5 4 2 4 4 36 82 96 96 100 97 100 100 100 100 100 100 100 100 100 100 100 100 100 100 100 100 100 100 100 100 100 100 100
95 99 44 5 5 5 4 5 5 5 5 62 7 7 71 99 100 100 100 100 100 100 100 100 100 100 100 100 100 100 100 100 100 100 100 100 100 100 100 100 100 100 100
5 5 5 5 5 5 10 18 13 59 46 66 23 5 55 61 100 100 100 100 100 100 100 100 100 100 100 100 100 100 100 100 100 100 100 100 100 100 100 100 100 100 100
2 5 5 26 6 5 5 10 50 100 100 100 100 77 61 100 100 100 100 100 100 100 100 100 100 100 100 100 100 100 100 100 100 100 100 100 100 100 100 100 100 100 100
5 5 29 100 100 24 26 45 86 100 100 100 100 100 100 100 100 100 100 100 100 100 100 100 100 100 100 100 100 100 100 100 100 100 100 100 100 100 100 100 100 100 100
5 3 5 43 98 50 47 52 88 100 100 100 100 100 100 100 100 100 100 100 100 100 100 100 100 100 100 100 100 100 100 100 100 100 100 100 100 100 100 100 100 100 100
5 0 3 5 99 28 61 77 100 100 100 100 100 100 100 100 100 100 100 100 100 99 100 100 100 100 100 100 100 100 100 100 100 100 100 100 100 100 100 100 100 100 100
10 5 33 35 42 75 95 100 100 100 100 100 100 100 100 100 95 63 40 41 66 70 81 80 88 100 100 100 100 100 100 100 100 100 100 100 100 100 100 100 100 75 54
88 12 19 98 100 100 100 100 100 100 100 100 100 99 70 16 5 5 6 5 5 5 5 7 8 16 6 85 100 100 100 100 100 100 100 100 100 100 86 17 6 6 5
100 80 79 92 100 100 100 100 100 100 97 65 11 6 31 57 25 5 5 5 5 5 5 5 5 5 5 40 68 77 80 70 62 67 64 24 5 5 4 4 4 5 5
100 100 96 81 96 100 100 100 100 93 27 45 63 99 100 56 5 5 12 5 5 5 5 5 5 5 29 37 44 31 20 11 10 7 5 5 5 1 5 5 5 5 6
100 100 100 100 71 85 59 69 100 100 100 100 100 100 100 59 48 39 15 5 5 5 5 5 8 9 6 19 13 10 66 8 5 5 4 0 0 1 5 5 6 73 90

GFSMW_prec_cloud_057.txt.gz
Cloud_Cover
100 100 100 100 100 97 100 52 9 99 100 100 38 100 100 100 100 45 5 29 40 58 30 5 5 8 29 14 32 56 23 66 76 96 18 72 100 100 100 100 100 100 100
100 100 100 100 100 100 100 100 86 8 49 99 100 86 48 100 100 100 88 1 8 5 22 18 66 34 100 47 64 41 39 95 46 46 53 91 40 100 98 100 100 100 100
100 100 100 100 100 100 96 100 100 100 100 95 19 14 18 5 12 24 88 100 98 68 87 52 61 31 17 92 90 100 100 79 75 100 82 100 100 100 100 100 100 100 100
100 100 100 100 100 100 100 100 100 100 50 14 31 5 5 5 5 6 48 44 25 100 93 98 100 100 100 100 100 100 100 100 100 100 100 94 100 100 100 100 100 100 100
100 100 97 98 100 100 100 100 100 100 100 98 62 68 12 9 84 100 100 100 98 41 99 100 100 100 100 100 100 100 100 100 100 100 100 100 100 100 100 100 100 100 100
100 100 100 100 100 100 100 100 100 100 100 99 27 37 8 82 100 100 100 100 94 100 100 100 100 100 100 100 100 100 100 100 100 100 100 100 100 100 100 100 100 100 100
100 100 86 80 95 100 100 100 100 100 68 45 19 84 93 95 99 47 57 98 89 100 100 100 100 100 100 100 100 100 100 100 100 100 100 100 100 100 100 100 100 100 100
100 100 100 100 100 100 98 98 82 8 10 74 98 67 44 17 9 6 57 79 100 100 100 100 100 100 100 100 100 100 100 100 100 100 100 100 100 100 100 100 100 100 100
99 100 100 100 99 98 86 49 20 71 60 69 26 9 30 5 5 22 4 2 1 1 0 58 47 91 100 100 100 100 100 100 100 100 100 100 100 100 100 100 100 100 100
39 54 79 81 92 83 91 84 98 100 85 5 8 5 5 5 5 5 3 4 4 0 0 0 5 66 100 100 100 100 100 100 100 100 100 100 100 100 100 100 100 100 100
84 100 100 100 100 100 98 100 93 12 8 6 22 18 5 5 1 4 2 0 0 1 6 12 10 56 100 100 100 100 100 100 100 100 100 100 100 100 100 100 100 100 100
100 100 100 100 100 100 100 35 39 5 5 16 6 5 4 5 5 0 0 16 39 66 100 88 92 100 100 100 100 100 100 100 100 100 100 100 100 100 100 100 100 100 100
100 100 100 100 100 100 100 100 44 85 66 8 5 5 4 1 0 0 0 3 45 91 100 100 100 100 100 100 100 100 100 100 100 100 100 100 100 100 100 100 100 100 100
100 100 100 100 66 99 100 76 63 63 13 29 5 0 2 26 51 39 55 100 100 100 100 100 100 100 100 100 100 100 93 100 100 100 100 100 100 100 100 100 100 100 100
100 93 99 92 98 35 80 77 16 12 2 2 4 4 26 60 74 57 100 100 100 100 100 100 100 100 100 100 100 100 100 100 100 100 100 100 100 100 100 99 100 100 100
55 25 18 35 19 8 5 5 5 5 5 5 5 7 5 46 90 89 100 100 100 100 100 100 100 100 100 100 100 100 100 100 100 100 100 100 100 100 100 100 100 100 100
100 76 5 5 5 5 4 11 38 29 64 65 51 35 43 85 98 100 100 100 100 100 100 100 100 100 100 100 100 100 100 100 100 100 100 100 100 100 100 100 100 100 100
38 5 5 5 5 5 5 12 19 65 93 100 90 98 82 100 100 100 100 100 100 100 100 100 100 100 100 100 100 100 100 100 100 100 100 100 100 100 100 100 100 100 100
10 5 5 5 46 14 5 11 29 99 100 100 100 100 100 100 100 100 100 100 100 100 100 100 100 100 100 93 100 100 100 100 100 100 100 100 100 100 100 100 100 100 100
5 5 5 5 5 5 26 34 98 100 100 100 100 100 100 100 100 100 100 100 100 100 100 100 68 45 44 72 100 100 100 100 100 100 100 100 100 100 100 100 100 100 100
100 80 27 5 5 25 78 97 100 100 100 100 100 100 100 100 100 100 100 100 99 44 5 5 5 22 5 11 67 100 100 100 100 100 100 100 100 100 100 100 100 100 100
100 63 62 5 35 79 100 100 100 100 100 100 100 100 100 100 75 38 15 5 3 4 0 5 5 5 4 5 5 5 5 5 9 20 26 39 45 49 51 50 27 9 15
93 68 8 58 100 100 100 100 100 100 100 100 100 64 17 5 5 5 5 5 5 4 5 5 5 5 5 5 5 5 5 5 5 5 5 8 6 5 5 5 5 5 5
61 64 58 86 100 100 100 100 100 100 79 100 99 40 5 7 5 7 7 7 5 5 5 5 5 5 5 5 5 5 5 5 5 5 5 5 5 5 5 2 1 5 5
100 100 100 62 91 98 96 100 90 51 10 100 100 100 88 95 90 87 77 54 5 5 5 5 5 5 5 5 5 5 5 5 5 5 5 5 5 0 0 4 5 5 5
95 90 100 98 98 100 100 100 100 5 47 100 100 100 100 100 100 100 100 52 5 5 5 5 5 5 5 11 24 5 6 50 5 5 5 5 0 0 4 5 5 5 68

GFSMW_prec_cloud_060.txt.gz
Cloud_Cover
100 100 100 100 100 100 82 67 39 5 81 91 100 100 100 99 50 62 26 11 37 34 5 5 5 0 0 0 0 5 5 53 51 5 7 8 97 100 100 100 100 100 100
100 100 100 100 100 83 93 98 72 52 82 100 100 98 93 70 5 9 89 100 89 57 11 8 2 0 0 2 11 5 40 99 100 53 98 64 79 100 100 100 100 100 100
100 100 100 100 100 100 100 100 100 100 100 100 87 93 67 100 99 77 50 5 18 5 15 74 99 37 10 18 21 47 56 96 95 100 96 100 96 100 100 100 100 100 100
100 100 100 100 100 100 100 100 100 100 100 100 100 68 5 11 89 40 7 5 5 2 0 1 3 87 100 100 99 85 80 100 100 100 100 99 70 100 100 100 100 100 100
87 100 100 100 100 100 100 100 100 100 100 100 100 46 98 5 5 9 12 30 17 16 64 32 8 36 100 100 100 100 100 100 100 100 100 100 100 100 100 100 100 100 100
100 99 100 100 100 100 100 100 100 100 100 100 100 100 100 51 89 24 75 12 10 37 90 92 100 100 100 100 100 100 100 100 100 100 100 100 100 100 100 100 100 100 100
100 66 87 99 100 100 100 100 100 100 100 100 99 94 94 100 86 100 11 5 36 96 100 100 100 85 56 100 100 100 100 100 100 100 100 100 100 100 100 100 100 100 100
100 100 100 99 98 100 100 100 100 80 37 89 99 100 100 95 61 6 23 19 17 90 100 100 81 51 19 100 100 100 100 100 100 95 100 100 100 100 100 100 100 100 100
99 100 100 98 60 71 84 100 100 100 100 100 94 75 100 62 62 42 45 21 61 28 30 36 5 8 13 100 100 100 100 100 100 100 100 100 100 100 100 100 100 100 100
86 87 68 40 39 64 87 100 100 99 91 99 95 99 98 78 51 44 50 42 6 5 5 8 5 4 3 41 100 100 83 100 100 100 100 100 100 100 100 100 100 100 100
92 95 100 100 100 93 93 100 90 93 100 100 96 93 67 53 62 57 32 87 10 5 5 19 4 0 0 24 92 100 100 100 100 100 100 100 100 100 100 100 100 100 100
89 81 60 77 85 100 100 100 100 97 98 94 100 88 56 38 38 28 88 5 5 5 1 56 97 100 100 100 100 100 100 100 100 100 100 100 100 100 100 100 100 100 100
100 100 100 100 100 99 94 95 99 100 84 24 42 76 93 77 98 64 31 3 0 29 79 97 100 100 100 100 100 100 100 100 100 100 100 100 100 100 100 100 100 100 100
100 100 100 100 100 99 100 87 60 85 100 85 73 99 100 79 15 5 3 92 99 100 100 100 100 100 100 100 100 100 100 100 100 100 100 100 100 100 100 100 100 100 100
100 100 100 100 100 100 99 100 100 100 100 99 76 42 12 53 97 98 34 81 100 100 100 100 100 97 100 96 100 100 100 100 100 100 96 100 100 100 100 100 100 100 100
100 100 100 100 100 100 100 100 100 100 99 48 8 5 18 100 100 100 100 100 84 100 100 100 100 100 100 100 100 94 100 100 100 100 100 100 100 100 100 100 100 100 100
100 100 100 100 100 100 100 99 84 12 27 90 99 56 100 100 100 100 100 100 100 100 100 100 100 100 100 100 100 58 96 100 100 100 100 100 100 100 100 100 100 100 100
100 100 100 100 100 100 100 69 68 99 100 99 100 100 100 100 100 100 100 100 100 100 100 100 100 100 100 100 100 81 79 99 100 100 100 100 100 100 100 100 100 100 100
100 100 100 100 100 76 6 5 9 100 100 100 100 100 100 100 100 100 100 100 100 100 100 100 100 52 56 80 49 12 31 100 100 100 100 100 100 100 100 100 87 100 100
100 100 97 48 5 5 5 10 100 100 100 100 100 100 100 100 100 100 100 100 100 98 100 30 6 5 5 5 2 0 0 0 1 12 39 46 79 96 98 98 98 100 98
100 82 14 5 7 5 14 82 100 100 100 100 100 100 100 100 100 100 100 90 6 3 5 5 5 5 4 5 5 5 0 0 0 0 2 5 12 43 7 5 5 5 5
68 64 73 79 45 87 100 100 100 100 100 100 99 100 100 100 55 31 6 5 5 0 1 1 2 0 2 5 5 5 5 5 5 5 5 5 5 5 5 5 5 5 5
100 95 100 100 100 100 100 100 100 100 100 100 86 28 92 100 100 26 5 5 5 5 5 5 5 2 5 5 5 5 5 5 5 5 5 5 5 5 7 21 5 5 5
100 100 100 100 100 100 100 100 100 100 100 100 19 5 58 100 100 70 9 22 36 55 46 5 5 5 5 5 5 5 5 5 5 32 58 23 5 5 5 5 5 5 5
100 100 100 100 100 100 100 100 100 98 8 5 5 5 92 100 100 100 98 100 100 100 84 42 5 5 5 5 5 5 23 5 5 7 10 7 12 36 5 5 5 5 5
100 100 100 95 98 100 100 100 77 21 5 5 5 82 100 100 100 100 100 100 100 100 100 100 58 5 5 10 5 5 6 42 14 51 48 53 8 13 6 5 5 5 10

GFSMW_prec_cloud_063.txt.gz
Cloud_Cover
100 91 97 100 96 53 6 21 100 66 45 5 5 45 100 12 10 64 100 100 60 100 100 100 100 100 95 5 12 5 5 5 2 8 66 12 78 94 100 98 50 100 100
100 100 100 100 100 100 68 61 67 100 100 100 100 100 61 80 100 100 90 100 100 100 100 100 100 100 57 5 5 4 3 3 24 46 46 90 7 88 93 91 100 97 100
100 100 100 100 100 100 100 100 99 80 77 99 100 100 100 100 100 100 96 22 8 25 56 100 60 28 12 5 14 4 21 5 12 89 39 50 13 100 100 100 100 100 100
100 100 100 100 100 100 100 100 100 100 100 100 100 100 100 100 100 100 92 66 22 42 20 5 10 7 7 5 0 74 100 91 62 83 100 100 100 100 100 100 100 100 100
100 100 100 100 100 100 100 100 100 100 100 100 100 100 99 16 6 17 82 85 99 44 5 5 5 2 21 5 5 44 45 100 100 93 100 100 100 100 100 100 100 100 100
86 100 100 100 100 100 100 100 100 100 100 100 100 92 92 86 79 92 30 29 41 58 43 32 38 6 22 52 69 46 100 100 100 100 100 100 100 97 100 100 100 100 100
76 49 83 100 100 100 100 100 100 100 100 100 100 100 100 100 98 97 95 96 72 91 19 54 84 100 98 86 31 81 100 100 100 38 83 100 100 61 86 100 100 100 100
100 100 100 100 100 100 100 100 100 100 100 100 100 100 100 100 100 100 100 97 100 93 26 42 52 100 97 66 9 75 100 100 100 100 84 89 100 100 100 100 100 100 100
100 100 100 100 100 100 100 70 56 57 71 100 100 79 68 97 100 99 100 99 68 82 88 75 73 68 41 84 96 8 100 100 48 26 61 75 100 100 100 100 100 100 100
100 100 100 100 100 100 100 100 100 100 100 97 90 76 100 94 99 98 100 100 91 91 97 62 61 11 13 5 5 4 44 22 69 88 100 100 100 100 100 100 100 100 100
100 100 100 100 100 100 100 100 100 100 100 100 100 100 100 100 100 100 100 100 100 100 100 98 37 17 5 3 0 6 7 56 92 99 100 100 100 100 100 100 100 100 100
80 84 81 100 100 100 100 100 100 100 100 100 100 100 100 100 100 100 100 100 100 100 82 59 42 8 1 49 53 88 99 100 100 100 100 100 100 100 100 100 100 100 100
71 25 23 39 42 43 17 66 100 100 98 97 95 100 100 100 100 100 100 100 100 86 90 68 45 65 71 89 100 100 100 100 100 100 100 100 100 100 100 100 100 100 100
100 100 98 99 93 85 84 77 58 18 51 76 97 89 100 100 100 100 100 100 100 64 63 100 100 100 92 60 30 74 100 100 100 100 100 100 100 100 100 100 100 100 100
100 100 100 100 87 100 89 98 98 17 15 61 100 100 100 100 100 100 100 98 52 98 100 100 100 77 82 43 29 52 91 100 100 100 100 100 99 100 100 100 100 100 100
100 100 100 97 83 33 57 100 40 100 100 100 100 100 100 100 100 100 99 100 100 100 100 100 100 100 100 100 68 17 50 98 100 100 100 100 100 100 100 100 100 100 100
100 100 100 100 100 100 100 100 100 100 100 100 100 100 100 100 100 100 100 100 100 100 100 100 100 100 100 98 98 75 100 100 100 100 96 95 100 93 96 100 100 100 100
100 100 100 100 100 100 100 100 100 100 100 100 100 100 100 100 100 100 100 100 100 100 100 100 100 100 100 100 96 48 27 34 73 48 19 10 7 48 96 97 100 100 98
100 100 100 100 100 100 100 100 100 100 100 100 100 100 100 100 100 100 100 100 100 100 100 22 13 5 7 5 5 5 5 6 5 1 0 0 2 6 46 6 11 14 14
100 100 100 100 100 100 100 100 100 100 100 100 100 100 100 100 100 100 100 100 100 10 27 29 5 4 5 5 5 0 0 3 0 0 0 5 9 62 74 5 5 5 12
100 100 100 100 100 100 100 100 100 100 100 100 100 100 100 100 100 100 78 11 6 5 5 5 5 5 1 5 5 5 2 0 0 0 4 5 6 5 5 5 5 5 7
100 100 100 100 100 100 77 58 100 100 100 100 100 100 100 100 100 62 100 100 100 70 5 5 5 5 5 5 5 5 5 5 1 4 5 5 5 5 5 36 66 65 50
100 100 100 100 94 96 87 100 100 100 100 81 100 100 96 11 5 95 100 100 100 100 70 5 9 41 14 13 9 5 5 5 5 5 5 5 5 5 5 5 11 60 75
100 100 100 100 100 100 100 100 100 100 100 100 54 5 0 2 5 98 100 100 100 100 100 87 56 24 40 50 51 25 35 8 5 5 5 8 56 13 5 5 5 5 5
100 100 100 100 100 100 100 100 100 100 100 91 5 5 5 5 10 90 100 100 100 100 90 100 100 100 100 100 92 81 40 32 7 5 5 5 5 5 5 5 5 5 5
100 100 100 100 100 100 100 100 100 100 40 5 5 5 5 5 75 100 91 100 100 100 100 100 98 100 100 93 98 100 73 79 91 53 14 7 5 5 5 5 5 5 5

GFSMW_prec_cloud_066.txt.gz
Cloud_Cover
100 58 99 100 41 30 96 100 5 5 5 34 86 84 9 5 52 36 37 33 95 90 100 99 62 100 100 100 100 100 100 100 14 98 100 84 9 5 5 5 5 100 100
100 100 100 100 100 97 78 98 97 64 7 5 5 78 100 99 39 23 50 72 100 100 100 94 100 100 100 100 98 75 57 16 12 61 78 100 87 9 16 41 35 100 100
100 100 100 100 100 100 100 94 94 100 100 62 22 5 12 22 59 68 57 96 100 100 100 100 100 100 99 21 39 42 67 8 27 6 76 100 84 100 100 100 100 100 100
43 100 100 100 100 100 100 100 100 100 100 100 100 100 100 100 100 100 100 96 84 76 100 97 94 67 73 57 40 6 6 9 9 24 52 68 64 96 85 99 72 100 100
100 100 100 100 100 100 100 100 100 100 100 87 72 100 98 100 100 100 100 100 100 100 100 75 5 22 28 14 32 6 23 7 41 45 13 21 96 100 100 100 76 31 81
100 100 100 100 100 100 100 100 100 100 100 100 91 66 100 100 96 54 78 100 100 97 100 98 68 36 36 13 15 14 16 15 33 44 82 100 100 100 100 100 100 100 65
78 99 100 100 100 100 100 100 100 100 100 76 55 55 72 24 60 80 47 5 5 50 55 24 50 33 9 5 8 16 5 28 52 94 36 35 89 94 100 100 100 100 98
91 59 85 100 100 100 100 100 100 100 100 100 100 100 100 97 84 42 65 58 47 9 19 64 78 70 52 98 99 57 22 53 5 74 22 22 42 67 98 82 100 100 100
100 96 100 100 100 98 91 99 100 100 100 100 100 100 98 98 94 64 65 67 35 62 63 32 40 61 95 97 76 100 99 10 9 37 100 69 98 100 100 100 100 100 100
100 100 92 100 100 100 100 95 75 58 70 74 90 86 99 87 100 99 100 100 92 83 100 41 86 100 88 70 54 62 52 27 96 100 100 100 95 100 100 100 100 100 100
100 98 96 100 100 100 100 100 100 100 100 100 100 100 100 100 100 100 100 100 100 100 100 100 100 98 97 100 56 40 5 93 100 100 97 100 100 100 100 100 100 100 100
100 82 44 76 100 100 100 100 100 100 100 100 100 100 100 100 100 100 100 100 100 100 100 100 98 100 100 83 100 17 3 21 95 100 100 99 99 100 100 100 100 100 100
100 88 73 76 100 100 97 98 100 100 100 100 100 100 100 100 100 100 100 97 82 100 100 100 100 100 100 66 5 0 23 94 100 100 90 100 100 100 90 98 100 100 100
100 100 100 100 98 99 93 98 100 100 100 100 100 100 100 100 100 70 40 97 100 100 100 100 100 100 49 20 15 20 26 100 100 86 91 100 100 100 100 74 100 100 100
100 100 100 100 100 100 76 89 100 98 100 98 95 100 100 100 100 100 93 100 100 100 72 95 100 100 98 77 26 56 84 98 100 100 100 100 100 98 96 84 98 100 100
100 100 100 100 100 100 72 84 63 100 100 100 100 87 100 100 100 100 100 100 100 100 100 100 100 100 100 100 89 58 100 100 100 100 100 100 100 100 100 100 100 86 98
100 100 100 100 100 100 100 100 100 100 99 58 57 97 100 100 100 100 100 100 100 100 100 100 100 100 100 98 97 92 100 100 100 64 27 20 36 81 32 18 10 24 35
100 100 100 100 100 100 100 100 95 100 99 100 100 100 100 100 100 100 100 100 100 100 100 100 100 54 25 28 9 5 10 72 69 27 12 6 5 5 9 5 5 5 3
100 100 100 100 100 100 100 100 100 100 100 100 100 100 100 100 100 100 100 100 100 65 28 26 2 1 5 4 5 3 5 5 1 2 4 2 5 32 35 5 5 5 5
100 100 100 100 100 100 100 100 99 100 100 100 100 100 100 100 100 100 100 88 5 29 40 5 5 5 4 5 5 0 1 4 5 5 5 7 9 9 8 5 5 5 5
100 100 100 100 100 100 100 100 100 100 100 100 100 100 100 100 93 100 73 30 30 27 100 54 29 9 24 5 52 5 5 13 62 40 5 6 8 5 5 5 5 5 5
100 99 100 100 100 100 100 100 100 100 100 100 100 100 100 100 100 27 11 5 5 5 52 100 88 99 100 96 41 35 26 52 61 44 13 6 5 5 5 31 42 43 22
100 100 100 100 100 100 100 100 100 100 100 100 100 100 100 74 82 15 5 5 5 5 8 87 100 100 100 100 100 100 100 100 100 100 87 49 43 48 62 80 49 7 5
100 100 100 100 100 100 100 100 100 100 100 97 100 100 98 25 5 1 2 5 5 5 5 19 71 88 100 100 100 100 100 100 97 88 75 52 28 5 36 15 32 9 5
99 100 100 100 100 100 100 100 100 100 100 100 100 100 52 45 4 0 5 5 6 5 14 59 87 94 88 99 100 100 100 93 64 46 41 34 94 98 47 69 32 6 5
96 100 100 100 100 100 100 100 100 100 100 100 100 78 83 9 5 5 5 5 6 65 88 87 91 82 8 15 60 80 63 26 15 56 73 52 50 32 76 64 41 40 7

GFSMW_prec_cloud_069.txt.gz
Cloud_Cover
100 100 100 100 61 11 16 7 28 39 45 26 15 5 5 60 53 13 5 5 13 97 92 21 30 54 100 100 100 100 100 100 66 50 7 5 83 100 99 66 8 5 44
100 100 100 100 100 100 96 100 90 65 61 100 100 98 63 85 97 100 100 100 100 100 100 91 99 100 100 100 100 100 100 71 35 83 94 77 100 92 15 5 1 5 47
100 100 100 100 100 100 100 100 100 100 99 100 100 100 100 100 100 100 100 100 100 100 100 100 100 100 100 100 100 100 79 40 98 100 100 100 100 62 12 5 5 41 9
100 100 100 100 100 100 100 100 100 100 100 99 89 89 100 100 100 100 100 100 100 100 100 100 100 100 100 100 82 60 47 6 7 52 67 99 100 100 94 43 23 60 75
5 32 100 100 100 100 100 100 100 100 100 100 100 100 100 100 100 100 99 92 17 81 9 10 54 39 98 26 23 74 58 10 20 46 100 100 100 100 100 100 91 96 43
5 5 40 100 100 100 100 100 100 100 100 100 100 100 100 100 100 100 100 100 75 89 49 35 17 34 68 51 24 19 28 43 82 67 100 100 100 100 100 98 68 100 39
5 5 5 27 99 100 100 100 100 100 100 100 100 100 100 100 100 100 100 100 100 100 100 100 100 80 73 75 85 73 46 72 65 56 83 84 96 100 100 100 100 100 92
33 34 55 21 100 98 95 100 100 100 100 100 100 100 100 100 100 100 100 100 97 99 100 100 99 94 100 96 100 100 98 79 66 42 66 100 28 42 100 100 100 100 100
64 91 60 77 88 100 100 98 100 100 100 100 100 100 100 100 100 100 100 100 100 100 100 96 98 100 96 35 46 96 99 100 100 100 100 100 100 100 100 100 100 100 100
52 76 58 19 25 72 95 100 100 100 100 100 66 59 68 87 100 100 100 100 100 100 100 100 99 100 97 100 95 100 73 100 100 100 100 100 100 100 100 100 99 100 100
91 100 63 5 89 96 55 38 72 100 100 100 100 100 100 99 100 90 99 98 82 86 100 100 100 100 100 100 100 100 45 88 100 100 100 100 100 88 100 100 100 97 100
100 79 68 93 26 6 37 56 46 39 64 100 97 100 100 100 100 100 100 100 100 100 100 100 100 100 100 100 93 49 97 94 6 23 40 25 78 96 100 100 96 99 100
100 96 56 100 99 100 56 5 70 54 77 88 83 82 95 100 100 100 100 100 100 100 100 100 100 100 94 39 55 92 89 6 51 82 99 93 100 100 100 100 24 69 72
100 100 100 100 100 98 95 75 68 91 78 59 36 63 57 93 100 100 100 100 100 100 100 100 88 52 72 68 54 70 93 100 100 100 96 75 89 77 46 68 36 16 67
100 100 100 100 100 100 100 100 100 100 100 100 100 100 100 100 100 100 100 100 100 100 100 100 100 100 100 80 99 100 100 100 100 100 100 100 100 100 100 94 86 75 92
100 100 100 100 100 100 100 100 100 100 100 100 100 100 100 100 100 100 100 100 100 100 100 100 100 100 100 100 100 100 100 100 100 100 95 97 90 76 99 94 92 97 18
100 100 100 100 100 100 100 100 100 100 100 100 100 100 100 100 100 100 100 100 100 100 100 100 100 100 100 100 92 97 81 15 10 5 5 5 5 5 5 5 5 4 5
100 100 100 100 100 100 100 100 100 100 100 100 100 100 100 100 100 100 100 100 100 100 100 100 99 85 24 5 5 5 8 10 5 6 5 5 5 13 9 5 5 5 5
100 100 100 100 100 100 100 100 100 100 100 100 100 100 100 100 100 100 100 100 100 100 100 100 94 2 5 4 2 2 5 36 35 56 5 5 5 10 61 16 8 9 12
100 99 100 100 100 100 100 100 100 100 100 100 100 100 100 100 100 100 100 100 100 100 100 14 5 4 5 50 53 10 88 100 100 97 5 25 53 93 100 96 100 99 99
100 100 99 100 99 100 100 100 100 100 100 100 100 100 100 100 100 100 100 100 100 91 8 3 5 5 6 96 100 77 100 100 100 100 95 100 100 100 100 73 72 73 62
100 100 100 100 100 100 100 100 100 100 100 100 100 100 100 100 100 100 100 100 84 6 5 4 2 5 5 92 100 100 100 100 100 100 100 100 100 100 100 74 60 56 54
100 100 100 100 100 100 100 100 100 100 100 100 100 100 100 100 100 100 100 30 5 5 0 0 0 5 43 50 60 84 84 100 100 100 100 100 100 100 81 54 11 6 6
100 100 100 100 100 100 100 100 100 100 100 100 100 100 100 100 100 100 23 5 5 5 5 0 5 5 5 57 6 11 44 98 100 100 100 99 97 60 7 5 11 8 6
100 100 100 100 100 100 100 100 100 100 100 100 100 100 100 100 70 86 52 23 7 5 4 0 4 5 8 50 73 77 80 24 20 36 94 89 72 79 45 5 7 16 5
100 95 98 99 100 100 100 100 100 100 100 100 100 100 99 75 100 100 94 41 5 5 2 5 5 5 5 5 16 19 60 100 100 100 94 76 98 89 44 7 70 37 26

GFSMW_prec_cloud_072.txt.gz
Cloud_Cover
87 100 100 100 100 100 99 68 28 5 32 82 92 53 78 10 12 18 5 5 5 5 57 68 31 90 93 100 32 88 86 93 100 93 99 100 93 70 17 77 31 5 5
90 100 100 100 100 100 100 100 97 28 13 81 100 100 51 29 33 45 77 71 63 89 100 87 95 98 35 68 99 82 100 99 56 97 100 100 67 24 90 17 5 5 5
93 92 100 100 100 100 100 100 100 100 97 69 60 57 68 85 70 86 80 94 100 100 100 100 93 99 98 100 100 100 100 93 90 68 100 94 100 100 99 100 100 46 6
100 100 100 100 100 100 100 100 100 100 100 100 100 100 100 100 100 100 100 100 100 100 100 100 100 100 100 100 98 79 68 99 100 71 50 48 98 100 100 100 100 68 68
96 100 80 100 100 100 100 100 100 100 100 100 100 100 100 100 100 100 100 100 100 100 100 100 100 100 100 100 100 100 100 100 98 52 32 100 70 100 100 71 91 81 51
5 42 100 96 56 65 94 100 100 100 100 100 100 100 100 100 100 100 100 100 100 100 100 90 64 68 67 100 100 99 96 93 94 100 100 100 100 100 98 97 74 100 98
61 8 23 88 74 100 100 100 100 100 100 100 100 100 100 100 100 100 100 100 100 100 100 100 99 93 86 100 100 100 100 100 100 100 100 100 100 100 100 85 79 85 26
36 63 83 14 100 99 79 65 72 86 100 100 100 100 100 100 100 100 100 100 100 100 100 100 100 100 100 100 100 100 100 100 100 100 100 100 100 100 100 100 100 100 99
100 5 5 25 5 28 46 28 39 33 55 75 100 100 100 100 100 100 100 100 100 100 100 100 100 100 100 100 100 100 100 100 100 100 100 100 100 100 100 100 100 100 100
45 5 5 5 5 5 58 100 100 68 86 99 90 97 100 100 100 100 100 100 100 100 100 100 100 100 100 99 100 100 100 100 100 100 98 100 100 100 100 100 100 100 100
98 57 5 5 5 17 15 10 92 100 100 96 91 99 96 99 100 100 100 100 96 100 100 100 93 96 100 100 100 100 100 100 100 100 100 100 100 100 99 69 100 100 100
97 62 21 5 5 15 6 29 98 98 100 100 100 100 100 100 100 100 63 100 99 100 100 100 100 100 100 100 100 100 100 52 84 87 28 97 100 100 83 100 100 97 98
53 28 24 25 9 5 77 43 10 71 22 39 53 92 98 99 94 88 76 96 94 95 66 65 74 96 100 100 92 95 100 80 69 45 100 100 100 100 100 99 88 38 14
92 70 85 100 95 59 43 79 95 76 6 20 15 32 23 90 99 84 100 100 87 47 89 90 89 100 100 100 100 100 100 100 100 100 100 100 82 98 97 98 89 93 81
100 100 100 100 99 100 100 81 80 80 76 70 95 72 96 99 100 100 100 100 100 100 100 100 100 100 100 100 100 100 100 100 100 100 100 100 100 100 100 100 100 40 17
99 100 100 100 100 100 81 100 100 100 100 100 100 100 100 100 100 100 100 100 100 100 100 100 100 100 100 100 100 100 100 100 100 78 59 32 8 30 14 5 14 41 5
52 100 100 100 100 100 100 92 100 100 100 100 100 100 100 100 100 100 100 100 100 100 100 100 100 100 99 100 100 100 100 100 32 8 5 5 5 5 5 19 40 5 6
96 100 100 100 100 75 80 100 92 91 100 100 100 100 100 100 100 100 100 100 100 100 100 100 77 100 100 100 100 100 100 31 13 5 5 5 61 100 67 83 87 82 91
100 99 100 100 100 100 100 100 100 100 100 100 81 100 100 100 100 100 100 100 100 100 93 99 100 100 100 100 100 85 6 5 52 100 99 80 96 100 93 100 100 100 100
100 100 97 98 100 100 100 100 100 100 100 100 100 100 100 100 100 100 100 100 100 100 100 100 100 100 100 100 84 5 5 5 60 99 100 98 100 100 100 100 100 100 100
100 100 100 100 100 100 100 100 100 100 100 100 100 100 100 100 100 100 100 100 100 100 100 100 100 100 72 46 5 3 4 9 61 57 45 78 100 100 100 100 100 100 90
100 99 100 100 100 100 100 100 100 100 100 100 100 100 100 100 100 100 100 100 100 100 100 100 100 98 78 5 5 5 5 5 5 7 57 99 100 100 100 100 100 100 85
100 99 100 100 100 100 100 100 100 100 100 100 100 100 100 100 100 100 100 100 100 100 100 100 100 31 5 5 5 1 3 5 5 7 91 100 97 85 56 48 12 5 12
100 100 100 100 100 99 100 100 100 100 100 100 100 100 100 100 100 100 100 100 100 100 100 92 25 33 5 5 5 3 5 5 5 5 71 90 100 100 48 6 5 9 11
100 100 100 100 100 100 100 98 100 100 100 100 100 100 100 100 100 100 100 100 100 100 98 66 21 34 5 5 5 5 5 5 5 5 29 70 51 12 25 27 46 88 37
100 100 100 100 100 100 100 100 100 100 100 100 100 100 100 100 100 100 100 100 100 100 72 100 77 44 47 6 11 42 32 29 24 29 46 42 32 37 5 22 9 5 11

GFSMW_prec_cloud_075.txt.gz
Cloud_Cover
100 100 100 100 100 98 96 100 98 100 100 100 98 30 5 5 11 51 30 26 7 8 30 39 20 59 62 99 100 100 94 36 5 25 79 92 7 32 79 30 5 5 5
100 100 100 100 94 100 74 87 100 100 100 100 100 100 100 80 67 64 98 99 98 98 100 98 97 100 100 100 97 60 16 6 19 48 70 87 82 99 25 100 79 73 38
100 100 100 100 86 99 100 100 100 100 100 100 100 100 100 100 100 98 97 100 100 100 100 100 100 100 100 100 57 56 97 100 100 97 100 100 48 98 100 100 96 100 86
100 100 100 100 100 100 100 100 100 100 100 100 100 100 100 100 100 100 100 100 100 100 100 100 100 100 100 100 100 100 100 100 100 98 100 100 100 100 100 100 100 100 97
100 100 100 100 100 100 100 100 100 100 100 100 100 100 100 100 100 100 100 100 100 100 100 100 100 100 100 100 100 100 100 100 100 100 100 100 100 98 100 100 100 100 64
100 100 100 100 100 100 100 100 100 100 100 100 100 100 100 100 100 100 100 100 100 100 100 100 100 100 100 100 100 100 100 100 100 100 100 100 100 100 93 100 98 71 100
100 100 100 100 100 100 100 100 100 100 100 100 100 100 100 100 100 100 100 100 100 100 100 100 100 100 100 100 100 100 100 100 100 100 100 100 100 100 100 100 100 96 100
98 90 100 100 100 100 100 100 100 100 100 100 100 100 100 100 100 100 100 100 100 100 100 100 100 100 100 100 100 100 100 100 100 100 100 100 100 100 100 100 100 100 100
100 100 50 70 84 99 100 99 99 94 100 100 100 100 100 100 100 100 100 100 100 100 100 100 100 100 100 100 100 100 100 100 100 100 100 100 99 100 100 100 100 100 100
100 100 100 95 100 41 88 35 5 30 74 96 100 100 100 100 100 100 100 100 100 100 100 100 100 100 100 100 100 100 100 100 100 100 100 100 100 100 100 100 100 100 100
100 100 99 100 100 38 5 26 76 90 95 99 100 100 100 100 100 100 100 100 100 100 100 100 100 100 100 100 100 100 100 100 100 100 100 100 100 100 100 100 100 100 100
100 71 100 89 8 7 4 0 0 7 72 100 100 100 100 100 100 100 100 100 100 100 100 100 100 100 100 100 100 100 100 100 100 100 100 100 100 100 97 100 100 100 99
100 100 100 34 5 2 5 5 5 5 5 5 5 44 97 100 100 100 100 100 100 100 100 100 100 100 91 96 100 99 100 100 100 100 100 91 100 100 100 100 100 15 6
100 100 100 100 99 41 10 5 5 4 3 5 5 5 1 45 75 81 100 100 99 48 65 84 73 90 100 100 100 100 100 100 100 100 90 100 91 94 92 99 60 67 89
93 100 88 65 100 100 89 67 62 21 5 5 5 5 5 24 90 99 100 100 100 100 100 100 100 100 100 100 100 100 100 100 100 100 100 98 99 98 94 80 19 5 5
11 100 100 100 24 100 42 74 74 75 96 100 98 85 78 100 96 100 100 100 100 100 100 100 100 100 100 100 100 100 100 100 100 100 99 100 100 99 16 5 5 5 54
5 5 74 74 98 96 65 71 100 68 99 100 100 100 100 100 100 100 100 100 100 100 100 100 100 100 100 100 100 100 98 100 99 40 33 44 7 5 5 5 5 25 67
38 33 92 39 30 41 68 96 100 100 39 43 77 92 100 100 100 100 100 100 100 100 100 100 100 100 100 100 100 100 100 64 19 67 73 5 5 7 3 8 64 82 100
100 82 31 68 96 100 100 100 100 100 83 62 98 98 100 100 100 100 100 100 100 100 100 100 100 100 100 99 100 100 62 79 100 11 5 5 5 5 25 21 27 27 100
100 100 100 91 58 78 100 100 63 92 100 100 100 100 100 100 100 100 100 100 100 100 100 100 100 100 100 100 100 47 78 100 99 5 0 5 5 5 5 5 5 60 70
100 100 100 100 96 82 84 82 100 100 100 100 100 100 100 100 100 100 100 100 100 100 100 100 100 100 100 100 96 97 100 85 97 4 1 0 5 5 5 5 5 5 8
100 100 100 100 100 100 89 100 91 95 100 100 100 100 100 100 100 100 100 100 100 100 100 100 89 100 100 100 75 100 100 98 6 5 4 1 5 5 5 5 5 5 38
100 89 35 98 99 100 100 100 84 100 100 100 100 100 100 100 100 100 100 100 100 100 100 100 100 100 100 100 100 100 99 5 5 5 5 5 5 5 5 5 5 5 5
79 81 100 99 94 94 97 86 78 100 92 99 100 100 100 100 100 100 100 100 100 100 100 100 100 100 100 100 100 98 11 10 19 5 5 50 60 30 5 5 5 5 5
91 100 100 100 100 100 99 100 100 100 100 100 100 100 100 100 100 100 100 100 100 100 100 100 100 100 100 100 100 98 27 42 49 5 5 62 84 68 31 6 5 38 94
100 100 100 100 100 100 100 100 100 100 100 100 100 100 100 100 100 100 100 100 100 100 100 100 100 100 100 100 100 100 96 90 57 5 6 80 99 82 46 20 5 8 10

GFSMW_prec_cloud_078.txt.gz
Cloud_Cover
100 100 100 100 100 100 100 100 100 100 100 100 100 100 57 47 47 55 27 18 36 43 45 49 48 65 89 95 100 100 100 100 100 100 100 100 100 99 99 55 5 5 5
100 100 100 100 100 100 100 100 100 100 100 100 100 100 100 100 100 100 87 72 61 70 88 85 82 98 100 100 100 100 100 100 100 100 100 100 100 100 100 56 26 61 6
100 100 100 100 100 100 100 100 100 100 100 100 100 100 100 100 100 100 100 100 100 100 100 100 100 100 100 100 100 100 100 100 100 94 100 98 90 82 65 100 99 81 43
100 100 100 100 100 100 100 100 100 100 100 100 100 100 100 100 100 100 100 100 100 100 100 100 100 100 100 100 100 100 100 100 100 100 100 98 89 98 98 99 96 100 100
100 100 100 100 100 100 100 100 100 100 100 100 100 100 100 100 100 100 100 100 100 100 100 100 100 100 100 100 100 100 100 100 100 100 100 100 100 100 100 100 88 96 100
100 100 100 100 100 100 100 100 100 100 100 100 100 100 96 100 100 100 100 100 100 100 100 100 100 100 100 100 100 100 100 100 100 100 100 98 100 100 98 100 99 100 100
100 100 100 100 100 100 100 100 100 100 100 100 100 100 100 97 100 100 100 100 100 100 100 100 100 100 100 100 100 100 100 100 100 100 100 100 100 100 100 100 100 100 100
100 96 100 100 100 100 100 100 100 100 100 100 100 100 100 100 100 100 100 100 100 100 100 100 100 100 100 100 100 100 100 100 100 100 100 100 100 100 100 100 100 100 100
100 100 100 100 100 100 100 100 100 100 100 100 100 100 100 100 100 100 100 100 100 100 100 100 100 100 100 100 100 100 100 100 100 100 100 100 100 100 100 98 100 97 100
100 100 100 100 100 100 100 100 100 100 100 100 100 100 100 100 100 100 100 100 100 100 100 100 100 100 100 100 100 100 100 100 100 100 100 100 98 82 64 84 85 100 100
100 100 100 100 100 96 100 100 100 100 100 100 100 100 100 100 100 100 100 100 100 100 100 100 100 100 100 100 100 100 100 100 100 100 97 100 99 100 99 92 100 100 100
100 100 100 100 100 100 100 99 99 100 96 100 100 100 100 100 100 100 100 100 100 100 100 100 100 100 100 100 100 100 100 100 100 100 100 75 93 100 100 100 100 100 98
100 100 100 100 70 51 100 100 98 99 100 96 49 94 100 100 100 100 100 100 100 100 100 100 100 100 100 100 100 100 100 100 99 51 62 90 100 100 100 100 100 67 96
93 100 100 100 100 80 86 86 100 100 100 88 31 5 5 7 30 71 99 100 100 100 100 100 100 100 100 100 100 100 99 100 100 100 100 100 100 100 90 90 49 40 76
50 98 90 66 100 100 100 100 100 100 63 95 72 68 8 5 31 55 63 94 100 100 100 99 100 100 100 100 100 100 100 100 100 100 100 100 100 100 100 97 71 6 37
0 0 0 5 6 97 100 13 26 5 1 5 24 6 14 27 62 62 90 100 100 100 100 100 100 100 100 100 100 100 100 100 100 100 100 100 100 99 53 27 14 5 3
2 0 0 1 0 5 13 60 73 35 20 13 74 89 80 68 69 100 100 100 100 100 100 100 100 100 100 100 100 100 100 100 100 100 100 100 100 99 46 5 39 5 5
0 0 4 5 5 5 5 6 66 94 39 5 78 100 100 100 100 100 100 100 100 100 100 100 100 100 100 100 100 100 100 100 100 100 99 100 100 27 13 5 2 3 5
64 49 38 96 91 35 32 89 81 5 21 14 50 100 100 90 100 100 100 100 100 100 100 100 100 100 100 100 100 100 100 100 99 100 100 55 45 5 5 1 0 0 0
100 100 51 89 100 97 71 5 16 59 98 88 99 100 97 78 99 100 100 100 100 100 77 99 100 100 100 100 100 100 100 100 100 100 100 46 97 38 5 0 0 0 2
92 100 31 100 100 100 93 13 39 100 98 97 99 95 100 99 100 100 100 100 100 100 100 100 100 100 100 100 100 100 100 100 100 100 90 78 92 46 5 3 1 5 5
88 100 76 88 100 100 100 100 74 91 83 98 100 100 100 100 100 100 100 100 100 100 100 100 100 100 100 100 100 100 76 100 100 97 80 64 92 13 5 4 5 5 5
100 100 100 100 37 10 77 35 78 98 99 89 85 100 100 100 100 100 100 100 100 100 100 100 100 100 100 100 100 100 100 100 100 100 100 100 8 5 5 5 5 5 13
34 26 19 46 96 98 79 93 91 100 100 97 98 96 100 100 100 100 100 100 100 100 100 100 100 100 100 100 100 100 100 100 100 100 100 100 27 5 5 5 5 8 5
96 97 99 100 100 100 100 97 100 100 100 98 100 100 100 100 100 100 100 100 100 100 100 100 100 100 100 100 100 100 100 100 100 100 100 100 100 13 6 5 5 5 6
100 100 100 100 97 100 100 100 100 100 100 100 91 100 100 100 100 100 100 100 100 100 100 100 100 100 100 100 100 100 100 100 100 100 100 100 92 10 5 32 12 5 38

GFSMW_prec_cloud_081.txt.gz
Cloud_Cover
100 100 100 100 100 100 100 100 100 100 100 100 100 100 100 100 100 100 100 91 100 87 40 40 100 100 100 100 100 98 70 98 100 100 100 100 100 97 100 57 41 16 50
100 100 100 100 100 100 100 100 100 100 100 100 100 100 100 100 100 100 100 100 92 86 95 100 100 100 100 100 100 100 100 100 100 100 100 100 100 100 100 100 16 5 5
100 100 100 100 100 100 100 100 100 100 100 100 100 100 100 100 100 100 100 100 100 100 100 100 100 100 100 100 100 100 100 100 100 100 100 100 100 100 100 100 59 14 5
100 100 100 100 100 100 100 100 100 100 100 100 100 100 100 100 99 90 100 100 100 100 100 100 100 100 100 100 100 100 100 100 100 100 100 100 100 100 100 80 49 12 9
99 85 100 100 100 100 100 100 100 100 100 100 100 100 100 100 100 100 100 100 100 100 100 100 100 100 100 100 100 100 100 100 100 100 100 100 100 100 100 100 99 53 74
81 92 95 100 100 100 100 100 100 100 100 100 100 100 100 100 100 100 100 100 100 100 100 100 100 100 100 100 100 100 100 100 100 100 100 100 100 100 100 100 100 100 44
90 95 89 100 100 100 100 100 100 100 100 100 100 100 98 100 100 100 100 100 100 100 100 100 100 100 100 100 100 100 100 100 100 100 100 100 100 100 100 98 100 99 100
5 60 100 100 100 99 100 100 100 100 100 100 100 100 100 100 100 100 100 100 100 100 100 100 100 100 100 100 100 100 100 100 100 100 100 100 100 100 100 100 100 98 77
98 92 99 74 100 100 100 100 100 100 100 100 100 100 100 100 100 100 100 100 100 100 100 100 100 100 100 100 100 100 100 100 100 100 100 100 100 100 100 100 100 96 100
70 31 100 100 100 100 100 100 100 100 100 100 100 100 100 100 100 100 100 100 100 100 100 100 100 100 100 100 100 100 100 100 100 100 100 100 100 100 100 100 100 100 83
100 100 92 97 100 100 100 100 100 100 100 100 100 100 100 100 97 96 100 100 100 100 100 100 100 100 100 100 100 100 100 100 100 100 100 100 100 100 100 99 100 100 100
100 100 100 79 100 100 100 100 100 100 100 100 100 100 100 100 100 100 100 100 100 100 100 100 100 100 100 100 100 100 100 100 100 100 100 100 100 100 100 98 99 100 100
13 64 100 100 97 100 100 100 100 100 100 100 100 97 100 100 100 100 100 100 91 100 100 100 100 100 100 100 100 100 100 100 100 100 100 100 88 95 72 97 100 100 100
100 99 54 72 100 100 100 100 100 100 100 100 100 100 100 100 100 100 100 100 100 100 100 100 100 100 100 100 100 100 100 100 100 100 100 100 100 100 100 98 98 100 100
51 100 100 100 92 100 100 100 100 100 100 100 100 100 100 99 91 90 97 47 27 62 93 100 100 100 100 100 100 100 100 100 100 100 100 99 100 100 100 100 100 100 99
5 1 74 100 100 80 100 100 88 100 99 100 93 48 99 100 100 100 95 67 83 82 100 100 100 100 100 100 100 100 100 100 100 100 100 100 100 100 100 100 100 99 99
5 5 3 0 12 19 5 93 96 94 100 100 100 100 63 80 79 97 93 100 98 98 100 100 100 100 100 100 97 100 100 100 100 100 100 100 100 100 100 100 100 56 41
5 4 2 0 0 3 0 0 0 7 38 66 57 19 5 59 97 100 100 100 100 100 100 100 100 100 100 100 100 99 100 100 100 100 100 100 100 100 100 100 100 79 84
5 5 13 1 4 5 5 5 5 5 8 38 33 28 5 66 100 100 71 100 100 100 100 100 100 100 100 100 100 100 100 100 100 100 100 100 100 100 100 100 100 100 52
88 35 5 36 100 70 66 55 90 79 5 5 29 12 13 70 100 97 87 98 100 100 100 100 91 100 100 100 100 100 100 100 100 100 100 100 100 100 100 100 65 57 80
100 100 42 67 84 25 5 50 100 77 5 5 36 40 71 100 100 100 100 100 100 100 100 100 100 100 100 100 100 100 100 100 100 100 100 100 100 100 100 100 100 97 70
90 46 52 100 95 99 86 100 100 100 98 7 55 90 93 100 92 98 100 100 100 100 100 100 100 100 100 100 100 100 100 100 100 100 100 100 100 100 99 100 100 100 75
100 100 100 100 100 100 74 69 96 100 100 100 99 93 100 100 99 100 100 100 100 100 100 100 100 100 100 100 100 100 100 100 100 100 100 100 100 100 100 100 100 100 100
100 100 100 100 100 100 100 100 99 64 99 100 100 94 100 100 100 100 100 100 100 100 100 100 100 100 100 100 100 100 100 100 100 100 100 100 100 100 100 100 100 100 100
48 55 82 54 95 58 91 77 97 100 100 100 100 95 100 100 100 100 100 100 100 100 100 100 100 100 100 100 100 100 100 100 100 100 100 100 100 100 100 100 100 100 24
82 100 76 82 86 99 100 100 100 100 100 100 100 100 100 100 100 100 100 100 100 100 100 100 100 100 100 100 100 100 100 100 100 100 100 100 100 100 100 100 100 37 50

GFSMW_prec_cloud_084.txt.gz
Cloud_Cover
72 100 100 100 100 100 100 100 98 85 100 100 100 100 100 100 100 100 100 100 100 100 100 70 92 100 100 100 100 100 100 88 41 87 100 100 100 78 100 100 98 100 78
70 100 100 100 100 100 100 100 100 90 100 100 98 100 100 100 100 100 100 100 100 100 100 100 100 100 100 100 100 100 100 100 100 100 100 100 100 86 100 100 100 100 99
80 100 100 100 100 100 100 100 100 100 100 100 100 100 100 100 100 100 100 99 93 100 100 100 100 100 100 100 100 100 100 100 100 100 100 73 99 100 100 100 100 100 100
100 100 100 100 100 100 100 100 100 100 100 100 100 100 100 100 100 100 100 100 100 100 100 100 100 100 100 100 100 100 100 100 100 98 100 99 100 100 100 100 100 100 100
100 100 100 100 100 100 100 100 100 100 100 100 100 100 100 100 100 100 100 100 100 100 100 100 100 100 100 100 100 100 100 100 95 100 100 100 100 100 100 100 100 100 100
65 100 100 100 100 100 100 100 100 100 100 100 100 100 100 100 100 100 100 100 100 100 100 100 100 100 100 100 100 100 100 100 100 100 100 100 100 100 100 100 100 100 100
25 72 100 100 100 100 100 100 100 100 100 100 100 100 100 100 100 100 100 100 100 100 100 100 100 100 100 100 96 100 100 100 100 100 100 100 100 100 100 100 100 100 100
55 41 72 100 100 100 100 100 100 100 100 100 100 100 100 100 100 100 100 100 100 100 100 100 100 100 100 100 100 100 100 100 100 100 100 100 100 100 100 100 100 100 100
0 86 2 81 100 100 100 100 100 100 100 100 100 100 100 100 100 100 100 100 100 100 100 100 100 100 100 100 100 100 100 100 100 100 100 100 100 100 100 100 100 100 100
0 1 37 20 3 83 100 98 100 100 100 100 100 100 100 100 100 100 100 100 100 100 100 100 100 100 100 100 100 100 100 100 100 100 100 100 100 100 100 100 100 100 100
5 5 14 68 100 86 76 100 95 100 100 100 100 100 100 100 100 100 98 100 100 100 100 100 100 100 100 100 100 100 100 100 100 100 100 100 100 100 100 100 100 100 100
5 9 83 17 92 100 95 97 100 78 100 100 100 100 100 100 100 100 100 100 98 93 100 100 100 100 100 100 100 100 100 100 100 100 100 100 100 100 100 100 100 100 98
0 4 45 94 99 100 100 100 100 100 100 100 100 100 100 100 100 100 100 100 100 92 68 57 86 85 82 100 100 100 100 100 100 100 100 100 100 100 100 100 100 82 100
6 12 81 40 5 32 99 100 100 100 100 100 100 100 100 100 100 100 100 100 95 100 100 100 94 99 100 100 100 100 100 100 100 100 100 100 100 100 100 93 51 100 100
5 14 100 100 100 67 6 70 100 100 100 100 68 100 100 100 100 100 100 99 100 100 100 84 98 94 100 99 100 100 100 100 100 100 100 100 100 100 60 54 99 100 98
60 22 5 40 94 89 94 90 5 63 100 100 100 100 94 100 100 100 100 100 100 93 98 99 100 100 100 100 100 100 100 100 100 88 100 100 100 100 100 100 100 100 100
6 10 26 5 5 6 78 92 97 90 7 5 10 83 100 100 79 98 100 100 100 100 100 100 100 100 100 100 100 100 100 99 100 99 99 100 100 100 100 100 100 85 100
30 5 14 27 6 23 5 5 2 2 4 5 4 5 3 53 99 100 100 100 99 100 96 100 100 100 99 100 98 100 100 100 100 100 100 100 100 100 100 100 100 100 100
3 0 1 5 5 5 77 19 5 5 4 4 4 5 5 5 6 82 100 93 98 100 100 100 100 89 33 60 99 89 100 100 100 100 100 100 100 100 100 100 100 100 100
0 0 0 0 0 3 5 5 5 20 63 100 98 94 56 5 76 100 100 96 63 100 100 100 100 18 27 100 90 100 100 100 100 100 100 100 100 100 100 100 100 100 100
68 71 96 6 5 41 66 85 78 98 60 76 100 98 9 10 90 100 100 74 98 100 100 100 98 100 100 100 100 100 100 100 100 100 100 100 100 100 100 100 100 100 100
100 94 98 100 100 88 94 88 100 64 62 72 99 100 100 94 100 100 100 100 100 100 100 100 100 100 100 96 100 100 100 100 100 100 100 100 100 100 100 100 100 100 100
21 80 100 100 100 100 100 100 100 99 94 100 100 100 100 100 100 100 92 100 100 100 100 100 100 100 100 100 100 100 100 100 100 100 100 100 100 100 100 100 100 100 100
5 71 100 100 100 100 100 100 100 100 100 100 100 100 100 100 100 98 97 100 100 100 100 100 100 100 100 100 100 100 100 100 100 100 100 100 100 100 100 100 100 100 100
67 97 82 89 100 100 100 100 100 100 100 100 100 100 100 100 100 100 93 100 100 100 100 100 100 100 100 100 100 100 100 100 100 100 100 100 100 100 100 100 100 100 100
99 96 94 95 68 78 99 100 98 100 100 100 100 100 100 100 100 100 100 100 100 100 100 100 100 100 100 100 100 100 100 100 100 100 100 100 100 100 100 100 100 100 100

GFSMW_prec_cloud_087.txt.gz
Cloud_Cover
100 100 100 100 100 100 100 100 100 95 100 100 99 100 100 100 100 100 100 100 100 100 100 100 100 100 100 100 100 100 100 100 100 100 100 100 100 100 100 83 74 100 60
100 99 99 92 98 100 100 100 100 100 100 100 100 100 100 100 100 100 100 100 100 100 100 100 100 100 100 100 100 100 100 100 100 100 100 100 100 80 34 24 83 93 100
26 100 92 97 59 94 100 100 100 100 100 100 100 100 100 100 100 100 100 100 100 100 100 100 99 98 100 100 100 100 100 100 100 100 100 96 100 100 100 99 100 100 100
0 73 100 100 99 100 100 100 100 100 100 100 100 100 100 100 100 100 100 100 100 100 100 100 100 100 100 100 100 98 100 98 100 100 85 47 100 100 100 100 100 100 100
0 0 2 98 100 100 100 100 100 100 100 100 100 100 100 100 100 100 100 100 100 100 100 99 100 100 100 100 100 100 100 100 100 100 78 97 92 94 100 100 100 100 100
0 0 0 3 100 100 100 100 100 100 100 100 100 100 100 100 100 100 100 100 100 100 100 100 100 100 100 100 100 100 100 100 77 85 72 87 51 100 100 100 100 100 100
0 0 0 0 9 100 100 100 100 100 100 100 100 100 100 99 100 100 100 100 100 100 100 100 100 100 100 100 100 86 77 100 100 98 92 100 100 100 100 100 100 100 100
0 0 0 0 5 81 100 100 100 100 100 100 100 100 100 100 100 100 95 100 100 100 100 100 100 100 88 87 84 96 100 100 100 100 99 99 100 100 100 100 100 100 100
0 0 0 0 5 1 5 99 100 100 100 100 100 100 100 100 100 100 100 100 95 96 100 100 100 100 100 100 100 100 100 100 100 100 100 100 100 100 100 100 100 100 100
0 0 0 0 0 3 3 5 100 100 100 100 100 100 100 100 100 99 100 100 100 100 100 100 100 100 100 100 90 100 100 100 100 100 100 100 100 100 100 100 100 100 100
0 0 0 0 0 0 5 44 74 100 100 100 100 100 100 100 100 100 100 100 100 100 100 100 98 96 100 100 100 100 100 100 100 100 100 100 100 100 100 100 100 100 100
0 0 0 0 3 1 5 60 100 100 100 100 100 100 100 100 100 100 100 100 100 100 100 99 100 90 81 91 51 66 93 100 88 100 100 100 100 100 100 100 100 100 100
1 0 0 1 5 8 30 10 81 100 100 100 93 100 100 100 100 100 100 100 100 100 100 100 95 67 90 64 41 33 79 88 100 96 100 100 100 100 100 100 100 100 100
5 4 0 2 9 4 7 89 100 100 100 100 100 84 100 100 100 100 100 100 74 55 100 100 72 61 99 100 100 100 99 94 90 100 100 100 100 100 100 100 100 100 100
12 5 5 5 5 30 5 4 6 97 100 100 100 100 100 65 100 100 100 79 87 100 100 98 88 51 89 99 100 100 100 100 100 100 100 100 100 100 100 92 92 100 100
88 18 6 5 5 5 94 54 56 30 5 5 41 58 100 100 80 26 70 68 94 60 67 100 88 100 100 100 100 100 100 100 100 100 100 100 100 85 100 100 100 100 100
88 99 96 61 8 99 90 52 86 100 100 98 81 11 4 17 84 100 100 100 100 100 85 100 100 100 100 100 100 100 100 100 100 67 98 93 93 100 100 100 100 100 100
32 5 5 10 6 10 95 100 59 65 83 13 12 8 5 4 3 0 22 19 83 63 64 100 100 100 100 100 100 100 100 100 100 100 100 96 99 100 100 100 100 100 100
33 5 5 5 5 67 100 100 99 43 26 25 5 5 4 4 4 5 5 100 58 21 40 100 100 100 100 68 100 100 100 94 95 97 100 100 99 100 100 100 100 100 100
43 3 2 5 15 100 94 62 19 11 6 22 18 5 5 5 56 35 62 100 74 65 53 100 100 100 73 5 38 6 55 93 87 100 100 100 100 100 100 100 100 100 100
7 27 6 5 5 5 3 1 5 13 64 77 64 22 5 97 90 89 78 100 100 93 100 100 100 100 80 100 94 76 78 100 100 100 100 100 100 100 100 100 100 100 100
20 70 100 100 100 71 36 77 98 80 88 100 100 76 76 88 26 100 100 100 100 100 100 100 100 100 79 77 99 92 100 100 100 100 100 100 100 100 100 100 100 100 100
100 82 85 100 100 100 100 100 100 100 100 100 100 100 100 100 100 100 100 100 100 100 100 100 100 100 39 66 93 100 100 100 100 100 100 100 100 100 100 100 100 100 100
42 6 14 22 50 83 98 100 100 100 100 100 100 100 100 98 100 100 100 100 100 100 100 100 100 100 72 28 94 78 97 96 100 100 100 100 100 100 100 100 100 100 100
100 92 74 90 82 97 100 100 100 100 100 98 100 100 100 100 100 100 100 100 100 100 100 100 100 100 78 94 99 98 100 100 100 100 100 100 100 100 100 100 100 100 100
100 100 100 100 99 100 96 90 94 100 100 100 95 100 100 100 100 100 100 100 100 100 100 100 100 94 69 80 100 100 100 100 100 100 100 100 100 100 100 100 100 100 100

GFSMW_prec_cloud_090.txt.gz
Cloud_Cover
47 81 100 100 100 100 100 100 100 100 96 100 100 100 100 100 100 100 100 100 100 100 100 100 100 100 100 100 100 100 100 100 100 100 84 100 99 98 81 98 93 67 12
100 100 100 100 100 100 100 100 100 92 100 100 100 100 100 100 100 100 100 100 100 100 100 100 100 100 100 100 100 100 100 100 100 100 100 100 100 46 37 84 6 6 16
100 96 100 92 100 100 100 100 100 100 100 100 97 100 83 100 100 100 100 100 100 100 100 100 100 100 100 100 100 100 100 100 100 94 97 100 100 100 100 96 90 10 12
100 100 100 96 95 76 100 100 100 100 100 100 100 95 53 62 97 100 100 100 100 100 100 100 100 97 96 90 93 99 99 99 100 100 100 100 100 100 100 100 40 53 96
0 100 100 100 100 100 100 100 100 100 84 98 100 100 100 100 100 100 100 100 100 100 100 100 100 100 100 100 100 100 100 100 99 100 100 99 98 93 100 100 100 100 100
5 85 100 100 100 100 100 100 100 100 100 100 100 100 100 100 100 100 100 100 100 100 100 98 100 100 100 100 100 97 83 99 100 100 100 100 100 100 100 100 100 100 100
4 2 70 100 100 75 100 100 100 95 100 100 100 100 100 100 100 100 100 100 100 100 100 100 100 100 100 100 100 100 100 100 91 69 69 64 71 92 92 100 100 100 100
5 5 0 0 0 1 16 7 100 100 100 100 100 100 100 100 100 100 100 100 100 100 89 100 100 100 100 99 97 99 100 98 97 100 100 100 100 100 100 100 100 100 100
5 0 0 0 0 0 0 3 5 12 93 100 100 100 100 100 100 100 100 100 99 100 100 100 100 100 95 99 100 100 99 100 100 100 97 100 100 100 100 100 100 100 100
5 0 0 0 0 0 0 0 0 3 47 96 100 99 100 100 100 100 100 100 100 100 99 98 100 100 100 100 100 94 90 71 79 73 96 100 100 100 100 100 100 100 100
6 2 0 0 0 0 0 0 0 5 42 7 86 100 100 100 100 100 100 100 100 100 100 100 100 100 100 100 94 75 78 99 100 100 100 100 100 100 100 100 100 100 100
5 2 0 0 0 0 0 0 0 0 32 100 100 100 97 100 100 100 100 100 100 100 100 100 100 100 100 100 100 96 50 83 98 100 60 64 92 89 100 100 100 100 100
5 5 5 9 3 0 0 0 0 0 5 100 100 100 94 100 100 100 100 100 100 100 96 96 77 83 87 93 97 90 81 28 96 63 100 100 100 100 100 100 100 100 100
5 69 100 100 35 4 0 0 0 0 0 25 100 99 100 100 96 100 84 100 100 100 100 100 100 90 100 100 98 100 100 100 100 100 100 100 100 100 100 100 100 100 100
44 100 100 100 27 5 0 0 0 0 0 0 4 25 100 100 100 100 100 91 98 80 100 99 96 87 96 100 100 100 100 100 100 100 100 100 100 100 100 100 92 100 100
100 17 23 57 5 5 1 0 0 0 0 5 4 4 59 78 100 100 74 95 100 100 100 100 58 100 100 100 100 100 100 100 100 100 100 100 100 100 100 100 98 100 100
8 12 100 100 32 57 5 5 4 5 4 5 8 5 5 5 77 90 88 95 72 75 50 81 63 40 97 100 100 100 100 100 100 100 100 99 57 49 94 97 100 100 100
100 100 100 100 100 100 100 100 76 5 5 43 26 30 36 29 34 7 5 5 5 5 5 3 17 86 100 100 100 100 100 100 100 95 92 49 90 90 100 99 100 100 100
37 100 100 100 100 100 52 36 8 5 5 16 13 21 10 5 5 5 5 5 5 7 5 9 92 100 100 100 100 100 100 100 44 14 5 5 70 100 100 100 100 100 100
22 14 32 79 100 100 100 90 38 5 5 14 64 41 5 6 39 5 5 5 82 82 100 77 86 100 100 100 40 5 5 5 5 5 5 62 100 100 100 100 100 100 100
6 6 46 5 30 5 5 16 5 13 79 82 63 98 92 33 98 7 5 10 100 100 100 100 100 100 100 100 46 13 5 5 20 19 58 100 100 100 100 100 100 100 100
9 5 5 42 5 5 5 99 87 62 69 80 77 100 100 93 92 71 67 91 100 100 100 100 100 100 100 100 27 20 7 74 91 100 78 100 100 100 100 100 100 100 100
91 14 28 65 100 70 18 86 100 100 100 100 100 100 100 100 91 100 100 100 100 100 100 100 100 100 100 84 76 24 34 5 63 100 100 90 96 100 100 100 100 100 100
100 99 31 33 68 72 100 92 100 100 100 100 100 100 100 100 100 100 100 100 100 100 100 100 100 100 100 86 94 59 81 77 62 82 90 98 98 88 99 100 100 100 100
100 100 100 73 91 84 87 99 100 100 100 100 100 100 100 100 100 100 100 100 100 100 99 100 100 100 100 100 73 75 16 76 97 100 96 100 100 100 100 100 100 100 100
100 100 100 100 100 100 100 100 100 100 100 99 99 100 100 100 93 100 100 100 100 100 100 100 100 100 100 85 81 95 87 80 76 100 100 100 100 100 100 100 100 100 100

GFSMW_prec_cloud_093.txt.gz
Cloud_Cover
100 100 100 100 100 100 100 100 100 100 100 100 100 100 100 100 100 100 100 100 100 100 100 100 100 100 100 100 100 100 100 100 100 100 91 100 98 95 100 98 80 100 100
100 100 100 100 100 100 100 100 100 100 100 100 100 100 100 100 100 100 100 100 100 100 100 100 100 100 100 100 100 100 100 100 100 100 100 99 65 70 84 100 100 100 82
100 100 100 100 100 100 100 100 100 100 100 100 100 100 100 100 100 99 100 100 100 100 100 100 100 100 100 100 99 77 100 99 73 60 53 91 100 100 100 100 64 74 98
95 100 100 100 100 100 100 100 100 100 100 100 100 100 100 98 96 100 100 100 100 100 100 100 100 100 100 100 100 100 100 100 100 62 100 100 100 100 100 100 100 94 100
100 100 100 100 100 100 100 100 87 100 100 100 100 99 100 95 100 100 100 100 100 100 99 100 100 100 100 100 100 100 100 100 100 100 100 82 99 99 87 100 100 100 89
3 100 100 100 100 100 100 100 100 100 100 100 100 100 100 100 100 100 100 100 100 100 100 100 100 100 100 100 100 92 93 99 100 87 100 90 100 100 58 67 50 100 100
0 0 95 100 100 100 100 100 100 100 100 100 100 100 100 100 100 100 100 100 100 100 100 100 100 100 100 100 100 100 100 100 98 100 97 99 100 80 82 87 99 100 100
3 0 0 25 100 100 100 100 100 100 100 100 100 100 100 100 100 100 100 100 100 100 100 100 100 100 100 100 100 100 95 90 90 100 100 95 100 100 100 100 100 100 100
97 7 41 5 0 21 96 100 100 96 98 92 100 100 100 100 100 100 100 100 100 100 100 100 100 100 100 100 100 100 100 80 100 100 100 100 100 100 100 100 97 100 99
82 59 5 2 4 0 0 1 82 100 100 100 100 100 100 100 100 100 100 100 100 100 100 100 100 100 100 100 100 100 100 100 100 100 100 94 100 100 100 100 100 100 100
89 75 60 8 8 28 2 0 0 21 99 100 100 100 100 100 100 100 100 100 100 100 100 100 100 100 100 100 100 100 100 100 100 100 100 100 100 100 100 100 100 100 100
98 66 11 2 42 54 5 1 0 0 0 0 5 80 100 100 100 100 100 100 100 100 100 100 100 100 100 100 100 100 100 100 100 100 100 100 100 100 100 77 100 100 100
100 100 100 56 5 0 0 0 0 0 0 0 0 4 76 100 100 100 100 26 99 100 100 100 100 100 98 100 100 100 100 100 71 96 44 99 100 95 100 100 100 100 100
79 99 81 39 21 4 0 0 0 0 0 0 0 1 50 100 99 91 90 100 98 88 100 100 100 100 100 45 100 87 71 94 68 62 80 100 100 100 100 100 100 100 100
88 95 98 88 94 53 5 0 0 0 0 0 0 0 0 12 100 100 75 64 100 100 100 100 100 93 34 21 78 84 92 96 99 100 100 100 100 100 100 100 100 100 100
100 100 98 99 71 2 5 5 50 17 5 0 0 0 0 0 0 3 57 65 65 45 97 96 39 33 27 5 52 100 100 100 100 100 100 100 100 100 100 100 100 62 100
100 70 93 100 100 77 46 90 94 80 7 5 0 0 0 0 0 0 0 5 5 13 56 63 21 17 5 12 100 100 100 100 100 100 100 100 93 6 5 5 5 96 83
100 100 100 100 99 59 5 8 21 50 54 24 5 3 0 0 0 1 5 5 5 4 5 5 5 5 0 29 99 100 100 100 100 100 100 70 5 5 22 80 100 100 100
100 100 100 100 100 100 90 9 5 5 95 99 100 93 97 4 0 3 5 17 5 6 2 5 5 5 3 70 100 98 100 100 100 100 41 5 5 18 5 58 100 100 100
100 100 100 100 100 100 100 100 94 85 100 100 100 100 95 9 5 5 5 5 8 81 100 100 12 14 13 100 100 100 69 96 90 6 5 5 7 15 79 97 61 100 100
61 87 95 77 79 94 100 100 100 100 100 94 36 20 5 18 38 35 63 12 63 66 100 79 100 95 91 100 100 100 50 21 9 5 5 12 71 100 88 100 100 100 100
84 67 94 100 98 100 99 97 96 81 76 85 92 99 52 68 66 61 55 44 46 87 100 100 100 100 95 100 100 100 41 16 16 5 5 12 64 100 100 100 100 100 100
100 100 96 53 52 96 99 100 99 38 53 96 100 100 97 94 88 60 61 91 95 97 100 100 100 94 100 100 100 99 100 94 19 9 53 96 92 96 90 96 100 92 96
91 100 100 100 100 95 46 46 94 100 90 67 100 100 100 100 100 100 100 100 100 87 100 100 100 100 100 100 100 65 100 100 99 84 64 85 97 81 91 99 98 100 100
100 96 100 100 100 100 99 75 81 82 42 83 100 100 100 100 100 100 97 100 100 100 100 100 100 100 100 100 100 99 100 100 100 100 77 81 80 100 100 100 98 100 100
100 100 100 100 100 100 100 100 100 100 100 100 100 100 100 100 100 100 100 100 100 100 100 100 100 100 100 100 100 99 96 100 99 99 86 93 100 100 100 100 100 100 100

GFSMW_prec_cloud_096.txt.gz
Cloud_Cover
100 100 100 100 100 100 100 100 100 100 100 100 100 100 100 100 100 84 27 84 100 97 100 100 100 100 100 100 100 100 100 100 100 90 10 21 25 29 68 62 5 5 11
100 100 100 100 100 100 100 100 100 100 100 100 100 100 100 100 100 100 100 100 94 95 100 96 78 100 100 100 100 100 100 100 100 100 100 83 100 70 20 5 36 32 100
100 100 100 100 100 100 100 100 100 100 100 100 100 100 100 100 100 100 100 88 83 100 100 100 100 100 100 100 100 100 100 100 78 60 50 93 92 92 52 7 59 5 5
100 100 100 100 100 100 100 100 100 100 100 100 100 100 100 100 100 100 100 100 100 100 100 100 100 100 100 100 100 100 100 100 100 100 90 100 99 100 100 86 74 85 94
100 100 100 100 100 100 100 100 100 100 100 100 100 100 100 100 100 100 100 100 100 100 100 100 100 100 100 100 100 100 100 100 100 95 100 100 94 37 84 98 100 57 100
100 100 100 100 100 100 100 100 100 100 100 100 100 100 100 100 100 100 100 100 100 100 100 100 100 100 100 100 100 100 100 100 100 100 100 88 33 9 35 61 100 91 91
100 100 100 100 100 100 100 100 100 100 64 100 100 100 100 100 100 100 100 100 100 100 100 100 100 100 100 100 100 98 100 100 100 100 98 97 83 100 100 94 77 11 76
100 100 100 100 100 100 100 100 100 100 100 100 100 100 100 100 100 100 100 100 100 100 100 100 100 100 100 100 100 97 100 100 100 100 100 100 98 100 100 100 100 100 100
55 99 100 100 100 100 100 100 100 100 100 100 100 100 100 100 100 96 100 100 100 100 100 100 100 100 100 100 100 100 100 100 88 77 98 100 91 100 100 100 100 100 100
5 0 87 100 90 87 100 100 100 100 100 100 100 100 100 100 100 100 100 100 100 100 100 100 100 100 100 100 100 100 100 100 100 100 100 100 99 89 99 98 98 100 100
5 5 4 15 91 100 92 100 100 100 100 100 100 100 100 100 100 100 100 100 100 100 100 100 100 100 100 100 100 100 100 100 100 100 96 83 98 80 100 100 100 78 100
68 8 70 64 69 87 88 100 100 98 100 100 100 100 100 100 100 100 100 100 100 100 100 100 100 100 100 100 100 100 100 100 68 73 100 100 100 100 100 100 100 99 99
16 29 100 65 100 100 54 5 5 65 84 96 90 96 83 100 100 100 100 100 98 68 49 83 82 92 100 100 100 100 100 100 100 100 85 100 100 100 100 100 100 100 100
98 44 99 100 51 9 5 3 0 0 0 0 0 2 26 23 48 69 69 98 86 100 98 100 100 100 100 100 100 100 100 100 100 100 97 100 100 100 100 100 100 100 100
100 100 100 100 100 74 5 26 7 5 2 5 3 1 1 1 0 0 2 5 7 69 28 5 44 84 69 28 54 85 94 98 100 100 100 100 100 100 100 100 100 100 100
100 100 100 100 99 100 96 42 32 31 5 5 5 3 0 0 2 0 0 6 60 38 5 18 32 0 44 100 100 99 60 100 100 100 100 100 100 100 100 100 100 100 100
99 99 100 100 100 100 100 94 20 5 39 22 8 5 5 3 0 0 0 0 15 6 47 2 4 4 2 4 9 36 68 96 100 100 100 100 100 99 17 8 48 28 57
98 100 100 100 100 100 100 100 100 99 68 47 85 41 5 5 1 0 0 0 0 0 3 1 5 5 5 4 11 92 100 100 100 100 100 100 100 7 5 5 4 5 5
100 100 100 100 100 100 100 100 100 100 100 100 84 56 48 5 1 0 2 4 5 7 5 0 0 1 5 15 98 97 100 100 100 100 100 100 6 5 5 5 5 5 12
73 100 100 100 100 100 100 100 100 100 100 100 99 17 5 5 5 5 5 92 100 100 100 98 8 9 16 19 67 100 100 56 100 100 96 5 5 5 5 5 5 5 70
5 5 39 100 100 100 100 100 100 100 100 54 62 26 5 5 5 16 69 91 100 100 100 100 48 55 41 37 27 100 97 41 8 11 5 5 5 5 5 5 5 6 72
2 5 5 30 100 100 100 100 100 100 100 100 99 38 5 5 55 83 100 100 100 95 44 77 100 100 96 88 96 100 99 64 6 5 12 90 58 33 16 89 100 72 60
4 0 0 5 100 100 100 100 100 100 100 100 100 100 100 100 94 94 85 73 78 26 33 58 100 98 100 99 95 100 100 62 5 31 33 100 100 58 51 63 72 69 40
11 43 38 7 7 99 100 100 100 100 100 100 100 100 100 100 98 100 100 84 100 88 88 82 100 94 91 100 100 100 100 48 95 100 100 100 100 100 100 72 40 66 92
100 100 100 82 97 65 93 100 100 100 100 100 100 100 100 100 100 98 100 100 100 97 98 100 100 100 100 82 100 100 100 100 100 100 99 100 100 100 100 89 60 72 85
100 100 100 100 100 100 100 100 100 100 100 100 100 99 100 100 100 100 100 100 100 100 100 94 100 100 89 100 100 100 100 100 100 100 100 100 100 100 100 79 78 90 89

GFSMW_prec_cloud_099.txt.gz
Cloud_Cover
100 100 100 100 100 100 100 100 100 100 100 100 100 100 100 100 100 100 100 98 86 88 80 98 31 66 100 96 60 88 100 96 66 66 82 92 92 71 94 25 21 34 5
100 100 100 100 100 100 100 100 100 100 100 100 100 100 100 100 100 88 89 65 98 84 96 62 100 100 100 100 69 100 100 98 88 99 98 100 42 98 92 5 2 3 7
100 100 100 100 100 100 100 100 100 100 100 100 100 100 100 100 100 100 100 100 100 100 100 100 100 40 97 70 100 100 100 89 97 87 24 99 95 11 39 16 4 4 4
100 100 100 100 100 100 100 100 100 100 100 100 100 100 100 100 100 100 100 100 100 100 100 100 100 100 100 100 100 100 100 100 100 97 86 42 92 96 94 60 5 5 5
100 100 100 100 100 100 100 100 100 100 100 100 100 100 100 100 100 100 100 100 100 100 100 100 100 100 100 100 100 100 100 100 100 79 73 25 100 63 74 51 100 92 24
100 100 100 100 100 100 100 100 100 100 100 100 100 100 100 100 100 100 100 100 100 100 100 100 100 100 100 100 100 100 100 100 100 91 82 81 41 26 49 54 35 92 100
100 100 100 100 100 100 100 100 100 100 91 89 100 100 100 100 100 100 100 100 100 100 100 100 100 100 100 100 100 100 100 100 100 100 100 100 88 62 91 97 87 87 100
100 100 100 100 100 100 100 100 100 100 100 100 99 100 100 100 100 100 100 100 100 100 100 100 100 100 100 100 100 100 100 100 99 78 100 100 95 100 100 100 100 100 99
100 100 100 100 100 100 100 100 100 100 100 100 100 100 100 100 100 100 100 100 100 100 100 100 100 100 100 100 100 100 100 100 100 100 100 100 100 98 99 80 100 100 100
77 100 100 100 100 100 100 100 100 100 100 100 100 100 100 88 100 100 100 100 100 100 100 100 100 100 100 100 100 100 100 100 100 100 100 100 100 82 85 95 99 100 100
100 96 49 100 100 100 100 100 100 100 100 100 100 100 100 100 100 100 100 100 100 100 100 100 100 100 100 100 100 100 100 100 100 100 100 100 100 100 100 92 100 100 100
100 100 100 89 90 100 100 100 100 100 100 100 100 100 100 100 100 100 100 100 100 100 96 100 100 100 100 100 100 100 100 100 100 100 100 100 100 100 100 100 100 100 100
12 94 100 100 100 100 71 100 100 100 100 100 97 78 100 100 100 100 100 100 100 100 100 100 100 100 100 100 100 93 84 99 100 97 100 100 100 100 100 100 100 100 100
7 61 100 100 100 100 100 100 92 79 97 100 100 100 100 100 100 100 100 82 81 100 100 84 100 63 100 100 100 100 100 100 100 100 100 100 76 53 61 100 100 100 100
45 5 5 5 9 45 99 100 100 100 100 100 98 100 100 90 99 100 100 100 100 100 100 100 100 100 100 100 100 100 100 65 36 28 1 39 76 94 97 100 100 100 100
33 70 85 19 4 3 5 5 19 59 99 100 100 100 100 100 100 93 100 100 100 100 100 100 100 100 100 100 49 89 15 4 12 73 98 100 100 100 100 100 100 100 100
5 85 100 100 100 100 100 95 47 8 8 46 5 13 75 100 100 100 100 100 100 100 100 74 37 6 4 3 0 0 1 2 100 100 100 100 100 100 90 30 12 94 100
0 0 62 100 100 100 100 100 100 100 100 99 74 32 5 6 5 5 30 16 43 61 47 33 34 4 0 0 11 38 95 86 95 100 100 100 100 100 32 5 5 0 2
0 0 0 0 22 32 27 13 80 100 100 100 100 100 99 39 26 5 5 5 5 0 0 2 0 4 0 1 16 50 26 2 89 100 100 100 100 55 5 5 5 5 5
0 0 0 0 0 1 91 85 100 100 100 100 100 100 100 100 100 100 99 10 36 77 99 40 5 5 3 5 51 32 48 14 82 100 100 100 65 5 5 5 5 5 5
2 0 0 0 0 0 0 26 100 100 100 100 100 100 100 99 97 100 100 100 100 100 100 100 68 14 5 5 81 100 98 13 25 85 67 28 5 5 5 43 49 9 12
5 5 5 5 0 0 4 0 3 99 100 100 100 100 100 100 100 100 100 100 100 100 100 100 95 37 86 99 92 100 94 25 37 5 5 5 14 5 5 5 98 96 60
58 50 51 8 5 4 2 2 4 4 100 100 100 100 100 100 100 100 100 100 100 89 100 100 99 100 100 69 100 45 99 89 75 9 12 38 96 38 45 11 100 100 100
100 100 100 100 100 100 11 5 90 5 30 100 100 100 100 100 100 100 100 100 97 84 92 86 99 100 93 59 82 33 100 100 100 44 99 78 100 100 100 100 100 100 100
100 100 100 100 100 100 100 50 100 68 33 100 100 100 100 100 100 100 100 100 100 100 100 100 100 94 100 100 100 100 100 100 100 100 100 100 100 100 100 100 100 100 100
100 100 100 100 100 100 100 100 99 98 88 53 100 100 100 100 100 100 100 100 100 100 100 100 100 100 100 99 100 100 100 100 100 100 100 100 100 100 100 100 95 91 87

GFSMW_prec_cloud_102.txt.gz
Cloud_Cover
100 100 100 100 100 100 100 100 100 100 100 100 100 100 100 100 100 100 100 100 100 100 100 100 100 100 69 30 7 5 63 100 68 39 75 22 9 83 61 83 4 3 7
100 100 100 100 100 100 100 100 100 100 100 100 100 100 100 100 100 100 100 100 100 97 93 100 100 71 39 16 5 19 88 97 60 40 6 6 37 4 45 37 18 5 3
100 100 100 100 100 100 100 100 100 100 100 100 100 100 100 100 100 100 100 100 100 100 100 100 100 96 68 86 27 42 35 29 50 26 33 68 36 5 5 5 5 5 5
100 100 100 100 100 100 100 100 100 100 100 100 100 100 100 100 100 100 100 100 100 100 100 100 100 100 100 99 100 99 100 100 100 100 96 94 100 100 94 49 10 5 5
100 100 100 100 100 100 100 100 100 100 100 100 100 100 100 100 100 100 100 100 100 100 100 100 100 100 100 100 100 100 100 100 100 100 100 100 100 100 98 97 97 21 6
100 100 100 100 100 100 100 100 100 100 100 100 100 100 100 100 100 100 100 100 100 100 100 100 100 100 100 100 100 100 100 100 100 100 100 100 100 100 21 49 99 100 100
100 100 100 100 100 100 100 100 100 100 100 100 100 100 100 100 100 100 100 100 100 100 100 100 100 100 100 100 100 100 100 100 100 100 100 100 100 100 100 84 85 100 92
100 100 100 100 100 100 100 100 100 100 100 100 100 100 100 100 100 100 100 100 100 100 100 100 100 100 100 100 100 100 100 100 100 100 100 100 92 100 100 100 100 37 30
100 100 100 100 100 100 100 100 100 100 100 100 100 100 100 100 100 100 100 100 100 100 100 100 100 100 100 100 100 100 100 100 100 100 100 100 100 100 100 100 100 99 94
100 100 100 100 100 100 100 100 100 100 100 100 100 100 100 100 100 100 100 100 100 100 100 100 100 100 100 100 100 100 100 100 100 100 100 100 97 100 100 100 100 100 100
100 100 100 100 100 100 100 100 100 100 100 100 100 100 100 100 100 100 100 100 100 100 100 100 100 100 100 100 100 100 100 100 100 100 100 100 100 100 100 100 100 100 100
100 100 100 100 100 100 100 100 100 100 100 100 100 100 100 100 100 100 100 100 100 100 100 100 100 100 100 100 100 100 100 100 100 100 100 100 100 100 100 100 100 100 100
77 100 100 100 100 100 100 100 100 100 100 100 100 100 100 100 100 100 100 100 100 100 100 100 100 100 100 100 100 100 100 100 100 100 100 100 100 67 36 60 99 46 67
0 6 76 100 100 100 100 100 100 100 100 100 100 100 100 100 100 100 100 100 100 100 100 100 100 100 100 98 100 100 100 98 99 94 66 100 100 100 84 30 67 42 98
88 32 12 54 100 100 66 67 100 100 100 100 100 100 100 100 100 100 100 100 100 100 100 100 100 100 100 100 100 100 100 90 90 100 100 84 58 33 88 7 49 29 91
1 0 12 85 5 6 92 100 100 100 100 67 80 48 91 100 100 100 100 100 100 100 100 100 100 100 100 100 100 100 78 100 99 22 10 13 10 75 96 48 88 91 79
0 0 0 0 0 4 91 98 14 41 87 97 99 100 100 97 99 100 100 100 100 100 98 100 100 100 100 100 97 6 19 8 56 93 33 33 53 84 54 96 19 28 100
0 0 0 0 0 0 0 0 6 79 76 18 51 47 90 100 100 100 100 100 100 100 100 100 100 100 100 100 100 100 100 97 100 98 10 36 50 90 95 88 0 0 5
0 0 0 1 0 0 0 0 0 0 0 10 100 100 96 16 53 83 86 100 100 100 100 100 100 100 54 61 53 96 66 17 23 14 68 100 98 100 98 7 5 4 4
3 5 5 5 4 0 0 0 0 0 0 0 8 98 100 100 99 99 100 100 100 100 100 100 100 100 100 100 100 86 23 10 24 5 99 100 100 100 43 5 5 5 5
5 2 5 5 5 13 18 6 2 0 5 0 0 0 65 100 100 100 94 100 100 100 100 100 100 100 100 79 100 92 42 6 24 3 88 100 100 55 5 5 5 5 5
52 85 96 96 76 78 93 77 18 71 10 18 5 3 0 21 100 100 100 100 100 100 100 100 100 86 92 97 100 100 96 42 19 6 12 13 11 5 5 5 5 5 5
65 93 100 100 100 100 100 100 95 100 74 81 64 24 10 53 66 100 100 100 100 100 100 100 100 85 100 100 90 91 100 99 74 5 5 5 5 5 5 5 5 7 93
100 100 100 100 100 100 97 100 99 100 100 100 49 100 56 100 100 100 100 100 100 100 100 100 100 100 100 100 100 100 100 100 71 26 27 5 6 5 83 90 95 100 99
100 100 100 100 100 100 100 100 100 100 100 100 92 100 100 100 100 100 100 100 100 100 100 100 100 100 100 100 99 100 100 100 100 97 67 17 9 80 100 100 100 100 100
100 92 100 100 100 100 100 100 100 100 100 100 100 100 100 100 100 100 100 100 100 100 100 100 100 100 100 100 100 100 99 100 100 100 97 91 45 86 99 100 100 100 100

GFSMW_prec_cloud_105.txt.gz
Cloud_Cover
100 100 100 100 100 100 100 100 100 100 100 100 100 100 100 100 93 100 100 100 100 100 100 100 100 100 100 99 100 14 5 36 48 97 96 100 47 5 5 3 22 0 5
100 100 100 100 100 100 100 100 100 100 100 100 100 100 100 100 100 100 100 100 100 100 100 100 100 100 100 100 94 100 71 6 10 5 17 79 27 96 25 63 13 38 4
100 100 100 100 100 100 100 100 100 100 100 100 100 100 100 100 100 100 100 100 100 100 100 100 100 100 100 100 100 100 100 58 87 93 38 98 100 92 46 16 5 5 5
100 100 100 100 100 100 100 100 100 100 100 100 100 100 100 100 100 100 100 100 100 100 100 100 100 100 100 100 100 100 100 64 93 93 92 86 93 70 60 99 93 78 58
100 100 100 100 100 100 100 100 100 100 100 100 100 100 100 100 100 100 100 100 100 100 100 100 100 100 100 100 100 100 100 100 100 100 100 100 100 100 100 100 100 100 68
100 100 100 100 100 100 100 100 100 100 100 100 100 100 100 100 100 100 100 100 100 100 100 100 100 100 100 100 100 100 100 100 100 100 100 100 100 100 100 97 99 65 100
100 100 100 100 100 100 100 100 100 100 100 100 100 100 100 100 100 100 100 100 100 100 100 100 100 100 100 100 100 100 100 100 100 100 100 100 100 100 100 99 100 95 96
100 100 100 100 100 100 100 100 100 100 100 100 100 100 100 100 100 100 100 100 100 100 100 100 100 100 100 100 100 100 98 100 100 100 100 100 100 100 100 100 100 100 100
100 100 100 100 100 100 100 100 100 100 100 100 100 100 100 100 100 100 100 100 100 100 100 100 100 100 100 100 100 100 100 100 100 100 100 100 100 100 100 100 100 100 100
100 100 100 100 100 100 100 100 100 100 100 100 100 100 100 100 100 100 100 100 100 100 100 100 100 100 100 100 100 100 100 100 100 100 100 100 100 100 100 100 100 100 100
100 100 100 100 100 100 100 100 100 100 100 100 100 100 100 100 100 100 100 100 100 100 100 100 100 100 100 100 100 100 100 100 100 100 100 100 100 100 100 100 100 100 100
100 100 100 100 100 100 100 100 100 100 100 100 100 100 100 100 100 100 100 100 100 100 100 100 100 100 100 100 100 100 100 100 100 100 100 100 100 100 100 74 64 100 100
100 100 100 100 100 100 100 100 100 100 100 100 51 100 100 100 100 77 100 100 100 100 100 100 100 100 100 100 100 100 100 100 100 100 100 100 100 100 100 100 100 100 100
100 100 88 100 100 100 100 100 100 100 100 100 100 100 100 100 100 100 100 100 100 100 100 100 100 100 100 100 100 100 100 100 100 100 100 100 100 100 100 100 96 100 100
100 98 93 100 100 100 100 100 100 100 100 100 100 100 100 100 100 100 100 100 100 100 100 100 100 100 100 100 100 100 100 100 100 100 100 100 100 100 100 100 100 100 100
100 100 99 100 100 92 97 91 100 100 100 100 100 100 100 100 100 100 100 100 100 100 100 100 100 100 100 100 100 100 100 100 100 100 100 100 100 75 51 100 85 100 99
97 89 60 99 84 25 19 11 100 100 100 100 100 100 100 96 100 100 100 100 100 100 100 100 100 100 100 100 100 100 100 100 100 100 100 100 52 94 100 90 86 41 62
21 100 100 100 100 100 100 100 99 80 96 83 95 100 100 100 98 78 100 100 100 100 100 100 100 100 100 100 100 100 100 100 100 100 99 46 100 100 25 74 63 3 61
0 0 0 1 12 15 34 44 100 100 100 98 48 67 28 49 94 100 100 100 99 98 100 100 100 100 100 100 100 100 100 100 100 92 96 89 85 61 98 96 100 57 55
0 2 5 1 5 5 5 5 9 23 5 5 4 43 6 2 3 11 52 94 100 100 100 100 100 100 100 100 100 100 100 100 100 100 100 100 100 100 100 100 70 5 4
0 0 4 5 5 5 44 71 54 10 42 96 12 4 0 3 5 3 10 2 8 99 100 100 100 100 100 100 100 100 100 100 100 100 100 88 100 100 100 58 7 35 3
5 5 12 38 5 67 100 100 100 100 100 99 24 14 4 7 33 76 28 100 74 39 100 100 100 100 100 100 100 100 100 100 100 100 100 100 100 100 64 64 6 5 2
28 48 88 100 98 100 100 100 100 100 100 100 90 51 94 100 56 99 66 100 100 100 53 100 100 100 100 100 100 100 100 100 100 100 100 100 99 100 83 9 22 5 3
33 79 92 92 100 100 100 100 100 100 100 100 100 100 100 100 100 100 100 100 100 100 100 100 100 100 100 100 100 100 100 100 100 100 100 100 100 100 79 40 5 5 5
51 96 100 100 100 100 100 100 100 100 100 100 100 100 100 100 100 100 100 100 100 100 100 100 100 100 100 100 100 100 100 100 100 100 100 100 100 93 37 14 5 5 27
37 100 100 100 100 100 100 100 100 100 100 100 100 100 100 100 100 89 100 100 100 100 100 100 100 100 100 100 100 100 100 100 100 100 100 100 73 21 13 5 6 7 99

GFSMW_prec_cloud_108.txt.gz
Cloud_Cover
7 94 93 100 100 100 100 100 100 100 100 100 100 100 100 100 100 100 100 100 100 100 100 100 100 100 100 98 100 100 100 100 100 100 100 100 15 100 34 5 4 5 35
99 66 100 100 100 100 100 100 100 100 100 100 100 100 100 100 100 100 100 100 100 100 100 100 100 100 100 100 100 100 100 100 100 98 91 63 68 98 5 5 4 70 14
88 100 100 100 100 100 100 100 100 100 100 100 100 100 100 100 100 100 100 100 100 100 100 100 100 100 100 100 100 100 100 100 100 100 100 100 100 85 91 55 26 57 72
99 99 100 100 100 100 100 100 100 100 100 100 100 100 100 100 100 100 100 100 100 100 100 100 100 100 100 100 100 100 100 100 100 100 100 100 99 84 100 100 100 75 34
100 100 100 100 100 100 100 100 100 100 100 100 100 100 100 100 100 100 100 100 100 100 100 100 100 100 100 100 100 100 100 100 100 100 100 100 100 100 99 94 100 99 5
100 100 100 100 100 100 100 100 100 100 100 100 100 100 100 100 100 100 100 100 100 100 100 100 100 100 100 100 100 100 100 100 100 100 100 100 100 98 100 99 100 100 100
100 100 100 100 100 100 100 100 100 100 100 100 100 100 100 100 100 100 100 100 100 100 100 100 100 100 100 100 100 100 100 100 100 100 100 100 100 100 100 100 100 100 100
100 100 100 100 100 100 100 100 100 100 100 100 100 100 100 100 100 100 100 100 100 100 100 100 100 100 100 100 100 100 100 100 100 90 100 100 100 100 100 100 100 100 100
100 100 100 100 100 100 100 100 100 100 100 100 100 100 100 100 100 100 100 100 100 100 100 100 100 100 100 100 100 100 100 100 100 100 100 100 100 100 100 100 100 100 100
100 100 100 100 100 100 100 100 100 100 100 100 100 100 100 100 100 100 100 100 100 100 100 100 100 100 100 100 100 100 100 100 100 100 88 100 100 100 100 100 100 100 100
100 100 100 100 100 100 100 100 100 100 100 100 100 100 100 100 100 100 100 100 100 100 100 100 100 100 100 100 100 100 100 100 100 100 100 100 100 100 100 100 100 100 100
100 100 100 100 100 100 100 100 100 100 100 100 100 100 100 100 100 100 100 100 100 100 100 100 100 100 100 100 100 100 98 100 100 100 100 100 100 100 100 100 100 100 100
100 100 100 100 100 100 100 100 100 100 100 100 100 100 100 100 100 100 100 100 100 100 100 100 100 100 100 100 100 100 100 100 100 100 100 100 100 100 100 100 97 100 100
100 100 100 100 100 100 100 100 100 100 100 100 100 100 100 100 100 100 100 100 100 100 100 100 100 100 100 100 100 100 100 100 100 100 100 100 100 100 100 89 96 86 100
100 100 100 100 100 100 100 100 100 100 100 100 100 100 100 100 100 100 100 100 100 100 100 100 100 100 100 100 100 100 100 100 100 100 100 100 100 100 100 100 100 100 100
100 100 100 100 97 100 100 100 100 100 100 100 100 100 100 100 100 100 100 100 100 100 100 100 100 100 100 100 100 100 100 100 100 100 100 100 100 100 100 100 100 100 100
100 100 100 100 100 99 100 100 100 100 100 100 100 100 100 100 100 100 100 100 100 100 100 100 100 100 100 100 100 100 100 100 100 100 100 100 100 100 100 100 100 100 100
100 100 100 100 100 100 100 100 100 100 100 100 100 100 100 100 100 100 83 100 98 100 100 100 100 100 100 100 100 100 100 100 100 100 100 100 100 100 100 100 100 100 100
100 100 100 100 100 100 100 100 100 100 100 100 94 100 100 100 91 100 100 100 98 100 100 100 100 100 100 100 100 100 100 100 100 100 100 100 100 100 100 100 100 100 100
3 47 99 100 100 100 100 100 100 100 98 39 57 55 7 16 4 22 98 97 58 98 100 100 100 98 100 100 100 100 100 100 100 100 100 100 100 100 100 100 100 100 100
0 3 5 7 5 53 54 67 99 100 100 100 100 90 5 5 9 5 4 2 69 17 5 13 56 99 100 100 100 100 100 100 100 100 100 100 100 100 100 100 100 100 100
0 5 5 5 5 8 97 100 100 100 100 100 100 100 100 87 73 39 8 49 25 99 84 38 14 58 100 100 96 100 100 100 100 100 100 100 100 100 100 100 100 100 100
4 5 5 5 5 45 99 100 100 100 100 100 100 100 100 100 100 53 100 100 100 99 100 100 99 62 49 100 100 100 100 100 100 100 100 100 100 100 100 100 100 100 100
0 0 5 6 54 98 100 100 100 100 100 100 100 100 100 100 100 100 100 100 100 100 100 100 100 100 76 100 100 100 100 100 100 100 100 100 100 100 100 100 100 98 100
0 1 5 11 98 100 100 100 100 100 100 100 100 100 100 100 100 100 100 100 100 100 100 100 100 100 97 100 100 100 100 100 100 100 100 100 100 100 100 100 100 100 100
0 0 5 36 100 100 100 99 100 100 100 100 100 100 100 100 100 100 100 100 100 100 100 100 100 100 100 100 100 100 100 100 100 100 98 100 100 100 100 100 100 100 100

GFSMW_prec_cloud_111.txt.gz
Cloud_Cover
0 0 0 6 0 0 18 53 100 100 100 100 100 100 100 100 100 100 100 100 100 100 100 100 100 100 100 100 100 100 100 100 100 100 91 82 100 63 100 100 100 96 9
0 1 24 77 19 62 92 100 100 100 100 100 100 100 100 100 100 100 100 100 100 100 100 100 100 100 100 100 100 94 100 99 80 100 100 100 66 100 100 100 100 98 30
0 16 71 100 41 30 73 100 100 100 100 100 100 100 100 100 100 100 100 100 100 100 100 100 100 100 100 99 86 100 100 100 96 100 100 100 100 100 100 100 100 100 67
3 12 100 57 39 98 99 100 100 100 100 100 100 100 100 100 100 100 100 100 100 100 100 100 100 100 100 100 100 100 100 100 100 100 100 100 100 100 100 100 88 100 70
13 65 98 97 97 100 100 100 100 100 100 100 100 100 100 100 100 100 100 100 100 100 100 100 100 100 100 100 100 100 100 100 100 100 100 100 100 100 100 100 86 100 100
42 100 100 100 100 100 100 100 100 100 100 100 100 100 100 100 100 100 100 100 100 100 100 100 100 100 100 100 100 100 100 100 100 100 100 100 98 100 100 100 36 75 67
100 100 100 100 100 100 100 100 100 100 100 100 100 100 100 100 100 100 100 100 100 100 100 100 100 100 100 100 100 100 100 100 100 100 100 100 100 100 100 100 81 100 100
100 100 100 100 100 100 100 100 100 100 100 100 100 100 100 100 100 100 100 100 100 100 100 100 100 100 100 100 93 100 100 100 100 100 100 100 100 100 100 100 100 100 100
100 100 100 100 100 100 100 100 100 100 100 100 100 100 100 100 100 100 100 100 100 100 100 100 100 100 100 100 100 100 100 100 100 100 100 100 100 100 100 100 100 100 100
100 100 100 100 100 100 100 100 100 100 100 100 100 100 100 100 100 100 100 100 100 100 100 100 100 100 100 100 100 100 100 100 100 100 100 100 100 100 100 100 100 100 100
100 100 100 100 100 100 100 100 100 100 100 100 100 100 100 100 100 100 100 100 100 100 100 100 100 100 100 100 100 100 100 100 100 100 100 100 100 100 100 100 100 100 100
100 100 100 100 100 100 100 100 100 100 100 100 100 100 100 100 100 100 100 100 100 100 100 100 100 100 100 100 100 100 100 100 100 100 100 100 100 100 100 100 100 100 100
100 100 100 100 100 100 100 100 100 100 100 100 100 100 100 100 100 100 100 100 100 100 100 100 100 100 100 100 100 100 100 100 100 100 100 100 100 100 100 100 100 100 100
100 100 100 100 100 100 100 100 100 100 100 100 100 100 100 100 100 100 100 100 100 100 100 100 100 100 100 100 100 100 100 100 100 100 100 100 100 100 100 100 100 100 100
100 100 100 100 100 100 100 100 100 100 100 100 100 100 100 100 100 100 100 100 100 100 100 100 100 100 100 100 100 100 100 100 100 100 100 100 100 100 100 100 93 100 100
100 100 100 100 100 100 100 100 100 100 100 100 100 100 100 100 100 100 100 100 100 100 100 100 100 100 100 100 100 100 100 100 100 100 100 100 100 100 100 100 100 100 100
10 93 100 100 100 100 100 100 100 100 100 100 100 100 100 100 100 100 85 42 93 100 100 100 100 100 100 100 100 100 100 100 100 100 100 100 100 100 100 100 100 100 100
100 100 100 100 100 100 97 100 100 100 100 100 100 100 100 100 100 100 96 100 100 100 100 100 99 100 100 100 100 100 100 100 100 100 100 100 100 100 100 100 100 100 100
100 100 100 100 100 100 100 100 100 100 100 100 100 100 100 99 45 40 82 43 22 21 32 51 62 92 100 100 100 100 100 100 100 100 100 100 100 100 100 100 100 100 100
100 100 100 100 100 100 100 92 100 100 69 13 4 77 92 77 97 80 61 8 7 41 93 100 100 97 100 100 100 100 100 100 100 100 100 100 100 100 100 100 100 100 100
100 100 100 100 93 96 100 100 75 100 100 100 81 11 18 87 75 100 100 100 98 22 5 5 4 5 66 89 97 100 100 100 100 100 100 100 100 100 100 100 100 100 100
96 82 100 21 5 20 97 100 92 97 100 100 100 100 100 100 100 100 100 100 100 93 87 35 41 24 87 94 70 47 100 100 100 100 100 100 100 100 100 100 100 100 100
0 0 0 5 5 30 100 100 100 100 100 100 100 100 100 100 100 100 100 100 100 97 100 100 100 78 91 100 100 100 55 99 100 100 100 100 100 100 100 100 100 100 100
0 0 1 5 5 6 87 100 90 100 100 100 100 100 100 100 100 100 100 100 100 100 100 100 100 100 90 100 100 100 100 100 99 100 100 100 100 100 100 100 100 100 100
0 0 0 5 5 5 5 5 5 50 100 100 100 100 100 100 100 100 100 100 100 100 100 100 100 100 99 64 100 100 100 100 100 100 100 100 100 100 100 100 100 100 100
0 0 0 5 5 5 5 5 5 14 100 100 100 100 100 100 100 100 100 100 100 98 100 100 100 84 100 100 100 100 100 100 100 100 100 100 100 100 100 100 100 100 100

GFSMW_prec_cloud_114.txt.gz
Cloud_Cover
48 5 1 0 8 73 19 1 4 0 28 72 100 100 100 100 100 100 100 100 100 100 100 100 100 100 100 100 100 100 100 100 100 100 100 100 91 100 100 100 100 90 54
0 2 0 47 87 95 6 25 12 98 100 100 100 100 100 100 100 100 100 100 100 100 100 100 100 100 100 100 100 100 100 100 100 100 97 89 90 100 96 100 78 100 17
0 0 1 1 6 68 98 68 63 30 75 100 100 100 100 100 100 100 100 100 100 100 100 100 100 100 100 100 100 100 100 100 100 100 70 100 100 100 95 81 99 100 66
0 0 0 6 36 73 39 7 44 44 50 99 100 100 100 100 100 100 100 100 100 100 100 100 100 100 100 100 100 100 100 100 98 95 99 65 100 100 100 30 80 90 98
1 3 0 69 63 37 42 85 55 33 85 100 100 100 100 100 100 100 100 100 100 100 100 100 100 100 100 100 100 100 100 100 100 100 100 100 97 96 100 84 94 82 100
3 27 100 74 58 59 100 100 100 100 100 100 100 100 100 100 100 100 100 100 100 100 100 100 100 100 100 100 100 100 100 100 100 100 100 100 97 98 100 69 75 100 100
100 100 100 100 100 100 100 100 100 100 100 100 100 100 100 100 100 100 100 100 100 100 100 100 100 100 100 100 100 100 100 100 100 100 100 94 68 82 55 99 96 100 92
100 100 100 100 100 100 100 100 100 100 100 100 100 100 100 100 100 100 100 100 100 100 100 100 100 100 100 100 100 100 100 100 100 100 100 99 90 84 100 100 100 100 100
100 100 100 100 100 100 100 100 100 100 100 100 100 100 100 100 100 100 100 100 100 100 100 100 100 100 100 100 100 100 100 99 100 100 100 100 100 100 100 98 100 98 93
100 100 100 100 100 100 100 100 100 100 100 100 100 100 100 100 100 100 100 100 100 100 100 100 100 100 100 100 100 100 100 100 100 100 100 100 100 94 100 100 100 100 99
100 100 100 100 100 100 100 100 100 100 100 100 100 100 100 100 100 100 100 100 100 100 100 100 100 100 100 100 100 100 100 100 100 100 100 100 100 100 100 100 100 100 100
100 100 100 100 100 100 100 100 100 100 100 100 100 100 100 100 100 100 100 100 100 100 100 100 100 100 100 100 100 100 100 100 100 100 100 100 100 100 100 100 100 100 100
100 100 100 100 100 100 100 100 100 100 100 100 100 100 100 100 100 100 100 100 100 100 100 100 100 100 100 100 100 100 100 100 100 100 100 100 100 100 100 100 100 100 100
100 100 100 100 100 100 100 100 100 100 100 100 100 100 100 100 100 100 100 100 100 100 100 100 100 100 100 100 100 100 100 100 100 100 100 100 100 100 100 100 100 100 100
100 100 100 100 100 100 100 100 100 100 100 100 100 100 100 100 100 100 100 100 100 100 100 100 100 100 100 100 100 100 100 100 100 100 100 100 100 100 100 100 100 100 100
100 100 100 100 100 100 100 100 100 100 100 100 100 100 100 100 100 100 100 100 100 100 100 100 100 100 100 100 100 100 100 100 100 100 100 100 100 100 100 100 100 100 100
96 24 40 100 100 100 100 100 100 100 100 100 100 100 100 100 100 100 100 100 100 78 89 100 100 100 100 100 100 100 100 100 100 100 100 100 100 100 100 100 100 100 100
13 90 100 100 100 100 92 74 11 100 100 100 100 100 100 100 100 100 100 100 99 100 98 12 22 97 100 100 100 100 100 100 100 100 100 100 100 100 100 100 100 100 100
11 14 24 87 100 100 100 87 34 100 100 100 100 29 96 100 100 100 100 100 97 55 28 83 100 96 100 100 100 96 100 100 100 100 100 100 100 100 100 100 100 100 100
73 76 97 100 100 100 100 99 100 100 100 100 100 100 85 93 100 100 100 100 100 100 75 27 15 5 6 5 63 96 98 100 100 100 100 100 100 100 100 100 100 100 100
0 6 65 95 96 100 100 100 100 100 100 97 36 53 7 98 99 100 100 100 100 100 100 100 99 6 5 5 5 52 100 99 100 100 100 100 100 100 100 100 100 100 100
18 91 91 89 93 62 79 95 100 100 7 5 28 21 28 78 100 100 100 100 100 100 100 100 100 100 36 5 4 2 98 100 100 64 100 100 100 100 100 100 100 100 100
5 5 12 41 98 100 100 74 16 92 100 100 100 100 100 99 100 100 100 100 100 100 100 100 100 100 100 88 6 7 11 100 100 100 88 100 100 100 100 100 100 100 100
0 0 4 2 4 5 5 42 10 59 10 87 100 100 100 100 100 100 100 100 100 100 100 100 100 100 100 89 100 40 74 98 100 100 100 100 100 100 100 100 100 100 100
0 0 0 0 0 5 5 5 18 5 61 100 100 100 100 100 100 100 100 100 100 100 100 100 100 100 100 100 100 97 92 100 100 100 100 100 100 100 100 100 100 100 100
0 0 4 3 0 5 5 5 45 6 90 100 100 100 100 100 100 100 100 100 100 100 100 100 100 100 100 100 100 100 89 100 100 100 100 100 100 100 100 100 100 100 100

GFSMW_prec_cloud_117.txt.gz
Cloud_Cover
0 0 10 100 58 5 1 0 19 32 33 70 93 96 100 36 44 23 100 99 100 97 100 100 100 100 100 100 100 100 100 100 100 100 100 100 100 100 100 97 100 96 20
0 0 0 7 5 5 2 4 7 0 40 63 95 100 46 77 100 63 61 100 100 100 100 100 100 100 100 100 100 100 100 100 100 100 100 100 100 100 95 77 87 98 78
0 0 0 1 5 0 0 0 68 3 3 28 100 99 78 100 100 100 39 100 100 100 100 100 100 100 100 100 100 100 100 100 100 100 100 100 100 100 87 100 96 88 91
3 0 0 0 0 0 0 3 100 91 13 100 100 99 98 100 100 68 99 100 100 100 100 100 100 100 100 99 100 100 100 100 100 100 100 100 100 94 100 86 81 65 29
5 2 0 1 0 0 7 14 11 26 63 100 100 100 98 100 100 100 100 100 100 100 100 100 100 100 100 100 96 100 100 100 100 100 100 100 100 100 100 99 77 53 93
2 0 6 28 44 100 100 100 34 100 100 100 100 100 100 100 100 100 100 100 100 100 100 100 100 100 100 100 100 100 100 100 100 100 100 100 100 100 100 99 85 44 89
69 100 99 94 100 99 100 100 100 46 97 98 96 100 100 100 100 100 100 100 100 100 100 100 100 100 100 100 100 100 100 100 100 100 100 100 100 100 100 100 99 69 22
100 100 100 100 100 100 100 100 99 100 100 100 100 100 100 100 100 100 100 100 100 100 100 100 100 100 100 100 100 100 100 100 100 100 100 100 100 100 100 100 72 100 96
100 100 100 100 100 100 100 100 100 100 100 100 100 100 100 100 100 100 100 100 100 100 100 100 100 100 100 100 100 100 100 100 100 100 100 100 100 100 95 100 100 100 99
100 100 100 100 100 100 100 100 100 100 100 100 100 100 100 100 100 100 100 100 100 100 100 100 100 100 100 100 100 100 100 100 100 100 100 100 100 100 100 100 100 100 100
100 100 100 100 100 100 100 100 100 100 100 100 100 100 100 100 100 100 100 100 100 100 100 100 100 100 100 100 100 100 100 100 100 100 100 100 100 100 100 100 100 100 100
100 100 100 100 100 100 100 100 100 100 100 99 100 100 100 100 100 100 100 100 100 100 100 100 100 100 100 100 100 100 100 100 100 100 100 100 100 100 100 100 100 100 100
100 100 100 100 100 100 100 100 100 100 100 100 100 100 100 100 100 100 100 100 100 100 100 100 100 100 100 100 100 100 100 100 100 100 100 100 100 100 100 100 100 100 100
100 100 100 100 100 100 100 100 100 100 100 100 100 100 100 100 100 100 100 100 100 100 100 100 100 100 100 100 100 100 100 100 100 100 100 100 100 100 100 100 100 100 100
100 100 100 100 100 100 100 100 100 100 100 100 100 100 100 100 100 100 100 100 100 100 100 100 100 100 100 100 100 100 100 100 100 100 100 100 100 100 100 100 100 100 100
100 100 100 100 100 100 100 100 100 100 100 100 100 100 100 100 100 100 100 100 100 100 100 100 100 100 100 100 100 100 100 100 100 100 100 100 100 100 100 100 100 100 100
54 98 100 100 98 100 100 100 100 96 100 100 100 100 100 100 100 100 100 100 100 100 100 100 100 100 100 100 100 100 100 100 100 100 100 100 100 100 100 100 100 100 100
92 90 63 34 68 100 91 16 100 100 100 100 100 100 100 100 100 100 100 100 100 100 100 78 100 93 100 62 66 66 37 100 100 100 100 100 100 100 100 100 100 100 100
100 100 100 100 84 37 68 82 86 99 94 74 50 100 100 100 99 100 89 100 100 100 100 100 84 31 2 3 7 6 25 100 100 100 100 100 100 100 100 100 100 100 100
5 23 95 100 100 100 100 88 95 91 92 64 42 48 73 96 26 55 79 100 100 100 100 100 100 100 81 5 5 4 42 100 100 100 100 100 100 100 100 100 100 100 100
0 3 5 90 96 98 95 100 100 100 92 66 61 61 73 66 19 21 71 100 100 100 100 100 100 97 94 94 5 53 50 95 97 100 100 100 100 100 100 100 100 100 100
0 0 0 0 0 0 0 5 5 0 0 3 5 39 5 13 5 24 54 88 100 100 100 100 100 88 100 100 92 6 43 44 78 100 100 100 100 100 100 100 100 100 100
0 0 0 0 0 0 0 5 25 28 90 50 20 50 95 96 97 73 100 100 100 100 100 100 100 100 100 94 78 98 37 63 90 100 100 100 100 100 100 100 99 100 100
0 0 1 4 10 68 82 82 64 61 97 11 54 100 100 94 54 91 100 100 100 100 100 100 100 100 100 100 78 100 100 98 100 84 100 100 98 100 100 100 100 100 100
0 0 0 2 2 2 10 5 5 72 57 6 43 100 100 100 100 86 97 100 100 100 100 100 100 100 100 100 100 100 100 100 100 100 100 100 100 100 100 100 100 100 100
0 0 0 4 5 4 5 5 5 14 6 93 100 100 100 100 100 100 97 96 100 100 100 100 100 100 100 100 100 100 98 100 100 100 100 100 100 100 100 100 100 100 100

GFSMW_prec_cloud_120.txt.gz
Cloud_Cover
0 0 0 0 0 5 5 4 5 36 34 73 100 100 100 100 100 20 5 13 49 33 58 100 96 100 100 100 100 100 100 100 94 100 100 100 100 100 100 93 100 96 100
0 0 0 0 0 5 20 5 5 1 42 41 15 50 9 48 76 51 8 60 1 52 56 89 100 99 100 100 100 100 100 100 100 90 100 100 100 100 100 98 100 100 74
0 0 0 0 0 0 9 78 5 9 18 55 89 100 100 98 100 62 98 80 68 88 100 100 100 100 100 100 100 100 100 100 100 88 100 100 100 100 100 100 87 91 100
0 0 0 0 0 0 5 8 6 0 46 74 91 100 100 100 47 54 44 100 100 100 95 100 97 100 100 100 100 100 100 100 100 100 100 100 100 100 100 100 100 100 100
86 1 0 1 17 83 64 32 23 10 92 99 100 78 54 36 27 36 82 100 100 80 99 100 100 100 100 100 100 100 100 100 100 100 100 100 100 100 100 100 95 100 100
95 100 86 31 14 50 77 36 2 36 20 24 20 30 42 63 77 98 100 100 95 97 100 100 100 100 100 100 100 100 100 100 100 100 100 100 100 100 100 100 100 100 100
100 100 100 100 100 65 92 84 81 79 76 36 36 41 100 100 71 100 100 100 100 100 100 100 100 100 100 100 100 100 100 100 100 100 100 100 100 100 100 100 100 100 100
100 100 100 100 100 100 100 100 99 100 100 100 99 100 100 100 100 100 100 100 100 100 100 99 95 100 100 100 100 100 100 100 100 100 100 100 100 100 100 100 100 100 100
100 100 100 100 100 100 100 100 100 100 100 100 100 100 100 100 100 100 100 100 100 100 100 100 100 100 100 100 100 100 100 100 100 100 100 100 100 100 100 100 100 100 100
100 100 100 100 100 100 100 100 100 100 100 100 100 100 100 100 100 100 100 100 100 100 100 100 100 100 100 100 100 100 100 100 100 100 100 100 100 100 100 100 100 100 100
100 100 100 100 100 100 100 100 100 100 100 100 100 100 100 100 100 100 100 100 100 100 100 100 100 100 100 100 100 100 100 100 100 100 100 100 100 100 100 100 100 100 100
100 100 100 100 100 100 100 100 100 100 100 100 100 100 100 100 100 100 100 100 100 100 100 100 100 100 100 100 100 100 100 100 100 100 100 100 100 100 100 100 100 100 100
100 100 93 100 100 100 100 100 100 100 100 100 100 100 100 100 100 100 100 100 100 100 100 100 100 100 100 100 100 100 100 100 100 100 100 100 100 100 100 100 100 100 100
77 100 100 100 100 100 100 100 100 100 100 100 100 100 100 100 100 100 100 100 100 100 100 100 100 100 100 100 100 100 100 100 100 100 100 100 100 100 100 100 100 100 100
83 100 100 100 100 100 100 100 100 100 100 100 98 91 100 100 100 100 100 100 100 100 100 100 100 100 100 100 100 100 100 100 100 100 100 100 100 100 100 100 100 100 100
36 68 86 15 21 100 100 100 100 100 100 100 100 100 100 100 100 100 100 100 100 100 100 100 100 100 100 100 100 100 100 100 100 100 100 100 100 100 100 100 100 100 100
100 99 60 100 64 100 82 98 76 100 100 100 97 100 100 100 100 100 100 100 100 100 100 100 100 100 99 100 100 98 100 100 100 100 100 100 100 100 100 100 100 100 100
100 100 100 100 100 98 100 53 64 36 100 84 37 63 98 76 99 100 92 100 90 100 98 100 98 70 50 48 72 59 26 22 7 23 98 100 100 100 100 100 100 100 100
66 95 100 99 100 100 100 100 95 21 58 48 76 82 82 99 84 100 56 39 9 6 52 93 100 100 76 92 5 5 77 98 80 87 26 100 100 100 100 100 100 100 100
4 5 19 40 18 54 97 100 98 44 42 66 50 9 12 13 29 30 5 5 5 5 5 5 43 100 99 100 86 13 62 100 100 100 100 73 96 100 100 100 100 100 100
0 0 0 0 0 1 7 37 26 58 25 10 35 7 5 5 5 5 5 5 5 5 5 8 5 12 58 80 100 93 67 100 100 100 100 100 65 94 100 100 100 100 100
5 5 4 3 3 3 1 5 5 5 5 5 5 5 5 5 5 5 5 6 56 88 100 98 89 88 100 100 100 100 86 100 100 100 100 100 100 92 100 100 100 100 100
0 0 1 5 5 5 5 5 5 5 5 5 5 5 5 5 80 99 100 100 100 100 100 100 100 100 90 71 70 100 100 100 100 100 100 100 100 98 100 100 100 100 100
5 1 0 5 5 5 5 5 5 5 5 5 5 9 84 100 100 100 100 100 100 100 100 100 100 100 100 100 100 96 99 100 98 100 100 100 100 100 100 100 100 100 100
3 1 3 5 5 5 5 5 5 5 5 34 92 100 100 100 100 100 100 100 100 100 100 100 100 100 100 100 100 100 100 100 100 100 100 100 100 100 100 100 100 100 100
0 2 5 5 5 5 5 5 5 5 24 100 100 100 100 100 100 100 100 94 100 99 82 100 100 100 87 100 100 100 100 100 100 100 100 100 100 100 100 100 100 100 100